     2.10           OBSERVATION DATA    G (GPS)             RINEX VERSION / TYPE
teqc 2002Apr3 Duncan Agnew 20050511 23:58:36UTC             PGM / RUN BY / DATE
OSX 5.3|G3|cc|OSX 5.3+|G3+                                  COMMENT
BIT 2 OF LLI FLAGS DATA COLLECTED UNDER A/S CONDITION       COMMENT
L 1362 1981                                                 MARKER NAME
9498                                                        MARKER NUMBER
Mark Wyatt Caltrans District 11                             OBSERVER / AGENCY
220309498 TRIMBLE 5700 NP 1.24 / SP 1.24                    REC # / TYPE / VERS
12235206 TRM41249.00                                        ANT # / TYPE
 -2311972.0000 -4843155.0000  3434986.0000                  APPROX POSITION XYZ
        1.8900        0.0000        0.0000                  ANTENNA: DELTA H/E/N
     1     1                                                WAVELENGTH FACT L1/2
     7    C1    L1    L2    P1    P2    S1    S2            # / TYPES OF OBSERV
SNR is mapped to RINEX snr flag value [1-9]                 COMMENT
L1: 3 -> 1; 8 -> 5; 40 -> 9                                 COMMENT
L2: 1 -> 1; 5 -> 5; 60 -> 9                                 COMMENT
  2004     7     6    20     3   50.0000000     GPS         TIME OF FIRST OBS
                                                            END OF HEADER
 04  7  6 20  3 50.0000000  0  6G11G14G22G25G30G 1
  22139900.8134    -161319.04359   -104574.06757                  22139898.7974
        49.5004         34.5004
  21913940.1334      -7428.62159     -9254.26457                  21913937.8674
        49.0004         36.0004
  23164368.5704      -8677.24259    -10057.23157                  23164365.8674
        46.2504         30.0004
  20807598.9454    -150479.50859    -97416.24558                  20807596.9144
        50.0004         40.5004
  24507516.3594    -126296.87159    -82840.64256                  24507516.5234
        43.0004         22.2504
  24479671.4844    -122436.41859    -68222.40356                  24479673.1604
        41.7504         22.5004
 04  7  6 20  4  0.0000000  0  6G11G14G22G25G30G 1
  22132785.1724    -198713.91049   -133712.91247                  22132782.7774
        49.5004         34.0004
  21913536.4144      -9550.46949    -10907.66147                  21913533.9654
        48.7504         35.5004
  23163904.2814     -11118.11349    -11959.22547                  23163901.4064
        46.0004         30.0004
  20800987.9454    -185219.61349   -124486.45048                  20800986.0594
        49.5004         39.7504
  24500913.5234    -160996.34449   -109879.17046                  24500913.2154
        42.2504         22.5004
  24470461.4774    -170834.90249   -105935.41446                  24470463.3164
        41.7504         22.5004
 04  7  6 20  4 10.0000000  0  6G11G14G22G25G30G 1
  22125662.0394    -236144.02749   -162879.25547                  22125659.6484
        49.5004         34.5004
  21913117.8674     -11749.37549    -12621.09147                  21913115.6254
        49.0004         36.0004
  23163426.6954     -13627.02349    -13914.25847                  23163423.9574
        46.2504         30.5004
  20794370.6804    -219991.99249   -151581.80948                  20794369.0234
        50.7504         40.5004
  24494301.1094    -195742.75449   -136954.24046                  24494301.0004
        43.5004         22.7504
  24461237.9064    -219304.71549   -143704.13546                  24461239.7774
        40.2504         21.2504
 04  7  6 20  4 20.0000000  0  8G15G11G14G19G22G25G30G 1
  23779928.7034      51077.29759     31429.95456                  23779929.3484
        38.0004         24.5004
  22118535.3134    -273595.78149   -192062.44647                  22118533.2814
        50.0004         34.5004
  21912687.8284     -14011.87549    -14384.10147                  21912685.0904
        50.0004         35.2504
  24523849.0314       1555.27359     -3237.07856                  24523848.8094
        41.5004         23.0004
  23162939.1174     -16190.49649    -15911.79847                  23162936.7154
        46.2504         31.5004
  20787750.3594    -254783.01649   -178691.70248                  20787748.3594
        50.2504         40.5004
  24487683.1094    -230522.41449   -164055.25146                  24487682.4184
        43.0004         21.5004
  24452003.5084    -267832.29749   -181517.75346                  24452005.1214
        40.0004         21.0004
 04  7  6 20  4 30.0000000  0  8G15G11G14G19G22G25G30G 1
  23782812.5394      66234.10249     43240.42446                  23782813.6214
        39.0004         24.0004
  22111405.7974    -311061.91849   -221256.83147                  22111403.3134
        49.5004         34.5004
  21912246.1484     -16330.92249    -16191.15547                  21912243.5234
        49.0004         34.5004
  24523910.0554       1872.76249     -2989.76446                  24523908.8284
        42.0004         22.5004
  23162442.2274     -18801.46949    -17946.35247                  23162439.9344
        46.5004         30.7504
  20781127.2664    -289585.54349   -205810.55148                  20781125.6374
        50.0004         40.5004
  24481059.3754    -265328.16849   -191176.60446                  24481058.8164
        42.5004         22.0004
  24442758.2974    -316410.50449   -219370.90446                  24442761.1684
        39.2504         19.7504
 04  7  6 20  4 40.0000000  0  8G15G11G14G19G22G25G30G 1
  23785686.0084      81338.89549     55010.31246                  23785688.7424
        37.5004         23.0004
  22104274.5784    -348538.70349   -250459.51747                  22104272.0664
        49.7504         34.2504
  21911795.1884     -18702.83649    -18039.40247                  21911792.5664
        49.0004         34.2504
  24523958.7274       2133.07849     -2786.91046                  24523958.5824
        41.5004         22.7504
  23161936.9454     -21456.21949    -20015.00647                  23161934.5274
        46.2504         31.2504
  20774503.4454    -324395.90649   -232935.50848                  20774501.3594
        50.0004         40.5004
  24474431.6884    -300156.19949   -218315.41746                  24474431.2544
        41.7504         22.0004
  24433505.2344    -365035.63349   -257260.43446                  24433508.5904
        39.0004         19.7504
 04  7  6 20  4 50.0000000  0  8G15G11G14G19G22G25G30G 1
  23788551.3594      96394.10949     66741.55746                  23788553.0044
        37.2504         23.0004
  22097140.9384    -386023.76249   -279668.67947                  22097138.8164
        49.5004         33.7504
  21911333.8134     -21125.25449    -19927.02347                  21911331.5124
        49.2504         34.2504
  24523998.1804       2338.49649     -2626.96446                  24523997.7774
        42.0004         21.7504
  23161424.0084     -24152.28549    -22115.87547                  23161421.6254
        47.0004         30.7504
  20767878.2504    -359211.68049   -260064.68548                  20767876.4224
        50.0004         40.2504
  24467800.9224    -335004.07449   -245469.53746                  24467800.0594
        41.2504         21.7504
  24424244.6024    -413705.23849   -295184.89646                  24424246.6214
        39.0004         19.0004
 04  7  6 20  5  0.0000000  0  8G15G11G14G19G22G25G30G 1
  23791408.1174     111402.57049     78436.39646                  23791409.8164
        38.5004         22.2504
  22090006.6414    -423513.98449   -308881.82947                  22090004.5204
        49.5004         34.0004
  21910864.0554     -23595.20349    -21851.66047                  21910861.6804
        49.0004         35.5004
  24524027.5864       2491.93449     -2507.44946                  24524027.2424
        42.0004         22.5004
  23160903.7424     -26886.61749    -24246.54747                  23160901.0984
        45.7504         31.5004
  20761252.6884    -394029.79749   -287195.67848                  20761250.4844
        51.2504         40.5004
  24461166.3674    -369868.59049   -272636.56546                  24461165.6994
        42.5004         21.0004
  24414974.6564    -462416.31649   -333141.51846                  24414977.2194
        39.5004         19.0004
 04  7  6 20  5 10.0000000  0  8G15G11G14G19G22G25G30G 1
  23794255.3914     126367.92149     90097.64146                  23794257.1254
        38.7504         22.5004
  22082872.2194    -461005.61349   -338096.08547                  22082870.2704
        48.7504         33.5004
  21910385.7344     -26109.04349    -23810.49747                  21910383.3874
        48.5004         35.2504
  24524047.8834       2596.96149     -2425.63946                  24524047.2894
        41.2504         22.0004
  23160377.1724     -29655.56649    -26404.18147                  23160374.4024
        45.2504         30.7504
  20754627.1334    -428846.57049   -314325.62748                  20754625.2304
        50.5004         40.5004
  24454529.0474    -404746.08649   -299813.87446                  24454528.3984
        41.5004         21.0004
  24405697.6174    -511165.12549   -371127.60346                  24405700.5784
        39.2504         18.2504
 04  7  6 20  5 20.0000000  0  8G15G11G14G19G22G25G30G 1
  23797094.9614     141289.46149    101724.72446                  23797096.2814
        39.2504         22.7504
  22075737.6884    -498499.27749   -367311.93247                  22075734.8284
        49.0004         33.0004
  21909898.8284     -28667.53549    -25804.14547                  21909896.3754
        47.7504         35.5004
  24524058.3284       2652.78549     -2382.21546                  24524057.9924
        41.5004         22.5004
  23159842.9454     -32459.74649    -28589.28547                  23159840.5984
        44.5004         31.0004
  20748002.1334    -463662.48049   -341454.91848                  20748000.0984
        50.7504         40.7504
  24447889.6884    -439637.05149   -327001.67246                  24447889.2504
        41.2504         21.0004
  24396414.5944    -559952.40649   -409143.65746                  24396416.5274
        39.7504         19.0004
 04  7  6 20  5 30.0000000  0  8G15G11G14G19G22G25G30G 1
  23799926.3594     156169.12149    113319.15746                  23799928.0634
        39.5004         22.7504
  22068602.7664    -535992.83649   -396527.69747                  22068600.5314
        48.5004         34.0004
  21909404.0394     -31268.59449    -27830.95647                  21909401.6844
        47.0004         35.5004
  24524059.8984       2661.43049     -2375.51946                  24524059.2974
        41.2504         22.7504
  23159303.5234     -35297.13749    -30800.26247                  23159300.3244
        43.2504         32.2504
  20741377.0704    -498475.47349   -368581.91048                  20741375.2194
        51.0004         41.0004
  24441247.6644    -474539.34849   -354198.24746                  24441247.6374
        41.5004         20.2504
  24387123.2894    -608776.00449   -447187.93246                  24387125.3834
        39.7504         18.5004
 04  7  6 20  5 40.0000000  0  8G15G11G14G19G22G25G30G 1
  23802750.2504     171008.63349    124882.35046                  23802752.5784
        39.7504         22.5004
  22061468.2664    -573484.50449   -425741.98847                  22061466.1684
        49.0004         34.0004
  21908900.9064     -33910.46549    -29889.55847                  21908898.8714
        46.0004         34.7504
  24524053.3134       2624.57049     -2404.27246                  24524052.2584
        40.0004         21.5004
  23158757.6174     -38165.84849    -33035.63047                  23158754.7424
        43.7504         31.5004
  20734753.1644    -533283.77349   -395705.26248                  20734751.3244
        50.5004         40.7504
  24434604.4304    -509451.02749   -381402.16446                  24434604.2854
        41.5004         21.2504
  24377826.6414    -657634.10249   -485259.15246                  24377827.8874
        40.2504         19.2504
 04  7  6 20  5 50.0000000  0  9G15G11G14G19G20G22G25G30G 1
  23805566.7194     185807.16449    136413.59446                  23805568.2544
        38.7504         21.7504
  22054333.9774    -610974.85549   -454955.24947                  22054331.9144
        49.7504         34.0004
  21908390.7274     -36593.98449    -31980.61247                  21908388.0434
        46.7504         35.2504
  24524036.9224       2541.32449     -2469.20646                  24524036.8874
        40.5004         21.2504
  24744113.7424    -177814.91059   -128760.40956                  24744113.5864
        39.2504         20.2504
  23158205.6414     -41066.69549    -35296.05047                  23158202.8674
        43.2504         31.5004
  20728130.4534    -568088.08649   -422825.49948                  20728128.4454
        50.5004         40.5004
  24427959.2344    -544372.83649   -408613.90446                  24427958.5314
        41.2504         20.7504
  24368521.7504    -706527.48849   -523357.92246                  24368523.9574
        39.7504         19.0004
 04  7  6 20  6  0.0000000  0  9G15G11G14G19G20G22G25G30G 1
  23808375.1564     200565.05149    147913.14246                  23808376.3954
        39.2504         22.0004
  22047200.1954    -648463.35549   -484167.07547                  22047197.9414
        49.2504         33.5004
  21907871.6954     -39318.64149    -34103.72647                  21907869.6684
        46.5004         35.2504
  24524011.8984       2412.13749     -2569.94646                  24524011.4804
        40.5004         21.0004
  24733959.0554    -231180.55149   -170344.03946                  24733958.4414
        39.0004         18.5004
  23157647.7734     -43999.09049    -37581.06847                  23157644.4414
        43.0004         30.7504
  20721508.4064    -602887.85249   -449942.19848                  20721506.5554
        50.7504         40.5004
  24421311.4614    -579304.19949   -435833.12946                  24421311.6954
        42.5004         20.7504
  24359211.1094    -755455.63749   -561483.68446                  24359212.7974
        41.0004         19.2504
 04  7  6 20  6 10.0000000  0  9G15G11G14G19G20G22G25G30G 1
  23811176.2974     215283.14849    159381.76446                  23811177.5124
        39.7504         21.5004
  22040066.8364    -685949.05149   -513376.70247                  22040064.9304
        49.2504         34.0004
  21907345.7814     -42083.61749    -36258.26547                  21907343.5704
        46.5004         35.5004
  24523979.3204       2237.81349     -2705.81246                  24523978.5124
        39.7504         21.2504
  24723793.2734    -284604.37549   -211972.96646                  24723792.0354
        40.2504         20.0004
  23157083.7504     -46962.10249    -39889.93347                  23157080.5084
        43.0004         32.0004
  20714886.9844    -637682.10249   -477054.60648                  20714884.9144
        51.0004         40.7504
  24414663.3444    -614244.01249   -463058.95246                  24414662.7624
        41.2504         20.5004
  24349894.0474    -804417.62149   -599635.80046                  24349896.3324
        41.0004         19.2504
 04  7  6 20  6 20.0000000  0  9G15G11G14G19G20G22G25G30G 1
  23813969.4384     229960.34449    170818.50046                  23813970.3524
        39.0004         21.0004
  22032933.7274    -723432.98849   -542584.97247                  22032931.6374
        49.5004         33.7504
  21906811.5394     -44889.93049    -38445.01147                  21906809.4024
        46.7504         34.7504
  24523937.4924       2017.13349     -2877.82046                  24523936.3794
        40.0004         20.2504
  24713614.9844    -338087.40649   -253648.01046                  24713614.2304
        40.0004         19.5004
  23156513.9144     -49956.87549    -42223.52347                  23156510.5744
        42.7504         31.0004
  20708266.7974    -672471.94949   -504163.56648                  20708264.7814
        50.7504         40.0004
  24408012.5554    -649193.32849   -490292.12646                  24408012.5204
        41.2504         21.2504
  24340570.2584    -853414.47349   -637815.20746                  24340572.5124
        42.0004         19.7504
 04  7  6 20  6 30.0000000  0  9G15G11G14G19G20G22G25G30G 1
  23816754.1024     244595.63749    182222.52446                  23816755.8444
        40.5004         21.5004
  22025801.4384    -760915.97349   -571792.51047                  22025798.9414
        49.7504         34.0004
  21906269.5234     -47738.57849    -40664.75147                  21906267.0824
        46.5004         35.0004
  24523886.1174       1749.09049     -3086.75846                  24523886.1724
        40.7504         20.7504
  24703426.1644    -391630.50049   -295369.86946                  24703425.6884
        39.5004         19.2504
  23155937.7424     -52984.21549    -44582.52847                  23155934.3714
        43.7504         30.7504
  20701647.3594    -707258.20749   -531269.75148                  20701644.9964
        50.7504         41.0004
  24401359.6414    -684152.97349   -517533.44046                  24401360.2584
        40.5004         20.0004
  24331239.9844    -902447.08249   -676022.38446                  24331241.8794
        41.0004         19.7504
 04  7  6 20  6 40.0000000  0  9G15G11G14G19G20G22G25G30G 1
  23819530.8984     259190.27349    193594.89946                  23819532.2194
        40.5004         22.0004
  22018669.1174    -798396.55549   -600998.14747                  22018666.9964
        49.7504         34.0004
  21905719.7424     -50628.21549    -42916.42847                  21905717.2814
        47.0004         34.7504
  24523826.5394       1435.02749     -3331.53346                  24523826.2304
        40.5004         20.2504
  24693226.7194    -445232.13749   -337137.42446                  24693225.1764
        41.0004         19.7504
  23155355.3594     -56042.71149    -46965.77847                  23155352.5514
        43.0004         31.0004
  20695028.6254    -742039.47349   -558372.01948                  20695026.3914
        50.7504         40.7504
  24394706.1174    -719121.43749   -544781.61146                  24394705.4804
        39.5004         20.2504
  24321902.6254    -951513.98449   -714256.28546                  24321904.5664
        41.7504         19.7504
 04  7  6 20  6 50.0000000  0  9G15G11G14G19G20G22G25G30G 1
  23822301.5784     273744.30549    204935.61946                  23822302.0204
        40.5004         21.2504
  22011537.2114    -835874.70749   -630201.91047                  22011534.7234
        50.0004         33.5004
  21905162.0314     -53558.78949    -45199.99147                  21905159.5394
        47.2504         34.0004
  24523758.5554       1074.85249     -3612.20846                  24523757.8754
        40.0004         20.2504
  24683014.9534    -498892.24249   -378950.35146                  24683013.7154
        41.0004         19.7504
  23154767.6174     -59132.32049    -49373.27747                  23154764.5634
        43.5004         30.5004
  20688410.6724    -776815.59849   -585470.29948                  20688408.7624
        50.2504         40.5004
  24388049.6414    -754098.47749   -572036.39946                  24388049.6884
        38.5004         19.2504
  24312558.6094   -1000615.19149   -752516.96346                  24312560.2344
        40.5004         19.7504
 04  7  6 20  7  0.0000000  0  9G15G11G14G19G20G22G25G30G 1
  23825063.5944     288259.07049    216245.81046                  23825064.3364
        42.2504         22.5004
  22004406.1954    -873348.87149   -659402.56247                  22004403.7384
        49.5004         34.2504
  21904596.9774     -56528.91049    -47514.37747                  21904594.3674
        47.2504         34.7504
  24523681.1414        669.94149     -3927.80846                  24523680.9224
        41.2504         20.2504
  24672793.3524    -552609.42249   -420807.93346                  24672791.5234
        40.2504         20.5004
  23154174.1564     -62251.60549    -51803.92747                  23154170.8244
        43.7504         30.7504
  20681794.3594    -811585.11349   -612563.43348                  20681792.2814
        49.2504         40.2504
  24381392.7114    -789082.61349   -599296.77346                  24381392.1914
        37.7504         19.7504
  24303209.0554   -1049749.23049   -790803.22046                  24303210.4694
        40.7504         19.2504
 04  7  6 20  7 10.0000000  0  9G15G11G14G19G20G22G25G30G 1
  23827818.3444     302734.87949    227525.56046                  23827818.6524
        42.0004         22.5004
  21997275.7274    -910818.50049   -688599.66547                  21997273.5704
        49.5004         34.0004
  21904024.1414     -59538.22749    -49859.28447                  21904021.6914
        47.0004         34.5004
  24523595.8754        220.63349     -4277.91446                  24523595.4804
        40.7504         20.0004
  24662560.4694    -606383.18749   -462709.50646                  24662559.2194
        41.0004         20.2504
  23153574.9144     -65400.14849    -54257.34547                  23153571.8014
        43.5004         31.2504
  20675179.3834    -846347.58649   -639651.05548                  20675177.2194
        49.7504         39.7504
  24374733.3054    -824073.34049   -626562.17446                  24374734.3874
        36.7504         19.7504
  24293852.3524   -1098915.63349   -829114.62046                  24293854.2664
        40.7504         19.7504
 04  7  6 20  7 20.0000000  0  9G15G11G14G19G20G22G25G30G 1
  23830566.0314     317171.88349    238775.12546                  23830566.4884
        42.7504         22.5004
  21990146.6334    -948283.23849   -717792.98147                  21990144.3404
        49.7504         34.5004
  21903444.3594     -62586.50849    -52234.58747                  21903441.6414
        47.2504         34.7504
  24523502.4534       -272.96549     -4662.63646                  24523501.1914
        41.5004         20.0004
  24652317.1724    -660213.23849   -504654.99346                  24652315.4924
        39.7504         21.2504
  23152970.0784     -68577.57849    -56733.31247                  23152967.0044
        43.7504         31.2504
  20668565.4454    -881102.62549   -666732.92248                  20668563.1174
        50.0004         40.5004
  24368074.1884    -859070.48449   -653832.66946                  24368075.0354
        36.0004         20.5004
  24284490.2814   -1148114.11749   -867451.06546                  24284491.7664
        40.7504         19.2504
 04  7  6 20  7 30.0000000  0  9G15G11G14G19G20G22G25G30G 1
  23833305.1884     331568.33249    249993.07646                  23833305.4614
        43.2504         22.5004
  21983018.0004    -985744.78149   -746983.78847                  21983015.8134
        49.7504         34.7504
  21902856.5704     -65675.54349    -54641.63847                  21902853.7384
        47.0004         33.5004
  24523399.0004       -812.63749     -5083.19346                  24523398.3444
        41.0004         22.0004
  24642062.5784    -714101.26649   -546645.67646                  24642060.9064
        40.5004         19.7504
  23152360.0394     -71785.69949    -59233.14647                  23152356.6724
        44.7504         31.0004
  20661953.1564    -915852.00449   -693810.34448                  20661951.2424
        49.0004         40.0004
  24361412.7344    -894075.36749   -681109.23546                  24361413.2934
        36.0004         20.2504
  24275121.9694   -1197346.44549   -905813.94446                  24275123.3164
        41.7504         20.2504
 04  7  6 20  7 40.0000000  0  9G15G11G14G19G20G22G25G30G 1
  23836036.9224     345925.73849    261180.61246                  23836038.2114
        43.0004         22.5004
  21975890.2974   -1023201.50449   -776170.85647                  21975887.5084
        50.0004         34.5004
  21902261.3364     -68803.67649    -57079.15147                  21902258.6804
        47.7504         34.2504
  24523287.9384      -1396.75449     -5538.35946                  24523287.4414
        41.5004         22.0004
  24631796.6954    -768045.59049   -588680.18146                  24631795.5084
        39.7504         19.5004
  23151743.6024     -75022.77749    -61755.58647                  23151740.7774
        44.7504         30.7504
  20655341.6804    -950594.02749   -720882.05148                  20655339.8674
        49.0004         40.5004
  24354750.1024    -929086.42248   -708390.57346                  24354750.7584
        35.5004         20.0004
  24265747.4614   -1246610.93049   -944201.82946                  24265748.4574
        41.5004         21.2504
 04  7  6 20  7 50.0000000  0  9G15G11G14G19G20G22G25G30G 1
  23838762.0234     360244.53549    272338.05346                  23838762.9494
        42.7504         22.7504
  21968763.4844   -1060652.79349   -805353.67847                  21968761.1764
        49.5004         34.7504
  21901657.8984     -71970.37949    -59546.71647                  21901655.9344
        48.2504         34.5004
  24523169.0704      -2024.96549     -6027.89946                  24523167.8634
        41.7504         21.5004
  24621520.7194    -822045.67249   -630758.17346                  24621519.2344
        38.5004         19.2504
  23151122.7344     -78288.35949    -64300.21747                  23151119.7814
        45.5004         31.2504
  20648732.1884    -985328.10249   -747947.56048                  20648730.1564
        49.5004         40.5004
  24348087.2584    -964102.98448   -735676.08646                  24348086.9774
        35.5004         19.2504
  24256367.0164   -1295906.97349   -982614.29946                  24256367.3524
        41.5004         22.5004
 04  7  6 20  8  0.0000000  0  9G15G11G14G19G20G22G25G30G 1
  23841478.9064     374524.24649    283465.01946                  23841479.8794
        43.0004         22.7504
  21961637.3984   -1098099.14849   -834532.64547                  21961635.3444
        50.0004         33.5004
  21901048.1804     -75176.25849    -62044.80547                  21901046.1024
        48.2504         34.0004
  24523039.8284      -2697.77049     -6552.24646                  24523039.6024
        40.7504         21.7504
  24611234.0704    -876101.89149   -672879.93146                  24611232.6134
        38.5004         19.7504
  23150495.4304     -81582.84049    -66867.36547                  23150492.7344
        45.2504         30.7504
  20642123.9064   -1020054.71549   -775007.26548                  20642122.0394
        49.5004         40.7504
  24341422.1804    -999125.50848   -762966.45446                  24341422.2504
        35.5004         19.2504
  24246979.8444   -1345235.14149  -1021051.81446                  24246980.8834
        41.5004         22.0004
 04  7  6 20  8 10.0000000  0  9G15G11G14G19G20G22G25G30G 1
  23844189.4064     388765.27049    294561.88746                  23844190.6294
        42.0004         22.5004
  21954512.9304   -1135539.99249   -863707.35247                  21954509.7074
        49.7504         34.0004
  21900430.8754     -78420.78149    -64573.00747                  21900428.6644
        48.5004         34.2504
  24522904.4774      -3414.92649     -7111.16346                  24522903.3014
        41.0004         21.5004
  24600936.7664    -930213.63749   -715044.78146                  24600935.6454
        39.5004         18.5004
  23149863.5314     -84905.65249    -69456.58547                  23149861.2034
        45.5004         30.5004
  20635516.9534   -1054773.29749   -802060.70048                  20635515.4064
        49.5004         40.5004
  24334756.7274   -1034153.22748   -790260.73246                  24334756.6684
        34.7504         19.2504
  24237586.6884   -1394594.79749  -1059513.84446                  24237588.1174
        42.2504         22.0004
 04  7  6 20  8 20.0000000  0  9G15G11G14G19G20G22G25G30G 1
  23846892.5314     402969.56649    305630.10846                  23846893.5044
        42.0004         22.0004
  21947389.2194   -1172973.08249   -892876.00347                  21947387.0164
        49.7504         33.2504
  21899806.7344     -81701.91449    -67129.75147                  21899804.3244
        49.0004         34.0004
  24522759.7344      -4174.24249     -7702.86446                  24522758.8014
        40.7504         21.0004
  24590630.0784    -984378.77349   -757251.42646                  24590628.4414
        38.0004         19.2504
  23149225.8754     -88254.73049    -72066.28947                  23149223.6174
        45.2504         30.7504
  20628912.7274   -1089481.65249   -829106.17048                  20628910.4024
        49.7504         40.5004
  24328090.3754   -1069184.13748   -817557.54446                  24328090.6524
        34.2504         18.2504
  24228188.7034   -1443983.84049  -1097998.76546                  24228190.3054
        41.7504         22.0004
 04  7  6 20  8 30.0000000  0  9G15G11G14G19G20G22G25G30G 1
  23849588.4144     417136.47749    316669.19946                  23849589.8404
        42.5004         24.2504
  21940267.5554   -1210398.97349   -922039.02747                  21940265.4104
        49.0004         33.7504
  21899175.4224     -85020.34849    -69715.55947                  21899172.8134
        48.0004         34.0004
  24522607.3204      -4976.53949     -8328.06946                  24522606.6294
        41.5004         21.5004
  24580311.7664   -1038597.97749   -799500.19146                  24580310.6884
        37.5004         19.2504
  23148583.5314     -91630.72349    -74696.95547                  23148581.2774
        45.5004         31.0004
  20622309.3364   -1124180.40249   -856144.15848                  20622307.5984
        50.5004         40.7504
  24321423.9694   -1104218.68749   -844857.10046                  24321423.1254
        36.2504         19.0004
  24218784.3914   -1493402.96149  -1136507.16446                  24218785.5124
        42.0004         22.2504
 04  7  6 20  8 40.0000000  0  9G15G11G14G19G20G22G25G30G 1
  23852276.8204     431264.27049    327677.77946                  23852278.1684
        41.0004         22.7504
  21933146.5164   -1247819.33249   -951197.74047                  21933144.1994
        50.0004         33.5004
  21898536.6484     -88377.69149    -72331.66447                  21898534.0084
        48.2504         34.2504
  24522446.3914      -5823.59049     -8988.21746                  24522445.6294
        41.0004         20.5004
  24569984.1644   -1092872.82449   -841792.26346                  24569982.7704
        38.2504         19.5004
  23147936.0314     -95035.27349    -77349.88447                  23147933.3244
        46.0004         30.5004
  20615707.9924   -1158871.23849   -883175.97548                  20615706.1564
        50.0004         40.5004
  24314756.3524   -1139258.41448   -872160.79746                  24314754.7624
        34.5004         18.5004
  24209374.3834   -1542853.68749  -1175040.12946                  24209375.9694
        42.2504         22.0004
 04  7  6 20  8 50.0000000  0  9G15G11G14G19G20G22G25G30G 1
  23854958.0004     445354.56349    338657.17146                  23854959.6884
        41.7504         24.0004
  21926027.0394   -1285232.30549   -980350.70647                  21926024.8754
        49.2504         34.5004
  21897890.2194     -91772.28549    -74976.81747                  21897887.8834
        49.0004         34.0004
  24522276.3284      -6713.76649     -9681.88746                  24522276.6564
        40.2504         22.0004
  24559645.0554   -1147201.53149   -884126.24446                  24559643.9104
        37.5004         19.2504
  23147282.9694     -98466.49649    -80023.57947                  23147280.5634
        47.0004         31.7504
  20609108.2344   -1193552.29349   -910200.16548                  20609106.8524
        49.2504         41.0004
  24308087.5164   -1174301.46148   -899467.04446                  24308086.1134
        34.0004         18.2504
  24199958.2814   -1592334.31649  -1213596.43246                  24199959.7154
        42.5004         22.0004
 04  7  6 20  9  0.0000000  0  9G15G11G14G19G20G22G25G30G 1
  23857632.1954     459408.46549    349608.20146                  23857633.9964
        40.5004         22.7504
  21918909.6804   -1322636.69149  -1009496.98847                  21918907.3404
        49.7504         34.7504
  21897237.5164     -95203.03549    -77650.13347                  21897234.9804
        49.2504         34.0004
  24522098.6024      -7646.00849    -10408.32846                  24522098.8984
        40.5004         22.0004
  24549297.1644   -1201582.91049   -926501.42046                  24549295.0634
        37.5004         18.2504
  23146625.4384    -101923.31649    -82717.23347                  23146622.2274
        46.5004         31.5004
  20602510.9614   -1228222.48449   -937215.90348                  20602508.9844
        50.0004         40.7504
  24301418.2344   -1209346.71548   -926775.07946                  24301416.8524
        33.5004         19.0004
  24190536.5314   -1641843.69949  -1252175.16246                  24190538.3244
        42.0004         20.7504
 04  7  6 20  9 10.0000000  0  9G15G11G14G19G20G22G25G30G 1
  23860300.4304     473429.25049    360533.39146                  23860302.0664
        40.5004         22.7504
  21911793.6724   -1360029.15249  -1038633.97047                  21911791.4964
        49.7504         33.7504
  21896578.8594     -98666.57049    -80349.00047                  21896576.3244
        49.2504         34.5004
  24521913.9694      -8617.08249    -11165.07646                  24521913.9804
        40.2504         22.5004
  24538939.0314   -1256013.55549   -968914.79146                  24538937.4224
        37.5004         18.2504
  23145963.3204    -105402.38749    -85428.22447                  23145960.4534
        46.5004         30.5004
  20595916.0704   -1262878.46149   -964220.55848                  20595913.7704
        50.0004         40.5004
  24294750.0634   -1244390.58648   -954081.89946                  24294748.4454
        34.0004         19.2504
  24181110.6094   -1691378.44549  -1290773.66646                  24181112.0044
        42.5004         20.2504
 04  7  6 20  9 20.0000000  0  9G15G11G14G19G20G22G25G30G 1
  23862962.0944     487413.94549    371430.42846                  23862963.7854
        39.5004         22.2504
  21904679.7974   -1397412.28549  -1067763.67247                  21904677.9734
        49.5004         33.5004
  21895912.6024    -102165.75449    -83075.64847                  21895910.1094
        48.7504         34.2504
  24521722.2584      -9629.79749    -11954.27346                  24521721.6054
        39.7504         22.0004
  24528571.6414   -1310496.26649  -1011368.86346                  24528570.4384
        36.5004         17.7504
  23145296.5864    -108906.48849    -88158.67047                  23145293.6334
        47.2504         30.2504
  20589323.2274   -1297523.01649   -991216.30548                  20589321.6134
        50.7504         40.0004
  24288080.4844   -1279435.92649   -981389.93046                  24288079.4804
        36.5004         19.5004
  24171679.2584   -1740941.34849  -1329394.00946                  24171680.8444
        43.0004         20.7504
 04  7  6 20  9 30.0000000  0  9G15G11G14G19G20G22G25G30G 1
  23865615.8914     501361.23049    382298.42246                  23865617.5394
        40.0004         22.5004
  21897568.0784   -1434787.38749  -1096887.14647                  21897565.3554
        49.5004         33.2504
  21895239.4614    -105701.94949    -85831.13947                  21895237.2814
        48.5004         34.0004
  24521521.1484     -10685.62549    -12777.06946                  24521521.1024
        39.7504         22.5004
  24518193.4454   -1365032.32448  -1053864.45346                  24518192.4264
        35.5004         17.7504
  23144624.8984    -112436.83249    -90909.64647                  23144621.2814
        47.5004         29.7504
  20582732.7114   -1332157.40649  -1018204.14648                  20582730.9844
        50.5004         40.7504
  24281411.6644   -1314483.89549  -1008700.00346                  24281410.1334
        38.0004         18.2504
  24162242.2974   -1790533.69149  -1368037.38946                  24162243.3134
        42.7504         20.7504
 04  7  6 20  9 40.0000000  0  9G15G11G14G19G20G22G25G30G 1
  23868262.8134     515272.65249    393138.37446                  23868265.0864
        38.5004         21.5004
  21890457.3284   -1472152.84049  -1126003.07947                  21890454.9494
        49.0004         34.0004
  21894559.8444    -109273.46549    -88614.14347                  21894558.0904
        49.2504         34.7504
  24521311.7194     -11782.80949    -13632.04046                  24521312.4344
        39.5004         22.7504
  24507805.3834   -1419619.76649  -1096400.13346                  24507804.5434
        36.7504         17.7504
  23143948.3204    -115991.75049    -93679.71047                  23143944.8484
        47.2504         30.5004
  20576144.3914   -1366779.79749  -1045182.61948                  20576142.3754
        51.2504         40.7504
  24274741.2664   -1349532.74649  -1036010.82746                  24274740.3404
        38.7504         18.2504
  24152800.0394   -1840153.79749  -1406702.35646                  24152801.8404
        42.2504         21.0004
 04  7  6 20  9 50.0000000  0  9G15G11G14G19G20G22G25G30G 1
  23870903.0004     529148.71149    403950.83746                  23870906.1374
        38.7504         21.5004
  21883348.6564   -1509508.01249  -1155111.01147                  21883346.4264
        49.5004         34.0004
  21893873.6804    -112879.84049    -91424.30347                  21893871.3714
        49.0004         35.2504
  24521096.0164     -12921.02749    -14519.03446                  24521095.8914
        40.7504         24.5004
  24497408.5554   -1474258.21949  -1138975.47846                  24497407.4224
        36.5004         18.5004
  23143267.4694    -119570.75449    -96468.57247                  23143264.0044
        47.2504         29.5004
  20569558.2344   -1401389.65249  -1072151.34448                  20569556.3054
        51.2504         41.0004
  24268071.7734   -1384581.72349  -1063321.68046                  24268071.2034
        39.2504         17.7504
  24143352.0784   -1889801.10549  -1445388.53946                  24143353.7424
        42.0004         21.5004
 04  7  6 20 10  0.0000000  0  9G15G11G14G19G20G22G25G30G 1
  23873537.3134     542988.34849    414734.87646                  23873539.6764
        39.0004         21.7504
  21876242.1484   -1546853.75449  -1184211.58147                  21876240.0744
        49.0004         34.0004
  21893181.0084    -116521.95749    -94262.31947                  21893178.6884
        48.5004         35.0004
  24520871.2894     -14101.24649    -15438.73646                  24520871.0394
        40.5004         23.7504
  24487000.7194   -1528948.60949  -1181591.35246                  24487000.6054
        37.0004         16.7504
  23142581.4454    -123174.68449    -99276.84647                  23142578.0394
        46.7504         29.5004
  20562974.3134   -1435987.95349  -1099111.04348                  20562972.6134
        50.7504         40.7504
  24261402.3054   -1419631.82449  -1090633.42246                  24261401.7704
        38.5004         16.7504
  24133899.3594   -1939476.55549  -1484096.62346                  24133900.6054
        42.0004         21.5004
 04  7  6 20 10 10.0000000  0  9G15G11G14G19G20G22G25G30G 1
  23876164.1484     556793.63349    425492.14946                  23876166.7894
        39.0004         21.7504
  21869137.8054   -1584187.91449  -1213303.14447                  21869135.4614
        49.7504         34.5004
  21892481.2504    -120197.77049    -97126.61247                  21892478.9224
        48.0004         35.2504
  24520638.4064     -15321.55149    -16389.71146                  24520638.8754
        40.5004         22.7504
  24476584.7114   -1583688.63349  -1224245.82346                  24476584.2274
        37.0004         19.2504
  23141891.3594    -126801.42649   -102102.91147                  23141887.9924
        47.0004         29.2504
  20556393.2504   -1470572.43449  -1126060.00348                  20556391.2704
        51.2504         41.5004
  24254732.3054   -1454680.83649  -1117944.25646                  24254731.4534
        38.2504         18.5004
  24124441.4614   -1989177.97349  -1522824.97146                  24124442.5434
        42.5004         21.0004
 04  7  6 20 10 20.0000000  0  9G15G11G14G19G20G22G25G30G 1
  23878785.7424     570567.02349    436224.51146                  23878787.7114
        39.7504         21.5004
  21862036.0394   -1621507.87949  -1242383.63347                  21862033.6804
        49.5004         33.7504
  21891775.7194    -123904.82849   -100015.22247                  21891773.3834
        48.0004         34.5004
  24520399.4774     -16579.49649    -17369.94646                  24520399.8484
        40.5004         22.5004
  24466158.3754   -1638475.84049  -1266937.12246                  24466158.1374
        37.0004         18.5004
  23141197.5554    -130448.43049   -104944.73947                  23141193.7234
        46.0004         29.5004
  20549815.2114   -1505140.55149  -1152996.19248                  20549812.9414
        51.2504         41.0004
  24248062.8444   -1489726.00849  -1145252.23846                  24248062.7344
        38.2504         17.2504
  24114979.1094   -2038902.86349  -1561571.65746                  24114980.0864
        42.5004         20.2504
 04  7  6 20 10 30.0000000  0  9G15G11G14G19G20G22G25G30G 1
  23881399.9774     584306.94149    446930.92246                  23881402.5204
        39.7504         21.0004
  21854936.7894   -1658814.97349  -1271454.09647                  21854934.4304
        50.0004         33.0004
  21891064.2424    -127644.57049   -102929.32247                  21891062.1604
        47.7504         34.2504
  24520152.4924     -17876.60549    -18380.74746                  24520153.5824
        40.2504         22.2504
  24455723.6644   -1693311.59049  -1309666.33346                  24455723.6844
        37.0004         19.5004
  23140499.0234    -134117.18749   -107803.51947                  23140495.5354
        46.0004         29.5004
  20543239.8834   -1539693.68749  -1179920.70448                  20543237.8914
        50.7504         40.2504
  24241395.2734   -1524768.75849  -1172558.24346                  24241394.5634
        39.0004         18.2504
  24105511.9614   -2088652.57049  -1600337.63446                  24105513.0474
        42.0004         20.0004
 04  7  6 20 10 40.0000000  0  9G15G11G14G19G20G22G25G30G 1
  23884009.1804     598015.91849    457613.13246                  23884011.1884
        40.7504         21.5004
  21847840.2814   -1696106.60549  -1300512.51047                  21847838.3054
        49.5004         34.0004
  21890346.7504    -131414.44949   -105866.89547                  21890344.7274
        46.7504         34.0004
  24519898.9924     -19210.27049    -19420.04846                  24519899.8094
        40.0004         22.5004
  24445280.3284   -1748193.20349  -1352431.15946                  24445279.0274
        38.0004         18.5004
  23139797.5004    -137805.01249   -110677.16847                  23139793.9574
        45.2504         29.7504
  20536667.9694   -1574229.18049  -1206831.47948                  20536666.0944
        50.7504         40.5004
  24234728.1414   -1559806.38349  -1199860.31146                  24234727.3914
        37.5004         19.7504
  24096039.9144   -2138424.46949  -1639120.92146                  24096041.6334
        41.7504         19.7504
 04  7  6 20 10 50.0000000  0  9G15G11G14G19G20G22G25G30G 1
  23886612.1644     611695.59849    468272.57446                  23886614.1724
        40.2504         22.0004
  21840747.1954   -1733381.02749  -1329557.50247                  21840745.3094
        49.2504         33.7504
  21889623.9694    -135212.85949   -108826.68447                  21889621.6254
        46.5004         33.5004
  24519638.6334     -20579.10549    -20486.70546                  24519638.9574
        40.2504         22.5004
  24434827.9774   -1803118.98049  -1395230.40846                  24434827.6374
        37.0004         19.2504
  23139092.1954    -141510.18749   -113564.32547                  23139088.9694
        45.5004         29.7504
  20530099.5704   -1608745.37549  -1233727.19748                  20530097.8404
        50.2504         40.5004
  24228061.2814   -1594837.16049  -1227156.89146                  24228061.6564
        38.2504         18.5004
  24086565.1414   -2188216.93049  -1677920.14946                  24086566.4804
        41.7504         20.0004
 04  7  6 20 11  0.0000000  0  9G15G11G14G19G20G22G25G30G 1
  23889209.3204     625345.36349    478908.67546                  23889211.4774
        41.2504         22.7504
  21833657.3984   -1770638.75049  -1358589.51847                  21833654.9534
        49.5004         33.5004
  21888895.5554    -139040.31649   -111809.14047                  21888893.3984
        46.7504         34.0004
  24519370.5084     -21983.60949    -21581.14846                  24519371.6134
        39.7504         21.5004
  24424367.8284   -1858089.45349  -1438064.65146                  24424367.2814
        36.2504         19.7504
  23138383.0704    -145233.28149   -116465.48047                  23138380.2504
        44.2504         29.2504
  20523535.1334   -1643242.75049  -1260608.28048                  20523533.1564
        50.2504         41.0004
  24221397.1094   -1629861.51649  -1254448.62146                  24221396.7544
        39.0004         18.5004
  24077086.0944   -2238030.41849  -1716735.86146                  24077087.3554
        42.0004         20.7504
 04  7  6 20 11 10.0000000  0  9G15G11G14G19G20G22G25G30G 1
  23891801.4844     638964.57049    489520.98446                  23891802.9964
        41.2504         22.7504
  21826570.6954   -1807880.21949  -1387608.85147                  21826568.3134
        49.2504         34.0004
  21888161.7584    -142897.30949   -114814.59047                  21888159.4774
        46.2504         34.0004
  24519097.6644     -23424.41849    -22703.92046                  24519096.9144
        40.0004         21.2504
  24413898.9534   -1913105.06349  -1480933.86346                  24413898.0864
        38.0004         19.5004
  23137671.6334    -148974.72349   -119380.88847                  23137668.8914
        43.7504         29.2504
  20516974.1644   -1677721.81649  -1287475.08148                  20516971.8554
        49.7504         40.7504
  24214733.3204   -1664879.78949  -1281735.60946                  24214733.1644
        39.5004         18.5004
  24067602.6334   -2287865.48049  -1755568.35946                  24067603.8984
        43.0004         20.7504
 04  7  6 20 11 20.0000000  0  9G15G11G14G19G20G22G25G30G 1
  23894387.3054     652552.81349    500109.12946                  23894389.2344
        41.0004         22.7504
  21819487.1174   -1845105.72349  -1416615.72847                  21819484.6254
        49.7504         35.0004
  21887421.9224    -146784.35949   -117843.47047                  21887419.4534
        45.5004         34.5004
  24518815.5554     -24902.03149    -23855.32946                  24518815.9494
        39.5004         21.7504
  24403421.2424   -1968166.03549  -1523838.52846                  24403420.7974
        40.2504         21.0004
  23136956.3054    -152734.92649   -122310.96747                  23136953.0164
        42.7504         29.5004
  20510416.4774   -1712182.88749  -1314327.86448                  20510414.1914
        49.5004         41.7504
  24208070.4694   -1699892.33649  -1309018.14746                  24208070.3594
        39.2504         20.7504
  24058115.1564   -2337722.44549  -1794417.87146                  24058116.6604
        42.5004         21.5004
 04  7  6 20 11 30.0000000  0  9G15G11G14G19G20G22G25G30G 1
  23896967.3914     666110.07449    510673.13246                  23896969.1414
        41.2504         22.0004
  21812406.0554   -1882315.12949  -1445610.09047                  21812403.7704
        49.7504         34.2504
  21886676.8054    -150701.32849   -120895.67447                  21886674.3404
        45.5004         34.5004
  24518527.5314     -26416.37949    -25035.50346                  24518528.1564
        39.7504         21.7504
  24392935.3914   -2023272.32849  -1566778.46846                  24392934.5984
        40.2504         20.2504
  23136236.8914    -156513.78149   -125255.53847                  23136234.0314
        41.5004         29.0004
  20503862.0084   -1746625.87949  -1341166.55848                  20503859.8634
        50.5004         40.7504
  24201408.4534   -1734898.92249  -1336295.94546                  24201409.0514
        40.2504         20.5004
  24048623.5474   -2387601.21549  -1833284.45746                  24048624.3284
        43.0004         20.7504
 04  7  6 20 11 40.0000000  0  9G15G11G14G19G20G22G25G30G 1
  23899541.5004     679635.80949    521212.63046                  23899542.6994
        41.0004         22.2504
  21805328.3204   -1919508.94549  -1474592.27147                  21805325.9924
        49.0004         33.7504
  21885925.5314    -154648.78549   -123971.61047                  21885923.2384
        46.5004         33.7504
  24518232.5164     -27968.10549    -26244.63146                  24518232.5314
        39.0004         21.5004
  24382439.8754   -2078424.37949  -1609754.05546                  24382439.3444
        40.7504         20.7504
  23135513.9774    -160311.78949   -128215.04847                  23135511.2544
        41.0004         28.0004
  20497310.7734   -1781051.27349  -1367991.53448                  20497308.9024
        50.7504         41.0004
  24194748.4774   -1769900.02349  -1363569.48146                  24194747.9304
        40.0004         21.0004
  24039127.6484   -2437502.25049  -1872168.29746                  24039128.5044
        42.5004         20.7504
 04  7  6 20 11 50.0000000  0  9G15G11G14G19G20G22G25G30G 1
  23902109.8054     693131.69549    531728.80346                  23902111.1134
        42.0004         22.0004
  21798254.3754   -1956685.26649  -1503560.84247                  21798251.5594
        49.2504         34.0004
  21885168.6414    -158624.97749   -127069.95847                  21885166.8874
        46.2504         34.0004
  24517931.0004     -29555.48449    -27481.56446                  24517930.5634
        39.5004         20.5004
  24371936.3674   -2133620.39149  -1652763.91946                  24371935.2344
        40.5004         20.7504
  23134788.1724    -164127.14549   -131188.08047                  23134785.0514
        40.7504         27.2504
  20490763.9304   -1815457.25849  -1394801.39848                  20490761.4694
        50.5004         40.2504
  24188089.6334   -1804893.72349  -1390837.30546                  24188088.7464
        39.2504         20.7504
  24029627.7274   -2487423.73049  -1911068.14646                  24029628.9844
        42.7504         19.7504
 04  7  6 20 12  0.0000000  0  9G15G11G14G19G20G22G25G30G 1
  23904672.2344     706596.67249    542220.94446                  23904673.6174
        41.2504         21.5004
  21791182.8914   -1993845.03149  -1532516.49647                  21791180.2814
        49.7504         33.2504
  21884406.7114    -162630.91049   -130191.46447                  21884404.4414
        44.7504         34.0004
  24517621.0554     -31179.69949    -28747.25146                  24517620.8914
        39.7504         19.5004
  24361423.5944   -2188861.26649  -1695808.68946                  24361423.7074
        40.5004         20.2504
  23134058.2114    -167960.77049   -134175.32647                  23134056.0744
        40.5004         27.7504
  20484220.1884   -1849844.70749  -1421596.80648                  20484217.9494
        49.0004         39.7504
  24181431.8674   -1839880.95349  -1418100.05546                  24181431.1454
        39.2504         20.5004
  24020124.0084   -2537366.63349  -1949984.65546                  24020125.1334
        43.0004         20.7504
 04  7  6 20 12 10.0000000  0  9G15G11G14G19G20G22G25G30G 1
  23907227.7974     720029.12949    552687.72146                  23907229.4534
        40.7504         22.0004
  21784114.3594   -2030989.65249  -1561460.37547                  21784111.9844
        49.0004         35.0004
  21883638.3444    -166668.15649   -133337.37347                  21883636.0554
        45.2504         34.2504
  24517305.6484     -32842.18049    -30042.76746                  24517304.9614
        39.7504         20.2504
  24350903.6644   -2244148.48049  -1738889.72946                  24350902.9804
        41.2504         21.5004
  23133325.5314    -171814.16049   -137177.97047                  23133322.3484
        40.5004         27.2504
  20477679.6414   -1884215.19149  -1448379.01248                  20477677.6024
        49.2504         41.0004
  24174774.9304   -1874863.10249  -1445358.82646                  24174774.2034
        39.7504         21.5004
  24010616.1024   -2587332.38749  -1988918.99046                  24010616.9924
        42.5004         20.7504
 04  7  6 20 12 20.0000000  0  9G15G11G14G19G20G22G25G30G 1
  23909778.4304     733431.35249    563130.96546                  23909780.3404
        40.5004         22.2504
  21777049.2504   -2068116.75049  -1590390.57447                  21777046.8834
        49.7504         34.2504
  21882864.3984    -170734.34849   -136505.84847                  21882862.3164
        46.2504         34.0004
  24516981.8134     -34540.82449    -31366.46646                  24516981.4104
        40.0004         20.0004
  24340374.4144   -2299479.63749  -1782004.88046                  24340373.6294
        40.7504         21.5004
  23132589.1334    -175684.99249   -140194.25047                  23132585.7034
        40.5004         27.2504
  20471142.9384   -1918566.34849  -1475146.13348                  20471140.6954
        50.0004         40.7504
  24168119.1644   -1909837.73849  -1472611.79446                  24168119.3164
        39.5004         20.5004
  24001104.0314   -2637318.77749  -2027869.40046                  24001104.5234
        42.5004         21.5004
 04  7  6 20 12 30.0000000  0  9G15G11G14G19G20G22G25G30G 1
  23912323.6644     746805.63749    573552.36946                  23912325.2814
        41.0004         21.7504
  21769987.9924   -2105223.84449  -1619305.19247                  21769986.3404
        49.5004         34.2504
  21882085.6644    -174827.12149   -139695.03047                  21882083.0594
        46.0004         34.7504
  24516652.6644     -36273.27349    -32716.47146                  24516651.6484
        39.7504         20.0004
  24329836.5704   -2354852.30149  -1825152.35446                  24329836.9104
        41.7504         24.0004
  23131849.5314    -179570.84849   -143222.19547                  23131846.1844
        41.0004         28.0004
  20464610.0474   -1952895.58649  -1501896.18248                  20464607.8674
        50.5004         41.7504
  24161465.8444   -1944802.32049  -1499856.96646                  24161464.9534
        39.5004         20.0004
  23991588.5314   -2687323.29349  -2066833.90246                  23991588.5744
        42.5004         21.2504
 04  7  6 20 12 40.0000000  0  9G15G11G14G19G20G22G25G30G 1
  23914862.6334     760147.80949    583948.79746                  23914864.8014
        40.5004         22.2504
  21762929.8134   -2142315.07449  -1648207.44847                  21762927.6994
        49.0004         34.7504
  21881300.9694    -178950.66849   -142908.19047                  21881298.5474
        46.2504         34.2504
  24516315.2974     -38043.78949    -34096.15046                  24516315.0354
        40.0004         20.2504
  24319291.2974   -2410270.53149  -1868335.38146                  24319290.9144
        41.0004         22.5004
  23131106.4064    -183475.77049   -146265.02047                  23131103.5274
        40.5004         28.7504
  20458080.8754   -1987207.09049  -1528632.41648                  20458078.7274
        50.2504         41.0004
  24154813.5864   -1979761.04749  -1527097.46446                  24154811.8714
        39.2504         19.2504
  23982068.5634   -2737350.10549  -2105815.81646                  23982069.0474
        42.5004         20.2504
 04  7  6 20 12 50.0000000  0  8G15G11G14G20G22G25G30G 1
  23917395.6024     773460.41049    594322.11746                  23917397.7384
        41.5004         22.5004
  21755874.9454   -2179387.68749  -1677095.19447                  21755872.6884
        49.5004         34.2504
  21880511.0554    -183102.35249   -146143.28247                  21880508.4534
        46.5004         34.0004
  24308737.6254   -2465731.61749  -1911551.76446                  24308736.9344
        41.5004         21.7504
  23130359.9614    -187397.19949   -149320.70747                  23130356.9924
        39.7504         26.7504
  20451555.3674   -2021498.17249  -1555352.73648                  20451553.4024
        50.2504         40.7504
  24148162.6884   -2014711.00049  -1554331.19746                  24148161.6414
        39.7504         20.2504
  23972544.9454   -2787396.46949  -2144812.95446                  23972545.9454
        42.5004         21.5004
 04  7  6 20 13  0.0000000  0  8G15G11G14G20G22G25G30G 1
  23919923.4844     786744.06349    604673.00746                  23919925.6604
        40.5004         22.7504
  21748824.1954   -2216440.94949  -1705967.86347                  21748821.9344
        48.5004         34.0004
  21879715.6094    -187281.47749   -149399.75047                  21879713.6054
        46.7504         34.7504
  24298175.1484   -2521234.73449  -1954800.92346                  24298175.0044
        39.0004         22.2504
  23129610.9224    -191334.32849   -152388.62347                  23129607.8874
        40.0004         28.0004
  20445033.9924   -2055768.10249  -1582056.57848                  20445032.1414
        50.0004         41.0004
  24141513.4774   -2049651.43049  -1581557.46846                  24141512.3984
        39.7504         20.0004
  23963017.8134   -2837461.68749  -2183824.78546                  23963018.7274
        42.2504         20.2504
 04  7  6 20 13 10.0000000  0  8G15G11G14G20G22G25G30G 1
  23922446.5394     799998.15249    615000.81646                  23922447.7734
        40.5004         21.5004
  21741776.6564   -2253475.38749  -1734825.86547                  21741774.6644
        49.0004         33.2504
  21878915.3754    -191488.62549   -152678.03947                  21878912.6724
        46.2504         33.7504
  24287605.5164   -2576780.45349  -1998083.23046                  24287605.1644
        41.5004         22.0004
  23128858.6804    -195287.69549   -155469.16547                  23128855.6684
        41.0004         27.5004
  20438516.7894   -2090017.35949  -1608744.29448                  20438514.9304
        50.2504         40.2504
  24134866.5944   -2084582.78949  -1608776.73546                  24134865.4344
        39.5004         20.0004
  23953486.6484   -2887546.28149  -2222851.68046                  23953487.7974
        42.5004         21.2504
 04  7  6 20 13 20.0000000  0  8G15G11G14G20G22G25G30G 1
  23924962.9384     813222.32849    625305.27246                  23924964.6954
        39.7504         22.0004
  21734732.8364   -2290491.14849  -1763669.32647                  21734730.4574
        50.0004         34.5004
  21878109.3754    -195724.13349   -155978.46047                  21878107.0864
        46.7504         34.2504
  24277027.3444   -2632369.04749  -2041399.04346                  24277026.2584
        40.0004         22.0004
  23128103.5394    -199257.58649   -158562.61447                  23128100.2234
        42.2504         28.7504
  20432003.1094   -2124246.21949  -1635416.14448                  20432001.0164
        51.0004         41.2504
  24128221.0314   -2119505.27349  -1635989.04746                  24128220.4024
        39.5004         19.2504
  23943952.6484   -2937650.55949  -2261893.94146                  23943954.0474
        42.7504         22.0004
 04  7  6 20 13 30.0000000  0  8G15G11G14G20G22G25G30G 1
  23927473.5314     826418.98849    635588.34146                  23927475.8324
        40.2504         21.2504
  21727693.0784   -2327485.77349  -1792496.30047                  21727690.6484
        49.5004         33.7504
  21877298.3284    -199985.55949   -159299.05647                  21877295.9654
        47.2504         34.5004
  24266441.0554   -2687997.98049  -2084746.17346                  24266440.6334
        39.7504         21.2504
  23127345.4224    -203241.49249   -161666.97347                  23127342.1454
        42.5004         28.5004
  20425494.0634   -2158452.18049  -1662070.14148                  20425492.0084
        50.0004         41.2504
  24121577.2344   -2154416.44949  -1663192.58546                  24121576.9534
        39.0004         20.0004
  23934414.1954   -2987772.03949  -2300949.61146                  23934415.7814
        42.5004         23.0004
 04  7  6 20 13 39.9990000  0  8G15G11G14G20G22G25G30G 1
  23929979.2614     839586.39149    645848.59646                  23929981.4054
        40.0004         20.2504
  21720657.6984   -2364455.80549  -1821304.12847                  21720655.5114
        49.2504         34.5004
  21876482.4564    -204272.73849   -162639.72847                  21876479.9404
        48.0004         34.5004
  24255849.1834   -2743661.97349  -2128120.76346                  24255848.3944
        39.2504         22.5004
  23126584.1674    -207239.31649   -164782.16747                  23126581.9764
        43.5004         28.2504
  20418989.7064   -2192632.06249  -1688703.81448                  20418987.5854
        50.5004         41.7504
  24114937.0814   -2189312.91849  -1690384.60246                  24114935.7374
        39.0004         19.2504
  23924874.1984   -3037905.91049  -2340014.97046                  23924875.7374
        43.0004         23.5004
 04  7  6 20 13 49.9990000  0  8G15G11G14G20G22G25G30G 1
  23932480.3864     852728.48449    656089.06846                  23932482.5774
        39.0004         21.5004
  21713626.1204   -2401407.18449  -1850097.40847                  21713623.6944
        49.2504         34.5004
  21875661.7694    -208585.32449   -166000.17747                  21875659.2264
        47.5004         34.5004
  24245248.3004   -2799370.71949  -2171530.15846                  24245247.4254
        40.0004         22.2504
  23125820.8944    -211250.56649   -167907.83447                  23125818.2334
        42.0004         28.5004
  20412489.4334   -2226791.39149  -1715321.46748                  20412487.7224
        50.0004         41.5004
  24108297.2144   -2224200.24649  -1717569.52246                  24108296.7454
        39.5004         20.0004
  23915329.9564   -3088060.96149  -2379096.74646                  23915332.1014
        43.0004         23.0004
 04  7  6 20 13 59.9990000  0  8G15G11G14G20G22G25G30G 1
  23934975.8784     865842.31649    666307.56446                  23934978.0654
        39.2504         20.2504
  21706598.6984   -2438337.74249  -1878874.45947                  21706596.5694
        49.5004         34.2504
  21874835.9334    -212924.41849   -169381.29747                  21874834.1634
        47.5004         35.0004
  24234639.3784   -2855120.16449  -2214971.20146                  24234638.7804
        39.7504         22.5004
  23125054.9804    -215276.22349   -171044.75947                  23125052.6444
        43.0004         27.0004
  20405993.2224   -2260928.25849  -1741921.61548                  20405991.8514
        50.2504         41.0004
  24101660.6284   -2259076.34049  -1744745.71046                  24101659.6594
        38.7504         19.0004
  23905782.6444   -3138233.58649  -2418192.27446                  23905784.2494
        43.0004         23.5004
 04  7  6 20 14  9.9990000  0  8G15G11G14G20G22G25G30G 1
  23937466.0034     878927.83649    676503.99746                  23937468.1284
        39.2504         20.7504
  21699575.0264   -2475247.44149  -1907635.27347                  21699572.6084
        49.2504         34.0004
  21874005.2304    -217289.94549   -172783.01647                  21874003.1124
        47.0004         35.2504
  24224022.6514   -2910910.14149  -2258443.91646                  24224022.3704
        39.7504         22.2504
  23124286.3624    -219316.25049   -174192.83847                  23124283.7924
        43.7504         28.5004
  20399501.6204   -2295042.59049  -1768504.21948                  20399499.7374
        50.5004         41.2504
  24095026.4724   -2293941.07049  -1771913.01546                  24095025.1324
        38.0004         18.2504
  23896231.3234   -3188423.76649  -2457301.45946                  23896233.2104
        43.0004         22.5004
 04  7  6 20 14 19.9990000  0  8G15G11G14G20G22G25G30G 1
  23939950.8864     891986.19949    686679.25346                  23939953.3354
        38.0004         18.5004
  21692555.4874   -2512134.90649  -1936378.75247                  21692553.3154
        49.2504         33.5004
  21873169.7844    -221680.75849   -176204.41147                  21873167.7534
        46.2504         33.5004
  24213398.5194   -2966739.42249  -2301947.16346                  24213398.3904
        40.2504         22.2504
  23123515.1444    -223369.40249   -177351.14847                  23123511.8784
        42.7504         27.2504
  20393014.2614   -2329133.11349  -1795068.24748                  20393012.6834
        49.5004         40.5004
  24088394.4404   -2328793.30049  -1799070.52646                  24088392.9374
        38.0004         19.2504
  23886677.8864   -3238630.24249  -2496423.33846                  23886679.2654
        43.5004         24.0004
 04  7  6 20 14 29.9990000  0  8G15G11G14G20G22G25G30G 1
  23942431.3394     905018.65649    696834.39646                  23942433.4764
        39.0004         19.5004
  21685540.2064   -2548998.74649  -1965103.82747                  21685537.8124
        49.0004         34.5004
  21872329.6904    -226095.53149   -179644.52347                  21872327.2884
        44.7504         34.5004
  24202767.8234   -3022606.51249  -2345479.97046                  24202766.9254
        40.2504         22.0004
  23122741.8234    -227434.35949   -180518.71347                  23122738.9174
        44.0004         28.2504
  20386531.9404   -2363198.48049  -1821612.69348                  20386530.3234
        49.2504         41.5004
  24081765.0114   -2363631.28949  -1826217.05846                  24081763.7574
        38.2504         20.2504
  23877121.1204   -3288851.62149  -2535556.87846                  23877122.4014
        42.5004         22.5004
 04  7  6 20 14 39.9990000  0  8G15G11G14G20G22G25G30G 1
  23944906.1364     918024.02349    706968.33746                  23944908.5504
        38.5004         20.2504
  21678529.6904   -2585840.13349  -1993811.39947                  21678527.4404
        49.5004         34.2504
  21871484.9094    -230535.38749   -183104.15447                  21871482.8004
        46.0004         33.5004
  24192128.4404   -3078512.64849  -2389043.16746                  24192128.0974
        39.0004         22.5004
  23121965.9334    -231512.20349   -183696.25547                  23121962.7694
        43.5004         28.0004
  20380054.0194   -2397239.72749  -1848138.33148                  20380052.2844
        50.0004         41.5004
  24075138.5344   -2398456.28548  -1853353.40146                  24075136.6714
        35.7504         20.2504
  23867560.8864   -3339089.04349  -2574702.86946                  23867562.3704
        42.7504         24.5004
 04  7  6 20 14 49.9990000  0  8G15G11G14G20G22G25G30G 1
  23947375.9404     931001.16449    717080.31646                  23947378.2764
        37.7504         20.5004
  21671523.4334   -2622659.99249  -2022502.19647                  21671521.0894
        49.0004         34.7504
  21870635.0584    -235001.44949   -186584.21747                  21870632.6204
        46.0004         35.0004
  24181482.1984   -3134458.75049  -2432637.55846                  24181481.6904
        40.2504         22.0004
  23121186.7304    -235604.07849   -186884.73747                  23121184.4524
        42.7504         29.0004
  20373580.7144   -2431257.90249  -1874645.99948                  20373579.1714
        50.0004         41.5004
  24068513.0584   -2433269.12549  -1880480.35146                  24068511.8514
        36.5004         20.5004
  23857997.8944   -3389343.53149  -2613862.21746                  23857999.3584
        43.0004         24.2504
 04  7  6 20 14 59.9990000  0  8G15G11G14G20G22G25G30G 1
  23949840.6674     943951.86749    727171.68146                  23949842.1794
        38.5004         21.2504
  21664521.1834   -2659456.39549  -2051174.72647                  21664518.6124
        49.0004         35.2504
  21869780.5424    -239491.85249   -190083.23347                  21869777.9684
        47.2504         34.7504
  24170829.0264   -3190442.95349  -2476261.49246                  24170828.4764
        39.2504         20.5004
  23120406.2924    -239708.03149   -190082.65047                  23120402.7144
        42.0004         28.5004
  20367111.9954   -2465251.14849  -1901134.24148                  20367109.9604
        49.7504         41.0004
  24061891.1754   -2468068.03549  -1907596.34446                  24061890.0734
        38.0004         20.0004
  23848431.8474   -3439613.24249  -2653033.34346                  23848433.2694
        43.0004         23.7504
 04  7  6 20 15  9.9990000  0  8G15G11G14G20G22G25G30G 1
  23952299.1284     956873.68849    737240.51946                  23952301.3514
        38.7504         21.2504
  21657523.1124   -2696231.68449  -2079830.79747                  21657520.7494
        49.2504         34.7504
  21868921.1834    -244009.05949   -193603.14447                  21868918.6124
        46.7504         33.7504
  24160167.8084   -3246467.51249  -2519916.91546                  24160167.2534
        38.7504         21.2504
  23119622.5814    -243826.37149   -193291.76647                  23119619.2884
        42.7504         29.0004
  20360647.5264   -2499221.72349  -1927604.81448                  20360645.5934
        50.0004         41.0004
  24055271.1834   -2502855.13749  -1934703.16646                  24055270.6634
        39.2504         20.5004
  23838862.4724   -3489900.53549  -2692218.25046                  23838864.0974
        42.5004         22.5004
 04  7  6 20 15 19.9990000  0  8G15G11G14G20G22G25G30G 1
  23954753.0734     969768.69549    747288.54346                  23954755.0424
        39.5004         21.7504
  21650529.1594   -2732983.63349  -2108468.67647                  21650526.8474
        49.7504         34.5004
  21868056.6204    -248550.86749   -197142.22347                  21868054.2724
        46.5004         34.0004
  24149499.7064   -3302530.28949  -2563602.23046                  24149498.7374
        37.7504         20.5004
  23118836.5344    -247956.94949   -196510.44747                  23118833.1474
        44.2504         27.7504
  20354188.0264   -2533167.43049  -1954056.01548                  20354186.1594
        50.0004         41.0004
  24048654.1204   -2537628.24449  -1961799.06346                  24048654.1874
        38.5004         19.7504
  23829290.4404   -3540203.14849  -2731415.00746                  23829292.2064
        42.0004         23.2504
 04  7  6 20 15 29.9990000  0  8G15G11G14G20G22G25G30G 1
  23957201.8784     982637.82849    757316.39146                  23957204.0074
        39.2504         21.7504
  21643540.4404   -2769711.11749  -2137087.48347                  21643538.1594
        49.5004         34.0004
  21867187.4334    -253116.27049   -200699.67647                  21867185.5194
        46.2504         33.2504
  24138824.1124   -3358630.03549  -2607316.25446                  24138822.9914
        38.5004         20.7504
  23118048.3474    -252098.71149   -199737.79147                  23118045.1084
        44.2504         28.0004
  20347733.4014   -2567087.25049  -1980487.02548                  20347731.3084
        51.0004         40.2504
  24042039.6124   -2572386.31249  -1988883.21246                  24042040.3194
        38.0004         21.2504
  23819714.7374   -3590520.05549  -2770622.98646                  23819717.0624
        42.0004         23.0004
 04  7  6 20 15 39.9990000  0  8G15G11G14G20G22G25G30G 1
  23959645.6124     995480.16849    767323.27646                  23959648.0074
        40.0004         21.7504
  21636555.7304   -2806415.12949  -2165688.01647                  21636553.5074
        49.5004         34.7504
  21866314.3624    -257706.25049   -204276.29747                  21866311.9644
        47.0004         33.5004
  24128141.3394   -3414767.80149  -2651059.92346                  24128140.5694
        38.7504         19.7504
  23117258.0504    -256252.56249   -202974.56647                  23117254.4764
        44.5004         28.7504
  20341283.1904   -2600982.06649  -2006898.58048                  20341281.2844
        50.7504         41.7504
  24035428.7614   -2607130.00449  -2015956.18946                  24035428.9334
        38.0004         21.0004
  23810136.8474   -3640852.14549  -2809842.77746                  23810138.8154
        42.5004         22.7504
 04  7  6 20 15 49.9990000  0  8G15G11G14G20G22G25G30G 1
  23962084.3944    1008295.61749    777309.22946                  23962086.8554
        40.2504         20.5004
  21629575.7534   -2843095.35949  -2194270.01747                  21629573.4954
        48.7504         34.5004
  21865436.3474    -262320.78149   -207872.03847                  21865433.6904
        47.7504         33.2504
  24117450.9484   -3470943.45349  -2694833.13846                  24117449.9914
        38.0004         20.5004
  23116465.1444    -260418.37549   -206220.67947                  23116461.5304
        43.0004         27.7504
  20334838.1984   -2634851.83649  -2033290.60348                  20334836.4174
        50.5004         41.5004
  24028819.8624   -2641859.26249  -2043017.93646                  24028819.8974
        39.0004         21.2504
  23800556.4724   -3691199.30549  -2849074.30946                  23800557.9334
        42.0004         22.5004
 04  7  6 20 15 59.9990000  0  8G15G11G14G20G22G25G30G 1
  23964518.1754    1021083.10949    787273.48446                  23964520.3234
        40.2504         20.5004
  21622599.9254   -2879752.91049  -2222834.33747                  21622597.4014
        49.2504         35.5004
  21864553.5654    -266960.82849   -211487.68447                  21864550.7804
        48.2504         34.5004
  24106753.5344   -3527157.82849  -2738636.53046                  24106752.5974
        38.7504         19.7504
  23115670.0894    -264597.17249   -209476.88147                  23115666.7304
        43.5004         28.5004
  20328397.6124   -2668697.57049  -2059663.90648                  20328395.6084
        51.0004         41.2504
  24022213.6444   -2676575.05949  -2070069.22246                  24022213.5854
        38.7504         21.7504
  23790972.6054   -3741562.60949  -2888318.40846                  23790973.9374
        42.2504         22.7504
 04  7  6 20 16  9.9990000  0  8G15G11G14G20G22G25G30G 1
  23966946.6364    1033844.71949    797217.50446                  23966948.7144
        41.5004         20.5004
  21615628.8154   -2916385.55149  -2251379.24647                  21615626.5854
        49.0004         35.5004
  21863665.7844    -271624.19149   -215121.47747                  21863663.1054
        48.0004         34.0004
  24096049.7224   -3583408.76649  -2782468.38646                  24096048.6874
        38.7504         18.5004
  23114872.8394    -268786.80949   -212741.57247                  23114869.3274
        44.5004         28.2504
  20321961.6594   -2702517.03949  -2086016.73648                  20321959.9214
        51.2504         41.7504
  24015610.6124   -2711274.98449  -2097108.09946                  24015610.9874
        38.5004         22.0004
  23781386.0654   -3791939.78949  -2927573.30146                  23781387.6514
        41.5004         22.2504
 04  7  6 20 16 19.9990000  0  8G15G11G14G20G22G25G30G 1
  23969370.0034    1046578.77349    807140.08446                  23969372.0464
        39.7504         19.5004
  21608662.3234   -2952994.85949  -2279905.98347                  21608660.1554
        48.7504         33.7504
  21862773.9254    -276312.62549   -218774.80247                  21862771.1124
        48.5004         33.7504
  24085338.3554   -3639697.82449  -2826329.95246                  24085336.5114
        38.2504         19.5004
  23114073.2924    -272988.86349   -216015.91747                  23114070.0974
        44.5004         28.0004
  20315531.0424   -2736311.75849  -2112350.27148                  20315529.3084
        51.0004         41.5004
  24009010.4644   -2745960.67249  -2124135.89146                  24009010.2574
        38.7504         21.5004
  23771796.6124   -3842332.48449  -2966840.30346                  23771798.3664
        41.5004         22.5004
 04  7  6 20 16 29.9990000  0  8G15G11G14G20G22G25G30G 1
  23971787.6364    1059286.28549    817041.94046                  23971790.1444
        40.2504         19.5004
  21601700.7224   -2989579.59449  -2308413.56847                  21601698.3824
        48.7504         34.5004
  21861876.7224    -281025.03149   -222446.83347                  21861874.3904
        48.5004         34.0004
  24074619.6674   -3696023.78149  -2870220.29646                  24074618.7764
        37.7504         19.2504
  23113271.9094    -277202.20349   -219299.04347                  23113268.2304
        45.2504         28.2504
  20309104.8234   -2770080.60549  -2138663.66348                  20309102.8704
        51.7504         41.5004
  24002412.5264   -2780630.96549  -2151151.65746                  24002412.5194
        39.5004         21.5004
  23762204.4804   -3892739.59449  -3006118.55246                  23762206.0974
        41.2504         21.7504
 04  7  6 20 16 39.9990000  0  8G15G11G14G20G22G25G30G 1
  23974201.6674    1071967.44549    826923.30746                  23974202.7534
        41.2504         20.0004
  21594743.5344   -3026139.52349  -2336901.81547                  21594740.9524
        48.0004         33.5004
  21860975.9484    -285761.17249   -226137.31247                  21860973.4604
        47.5004         33.2504
  24063894.6204   -3752386.41849  -2914139.19146                  24063893.2304
        39.0004         19.2504
  23112467.3084    -281426.45349   -222590.68547                  23112464.3044
        44.0004         26.5004
  20302683.7614   -2803823.42249  -2164956.74248                  20302681.8944
        51.0004         41.0004
  23995817.4484   -2815285.37549  -2178155.08046                  23995817.9914
        39.0004         21.5004
  23752609.1444   -3943160.80549  -3045407.75046                  23752610.9014
        42.0004         23.0004
 04  7  6 20 16 49.9990000  0  8G15G11G14G20G22G25G30G 1
  23976609.4804    1084620.66849    836782.90546                  23976610.8944
        41.2504         19.2504
  21587790.7534   -3062676.08249  -2365371.86847                  21587788.1084
        47.7504         34.0004
  21860069.3314    -290522.59049   -229847.52247                  21860066.9874
        47.5004         33.5004
  24053161.3004   -3808787.21549  -2958087.85646                  24053159.8784
        39.0004         19.2504
  23111661.2224    -285663.26249   -225892.11747                  23111658.4404
        44.5004         28.0004
  20296267.4254   -2837541.63349  -2191230.68948                  20296265.3194
        50.7504         41.7504
  23989226.5194   -2849925.44549  -2205147.39246                  23989225.7334
        39.7504         22.0004
  23743011.5504   -3993597.66049  -3084709.17246                  23743013.4914
        42.0004         23.0004
 04  7  6 20 16 59.9990000  0  8G15G11G14G20G22G25G30G 1
  23979012.5654    1097248.19949    846622.46246                  23979014.2804
        42.0004         20.5004
  21580843.1284   -3099186.85249  -2393821.81447                  21580840.8664
        48.7504         33.7504
  21859159.1904    -295306.98049   -233575.62247                  21859156.9914
        47.7504         34.2504
  24042421.5504   -3865223.74649  -3002064.32546                  24042420.3704
        39.2504         19.0004
  23110853.0194    -289910.13349   -229201.37347                  23110850.5934
        44.7504         27.5004
  20289856.2064   -2871232.84049  -2217483.56448                  20289854.2334
        51.0004         41.2504
  23982637.4334   -2884548.71149  -2232126.50146                  23982637.6284
        38.7504         21.5004
  23733411.6444   -4044047.80549  -3124020.95346                  23733412.8784
        42.0004         22.2504
 04  7  6 20 17  9.9990000  0  8G15G11G14G20G22G25G30G 1
  23981409.5584    1109850.21149    856442.14946                  23981412.5584
        41.5004         20.2504
  21573900.2374   -3135671.55549  -2422251.45547                  21573898.1014
        47.0004         34.7504
  21858244.2694    -300114.16049   -237321.50147                  21858242.1364
        46.5004         33.7504
  24031675.9404   -3921695.71549  -3046068.48546                  24031673.8234
        39.0004         19.5004
  23110043.0194    -294166.91849   -232518.38547                  23110040.3274
        43.7504         28.7504
  20283450.3234   -2904896.71949  -2243715.16648                  20283448.0504
        51.5004         41.7504
  23976052.4334   -2919154.88349  -2259092.40846                  23976051.9644
        39.0004         21.7504
  23723808.7694   -4094510.98449  -3163342.83046                  23723809.9994
        42.0004         22.7504
 04  7  6 20 17 19.9990000  0  8G15G11G14G20G22G25G30G 1
  23983803.4804    1122424.77749    866240.36146                  23983805.4294
        41.5004         19.5004
  21566962.0194   -3172132.05549  -2450662.23747                  21566959.9604
        49.0004         35.2504
  21857325.4564    -304945.93049   -241086.51347                  21857322.5074
        46.2504         34.5004
  24020923.1284   -3978204.89849  -3090101.57846                  24020920.6794
        39.5004         19.2504
  23109230.4644    -298435.40249   -235844.48547                  23109227.8624
        41.2504         28.0004
  20277049.0734   -2938535.17649  -2269926.95148                  20277047.0114
        51.5004         41.5004
  23969470.0504   -2953745.75849  -2286046.30446                  23969469.2334
        40.0004         22.0004
  23714202.5814   -4144988.96549  -3202676.38646                  23714204.3974
        42.0004         22.2504
 04  7  6 20 17 29.9990000  0  8G15G11G14G20G22G25G30G 1
  23986191.8314    1134974.15249    876019.09546                  23986193.1324
        41.5004         18.5004
  21560028.8944   -3208565.89549  -2479052.22447                  21560026.3944
        47.7504         34.5004
  21856401.4874    -309800.03949   -244868.93947                  21856398.8274
        45.0004         33.7504
  24010162.4644   -4034748.89149  -3134161.76846                  24010160.6754
        40.0004         19.7504
  23108416.8234    -302713.25049   -239177.86947                  23108413.9564
        40.5004         28.2504
  20270653.3944   -2972145.81249  -2296117.05948                  20270651.0504
        51.5004         41.0004
  23962890.4404   -2988318.80949  -2312986.36046                  23962889.9724
        40.2504         22.0004
  23704595.0344   -4195479.48049  -3242019.53346                  23704596.6284
        42.5004         22.7504
 04  7  6 20 17 39.9990000  0  8G15G11G14G20G22G25G30G 1
  23988574.1674    1147496.41849    885776.62246                  23988576.2574
        41.5004         18.5004
  21553100.1984   -3244974.94149  -2507422.90947                  21553098.4484
        46.5004         34.0004
  21855473.2064    -314678.31249   -248670.20247                  21855470.7334
        45.5004         33.0004
  23999395.6754   -4091329.57049  -3178250.61246                  23999394.2264
        39.0004         20.0004
  23107600.7454    -307002.28149   -242520.03247                  23107598.1754
        41.0004         28.2504
  20264262.4804   -3005730.41449  -2322286.87048                  20264260.3314
        51.5004         41.2504
  23956314.5504   -3022875.80549  -2339913.86446                  23956314.3904
        39.7504         22.2504
  23694983.6204   -4245984.34449  -3281373.98646                  23694985.6674
        42.5004         22.0004
 04  7  6 20 17 49.9990000  0  8G15G11G14G20G22G25G30G 1
  23990952.0974    1159993.89149    895514.88746                  23990954.4604
        40.7504         19.0004
  21546177.3084   -3281356.69149  -2535772.30947                  21546174.8124
        48.0004         34.0004
  21854540.6204    -319578.35249   -252488.41147                  21854538.1594
        45.5004         32.2504
  23988622.1124   -4147944.41049  -3222366.03646                  23988620.8704
        39.5004         20.0004
  23106782.9334    -311300.09849   -245868.95347                  23106780.3474
        41.5004         28.7504
  20257877.0344   -3039286.59449  -2348434.52948                  20257874.6874
        51.0004         41.0004
  23949742.6284   -3057414.36349  -2366827.01946                  23949742.0974
        40.2504         21.7504
  23685370.8004   -4296501.04349  -3320737.56346                  23685372.5774
        42.0004         22.5004
 04  7  6 20 17 59.9990000  0  8G15G11G14G20G22G25G30G 1
  23993324.9484    1172466.11349    905233.34646                  23993328.3274
        40.0004         19.0004
  21539259.1444   -3317711.48449  -2564100.74147                  21539257.1984
        45.2504         34.0004
  21853603.7454    -324500.62949   -256323.98047                  21853601.5774
        46.7504         33.0004
  23977842.2144   -4204593.74649  -3266508.37246                  23977840.3434
        39.0004         20.0004
  23105962.9014    -315607.08649   -249225.08047                  23105960.7374
        43.5004         29.0004
  20251496.7304   -3072814.73049  -2374560.35748                  20251494.5894
        51.5004         41.0004
  23943173.3704   -3091934.70349  -2393725.97246                  23943172.6054
        40.2504         23.0004
  23675755.5814   -4347029.99249  -3360110.74746                  23675756.5424
        42.0004         22.2504
 04  7  6 20 18  9.9990000  0  8G15G11G14G20G22G25G30G 1
  23995694.8234    1184911.87149    914931.38646                  23995696.1284
        40.0004         18.2504
  21532346.2534   -3354040.44549  -2592409.00947                  21532343.9014
        47.7504         33.7504
  21852662.8784    -329446.35249   -260177.77147                  21852660.1054
        47.5004         33.0004
  23967055.3944   -4261278.76649  -3310678.54846                  23967053.4334
        39.7504         19.7504
  23105141.7144    -319924.37149   -252589.22447                  23105139.0304
        45.2504         29.2504
  20245121.5194   -3106316.03149  -2400665.25148                  20245119.2064
        51.5004         41.5004
  23936607.4404   -3126437.86749  -2420611.49846                  23936606.9994
        39.5004         24.0004
  23666137.4254   -4397572.39849  -3399494.45146                  23666139.3474
        42.0004         22.2504
 04  7  6 20 18 19.9990000  0  8G15G11G14G20G22G25G30G 1
  23998057.6124    1197331.23049    924608.59746                  23998060.0264
        40.0004         19.2504
  21525437.9564   -3390343.25849  -2620696.92247                  21525435.5034
        49.0004         34.7504
  21851717.3394    -334415.34449   -264049.73947                  21851714.8394
        47.7504         33.2504
  23956261.3004   -4317999.16449  -3354876.26346                  23956260.1984
        40.5004         20.5004
  23104318.2224    -324251.75849   -255961.26547                  23104316.0694
        45.7504         29.5004
  20238751.3314   -3139790.27749  -2426749.08348                  20238749.2964
        51.5004         42.0004
  23930045.3314   -3160923.77049  -2447483.60746                  23930044.7064
        40.2504         22.0004
  23656517.0344   -4448127.95749  -3438888.35346                  23656518.5894
        42.5004         21.7504
 04  7  6 20 18 29.9990000  0  8G15G11G14G20G22G25G30G 1
  24000416.6674    1209726.11349    934266.88646                  24000418.4604
        40.0004         19.0004
  21518535.0344   -3426617.98049  -2648962.94547                  21518532.9254
        48.7504         34.0004
  21850767.5814    -339405.64149   -267938.29647                  21850765.3864
        48.0004         32.2504
  23945461.5734   -4374752.92249  -3399099.87046                  23945460.1014
        39.0004         21.0004
  23103493.0894    -328587.23449   -259339.55447                  23103491.0114
        46.0004         29.5004
  20232387.0654   -3173235.40649  -2452810.22648                  20232385.0854
        52.0004         42.0004
  23923486.3154   -3195390.12549  -2474340.55546                  23923485.6474
        40.2504         22.7504
  23646895.1594   -4498694.78549  -3478291.04846                  23646895.5734
        42.5004         21.5004
 04  7  6 20 18 39.9990000  0  8G15G11G14G20G22G25G30G 1
  24002770.0734    1222096.23449    943905.89246                  24002772.9094
        40.7504         19.0004
  21511637.3084   -3462864.76249  -2677207.18147                  21511635.3584
        48.0004         34.7504
  21849814.2144    -344417.38349   -271843.56047                  21849811.3904
        48.2504         32.5004
  23934655.7844   -4431540.12949  -3443349.60246                  23934653.8194
        40.5004         19.7504
  23102666.3474    -332930.90249   -262724.26347                  23102663.9484
        46.0004         27.5004
  20226028.2534   -3206651.55949  -2478848.78348                  20226026.3394
        51.0004         41.7504
  23916931.1904   -3229837.10249  -2501182.35746                  23916930.6874
        40.7504         22.0004
  23637269.7924   -4549272.90249  -3517702.58346                  23637271.3124
        42.2504         22.2504
 04  7  6 20 18 49.9990000  0  8G15G11G14G20G22G25G30G 1
  24005118.9094    1234439.51249    953523.94346                  24005121.8784
        40.2504         19.5004
  21504744.9484   -3499085.60249  -2705431.22147                  21504742.5624
        49.0004         34.0004
  21848855.6984    -349452.62949   -275767.12647                  21848852.8554
        48.0004         33.2504
  23923842.2224   -4488362.80949  -3487627.05346                  23923840.9334
        40.0004         19.7504
  23101837.9724    -337284.92649   -266117.03347                  23101835.4834
        45.7504         29.2504
  20219674.4484   -3240040.75049  -2504866.33448                  20219672.6404
        51.5004         41.5004
  23910379.6444   -3264266.60549  -2528010.49946                  23910378.8514
        41.0004         22.0004
  23627642.7534   -4599864.43049  -3557124.47146                  23627643.6164
        41.5004         21.2504
 04  7  6 20 18 59.9990000  0  8G15G11G14G20G22G25G30G 1
  24007463.2374    1246756.74649    963121.69546                  24007465.6324
        39.0004         19.2504
  21497857.3154   -3535279.59049  -2733634.30847                  21497855.2024
        49.0004         34.5004
  21847893.1984    -354510.62549   -279708.41947                  21847890.5154
        48.2504         32.0004
  23913023.2144   -4545220.05549  -3531931.29446                  23913021.1794
        40.2504         19.5004
  23101007.9484    -341648.27749   -269517.05147                  23101005.1014
        45.7504         27.7504
  20213326.3234   -3273402.12549  -2530862.19848                  20213323.9294
        51.7504         40.5004
  23903830.9874   -3298677.80149  -2554824.39946                  23903830.4524
        41.2504         22.0004
  23618013.4644   -4650468.48049  -3596556.11946                  23618014.0194
        41.5004         21.7504
 04  7  6 20 19  9.9990000  0  8G15G11G14G20G22G25G30G 1
  24009802.3314    1259048.55949    972699.63246                  24009805.4444
        39.2504         19.2504
  21490975.3624   -3571445.94149  -2761815.89847                  21490972.8004
        49.7504         34.7504
  21846926.5584    -359590.71549   -283666.95747                  21846924.1164
        48.2504         33.5004
  23902196.3784   -4602111.09049  -3576262.03946                  23902195.0694
        39.5004         20.0004
  23100175.7694    -346020.40649   -272923.92147                  23100173.1874
        45.5004         28.2504
  20206982.9644   -3306734.98849  -2556835.87048                  20206980.8784
        52.0004         41.5004
  23897286.6984   -3333069.90649  -2581623.46846                  23897286.4444
        42.7504         22.0004
  23608380.7224   -4701084.39849  -3635997.10846                  23608382.1944
        41.7504         21.5004
 04  7  6 20 19 19.9990000  0  8G15G11G14G20G22G25G30G 1
  24012137.6594    1271316.40249    982258.93746                  24012140.0694
        40.7504         20.2504
  21484098.3944   -3607583.05549  -2789974.68147                  21484095.7654
        50.0004         34.7504
  21845955.9564    -364691.26649   -287641.40247                  21845953.3944
        48.0004         32.5004
  23891365.1364   -4659034.32049  -3620617.71846                  23891363.2494
        40.2504         20.0004
  23099342.7304    -350399.56249   -276336.27947                  23099339.9954
        45.5004         29.0004
  20200645.6754   -3340037.65249  -2582785.98348                  20200643.8044
        52.0004         41.0004
  23890746.1054   -3367441.19549  -2608406.23846                  23890745.7614
        42.5004         22.7504
  23598747.0894   -4751710.53949  -3675446.07046                  23598748.3744
        42.0004         21.5004
 04  7  6 20 19 29.9990000  0  8G15G11G14G20G22G25G30G 1
  24014467.0344    1283560.48449    991799.65946                  24014469.9054
        40.7504         20.2504
  21477227.3084   -3643690.61349  -2818110.45147                  21477224.9804
        49.0004         35.2504
  21844981.5194    -369812.09849   -291631.68247                  21844978.9764
        48.7504         33.0004
  23880526.0814   -4715989.39549  -3664998.24246                  23880525.4764
        39.5004         19.7504
  23098508.1674    -354785.54349   -279753.96547                  23098505.1634
        45.7504         28.0004
  20194314.2224   -3373309.87549  -2608712.39448                  20194312.3314
        52.0004         41.7504
  23884209.5734   -3401791.33649  -2635172.57146                  23884209.1834
        42.5004         22.5004
  23589111.4484   -4802346.62149  -3714902.72646                  23589112.3744
        41.5004         21.2504
 04  7  6 20 19 39.9990000  0  8G15G11G14G20G22G25G30G 1
  24016791.8154    1295778.03949   1001319.72846                  24016795.2064
        41.0004         21.2504
  21470361.6594   -3679771.28549  -2846225.24447                  21470358.9724
        49.5004         35.0004
  21844002.8234    -374955.84449   -295639.79947                  21843999.9134
        48.5004         33.0004
  23869681.1594   -4772978.95349  -3709405.65346                  23869680.3004
        40.0004         20.0004
  23097671.2844    -359180.92249   -283178.95247                  23097669.1634
        45.5004         29.5004
  20187988.0424   -3406554.26649  -2634617.10848                  20187985.9334
        51.7504         41.5004
  23877676.9804   -3436122.85549  -2661924.36046                  23877675.8274
        42.0004         23.5004
  23579473.4094   -4852995.25449  -3754369.15846                  23579474.1084
        42.0004         20.5004
 04  7  6 20 19 49.9990000  0  8G15G11G14G20G22G25G30G 1
  24019113.0034    1307971.03549   1010820.70846                  24019115.1944
        41.2504         21.0004
  21463501.1984   -3715822.95749  -2874317.46247                  21463498.5114
        50.0004         34.7504
  21843019.8554    -380120.59849   -299664.27947                  21843017.1324
        48.7504         32.5004
  23858830.3314   -4830000.89149  -3753838.28546                  23858829.6124
        40.2504         20.2504
  23096833.6444    -363583.71949   -286609.71747                  23096831.1444
        46.2504         28.7504
  20181667.3554   -3439768.77349  -2660498.53648                  20181665.2964
        52.0004         41.0004
  23871147.2694   -3470433.76249  -2688660.16346                  23871147.3864
        42.0004         22.5004
  23569833.5114   -4903654.43449  -3793843.79546                  23569834.0654
        42.5004         20.5004
 04  7  6 20 19 59.9990000  0  8G15G11G14G20G22G25G30G 1
  24021428.0034    1320138.74649   1020301.96046                  24021430.8354
        42.5004         21.7504
  21456646.0734   -3751846.18049  -2902387.49947                  21456643.0734
        49.2504         34.5004
  21842032.9174    -385306.93749   -303705.61247                  21842030.3434
        48.5004         32.5004
  23847972.8154   -4887055.73849  -3798296.60046                  23847972.6514
        40.2504         20.0004
  23095994.5034    -367994.53549   -290046.76347                  23095991.5894
        45.7504         29.2504
  20175352.4404   -3472954.02049  -2686357.17948                  20175350.3864
        51.7504         41.2504
  23864622.2844   -3504724.57849  -2715380.22446                  23864622.2414
        42.5004         22.2504
  23560191.3554   -4954324.83649  -3833327.22446                  23560191.9564
        42.7504         20.0004
 04  7  6 20 20  9.9990000  0  8G15G11G14G20G22G25G30G 1
  24023739.3624    1332282.91049   1029764.87046                  24023741.7104
        42.5004         22.0004
  21449796.7844   -3787839.14849  -2930433.97247                  21449794.3624
        49.2504         34.2504
  21841041.8314    -390513.07449   -307762.34347                  21841039.7224
        48.0004         32.0004
  23837110.0344   -4944141.62149  -3842779.05446                  23837109.3704
        40.7504         20.0004
  23095153.8554    -372411.60549   -293488.64647                  23095151.0544
        45.2504         28.2504
  20169043.1514   -3506108.16449  -2712191.55548                  20169041.3784
        51.7504         41.0004
  23858100.4484   -3538993.34849  -2742083.15346                  23858100.9374
        42.5004         22.5004
  23550547.0584   -5005004.50849  -3872817.87946                  23550547.7374
        42.5004         19.2504
 04  7  6 20 20 19.9990000  0  8G15G11G14G20G22G25G30G 1
  24026044.3554    1344399.24649   1039206.09846                  24026047.3154
        42.5004         22.5004
  21442952.2374   -3823805.94549  -2958460.04347                  21442949.9524
        49.0004         35.0004
  21840047.1984    -395743.20349   -311837.75847                  21840044.4294
        48.2504         33.0004
  23826241.0114   -5001262.66849  -3887288.96646                  23826238.9404
        41.5004         20.5004
  23094311.0734    -376839.05549   -296938.63247                  23094308.6164
        45.0004         29.2504
  20162739.4484   -3539235.44549  -2738005.02448                  20162737.5854
        51.7504         41.5004
  23851582.9404   -3573244.17249  -2768772.13046                  23851583.2694
        42.5004         22.7504
  23540899.9724   -5055697.67249  -3912319.01546                  23540901.5504
        42.2504         20.7504
 04  7  6 20 20 29.9990000  0  8G15G11G14G20G22G25G30G 1
  24028345.4484    1356492.78549   1048629.56146                  24028348.6444
        42.5004         22.5004
  21436114.3784   -3859741.46149  -2986461.73747                  21436111.8234
        48.5004         35.2504
  21839048.2454    -400992.37949   -315928.04647                  21839045.9054
        47.5004         32.5004
  23815364.9644   -5058413.77049  -3931822.29646                  23815363.8744
        41.5004         22.0004
  23093467.7764    -381271.78549   -300392.75047                  23093465.4404
        45.2504         28.7504
  20156441.8554   -3572330.76649  -2763793.57648                  20156439.6284
        51.5004         40.7504
  23845069.9334   -3607472.06649  -2795443.16246                  23845069.6554
        42.5004         23.0004
  23531252.0034   -5106399.31249  -3951826.77646                  23531253.3004
        42.0004         20.7504
 04  7  6 20 20 39.9990000  0  8G15G11G14G20G22G25G30G 1
  24030642.4094    1368561.12149   1058033.35746                  24030645.2224
        42.2504         22.2504
  21429281.5654   -3895648.03149  -3014440.88747                  21429279.0034
        49.0004         35.2504
  21838045.1754    -406262.89549   -320034.94947                  21838042.7844
        47.5004         33.2504
  23804483.4404   -5115597.31249  -3976380.82646                  23804482.4804
        41.5004         21.5004
  23092622.7614    -385712.10549   -303852.75747                  23092620.0814
        44.7504         29.2504
  20150149.6984   -3605396.40649  -2789559.01748                  20150147.6674
        52.0004         41.2504
  23838560.0264   -3641679.06649  -2822098.01846                  23838560.3704
        42.0004         24.5004
  23521601.6904   -5157111.62549  -3991342.83946                  23521602.8974
        42.0004         22.5004
 04  7  6 20 20 49.9990000  0  8G15G11G14G20G22G25G30G 1
  24032935.5974    1380605.97349   1067418.88946                  24032938.0464
        42.2504         25.2504
  21422454.7374   -3931523.82049  -3042396.05447                  21422452.0074
        48.5004         34.7504
  21837038.5654    -411552.97349   -324157.10147                  21837036.2964
        46.7504         33.2504
  23793596.2454   -5172811.34049  -4020963.19546                  23793594.4604
        42.0004         22.5004
  23091777.0814    -390158.23449   -307317.29947                  23091773.9524
        45.0004         29.5004
  20143863.4954   -3638430.53949  -2815299.89948                  20143861.1324
        51.5004         41.0004
  23832055.3004   -3675863.39149  -2848735.08046                  23832055.7334
        42.2504         22.5004
  23511949.5974   -5207832.85249  -4030865.85046                  23511950.9254
        41.5004         21.5004
 04  7  6 20 20 59.9990000  0  8G15G11G14G20G22G25G30G 1
  24035223.0424    1392627.09049   1076785.88746                  24035225.1594
        42.5004         24.2504
  21415633.5424   -3967368.93049  -3070327.29547                  21415630.9564
        47.0004         35.0004
  21836028.4564    -416862.76649   -328294.59947                  21836026.0074
        47.2504         32.5004
  23782702.9334   -5230056.03949  -4065569.40846                  23782701.8044
        42.5004         22.5004
  23090929.6444    -394610.26649   -310786.44847                  23090927.0694
        45.2504         29.5004
  20137583.4724   -3671433.31649  -2841016.34348                  20137581.2144
        51.0004         41.0004
  23825554.1754   -3710025.13349  -2875354.61046                  23825554.8434
        42.0004         22.7504
  23502296.2374   -5258563.11749  -4070395.89146                  23502297.1794
        42.0004         21.2504
 04  7  6 20 21  9.9990000  0  8G15G11G14G20G22G25G30G 1
  24037505.9174    1404626.95349   1086136.34347                  24037508.5224
        42.5004         26.0004
  21408819.0264   -4003180.83249  -3098232.67947                  21408816.4174
        48.2504         35.2504
  21835014.1834    -422189.79349   -332445.54447                  21835011.9014
        47.0004         32.7504
  23771803.7764   -5287328.80149  -4110197.53946                  23771802.9834
        41.7504         21.5004
  23090081.9724    -399065.75849   -314258.27347                  23090079.0384
        44.7504         29.0004
  20131309.1984   -3704402.21149  -2866706.38648                  20131307.3084
        51.5004         41.5004
  23819058.8394   -3744161.64849  -2901954.47546                  23819059.0974
        42.0004         24.0004
  23492641.5504   -5309299.87149  -4109930.95446                  23492642.4834
        42.2504         21.5004
 04  7  6 20 21 19.9990000  0  8G15G11G14G20G22G25G30G 1
  24039785.7534    1416604.21949   1095469.16646                  24039787.9444
        42.5004         23.7504
  21402009.9484   -4038960.63349  -3126113.03847                  21402007.3704
        47.0004         34.5004
  21833997.5974    -427535.26249   -336610.86047                  21833995.0424
        46.0004         32.0004
  23760900.2064   -5344630.70349  -4154848.32046                  23760898.5304
        42.2504         21.5004
  23089233.6834    -403525.77049   -317733.62147                  23089230.4724
        45.7504         29.5004
  20125041.7764   -3737338.37549  -2892370.93048                  20125039.8514
        52.0004         40.7504
  23812567.0584   -3778274.03949  -2928535.57846                  23812567.4684
        41.2504         22.7504
  23482984.8394   -5360044.30149  -4149472.06246                  23482985.8434
        42.7504         22.5004
 04  7  6 20 21 29.9990000  0  8G15G11G14G20G22G25G30G 1
  24042060.2144    1428557.68849   1104783.50946                  24042062.6164
        42.2504         23.5004
  21395207.4484   -4074709.34449  -3153969.17747                  21395205.0074
        47.0004         35.0004
  21832976.3004    -432900.35249   -340791.44947                  21832973.8704
        46.7504         32.7504
  23749990.2304   -5401962.86749  -4199522.73646                  23749988.2494
        42.0004         23.2504
  23088383.3234    -407991.45749   -321213.41747                  23088380.6754
        45.0004         28.7504
  20118780.2614   -3770242.94949  -2918010.85248                  20118778.2924
        51.7504         41.0004
  23806079.6984   -3812363.37549  -2955098.67246                  23806080.1364
        42.7504         24.0004
  23473326.7224   -5410797.57049  -4189020.08446                  23473327.4604
        43.0004         22.7504
 04  7  6 20 21 39.9990000  0  8G15G11G14G20G22G25G30G 1
  24044330.1124    1440489.36349   1114080.83146                  24044333.0114
        41.5004         22.5004
  21388411.0194   -4110424.87949  -3181799.45747                  21388408.7924
        48.2504         34.5004
  21831952.1204    -438282.99649   -344985.72547                  21831949.9214
        46.5004         33.0004
  23739074.7374   -5459323.09449  -4244219.00446                  23739073.3514
        42.2504         22.7504
  23087533.5504    -412460.69149   -324695.94447                  23087530.7574
        45.2504         30.0004
  20112525.3704   -3803113.73849  -2943624.45348                  20112523.1794
        51.7504         41.0004
  23799598.0974   -3846427.38749  -2981642.05746                  23799598.0934
        42.5004         24.0004
  23463667.7454   -5461557.53149  -4228573.24046                  23463668.4094
        42.5004         22.5004
 04  7  6 20 21 49.9990000  0  8G15G11G14G20G22G25G30G 1
  24046597.0734    1452400.04749   1123361.81646                  24046600.0074
        41.7504         22.0004
  21381620.8944   -4146106.43449  -3209603.26047                  21381618.4214
        48.0004         34.2504
  21830924.6444    -443682.37149   -349193.03547                  21830922.4094
        46.0004         32.2504
  23728154.1594   -5516710.55549  -4288936.46046                  23728152.8864
        42.5004         24.5004
  23086682.0584    -416932.78149   -328180.71147                  23086679.8974
        45.5004         30.0004
  20106276.5424   -3835949.92249  -2969211.07548                  20106274.5544
        51.2504         41.5004
  23793121.0504   -3880465.35549  -3008165.11146                  23793120.1594
        41.7504         25.0004
  23454007.3154   -5512323.36349  -4268131.03646                  23454007.9994
        43.0004         22.7504
 04  7  6 20 21 59.9990000  0  8G15G11G14G20G22G25G30G 1
  24048859.4874    1464289.38349   1132626.12246                  24048862.7654
        40.7504         21.5004
  21374837.4174   -4181754.17249  -3237380.73347                  21374834.9764
        47.5004         34.7504
  21829893.6284    -449098.77049   -353413.60347                  21829891.4294
        45.5004         32.2504
  23717228.5814   -5574125.44149  -4333675.29346                  23717227.0224
        43.2504         22.5004
  23085830.4484    -421407.83649   -331667.79947                  23085827.7264
        44.2504         29.5004
  20100034.8554   -3868751.80549  -2994770.99548                  20100032.9014
        52.0004         41.5004
  23786648.7764   -3914477.35249  -3034667.96046                  23786648.3744
        42.7504         23.0004
  23444345.5734   -5563095.32449  -4307693.53746                  23444346.6554
        42.2504         24.2504
 04  7  6 20 22  9.9990000  0  8G15G11G14G20G22G25G30G 1
  24051118.3944    1476159.63349   1141875.60246                  24051121.4054
        40.0004         22.0004
  21368060.3784   -4217365.75049  -3265130.01847                  21368058.2264
        47.0004         34.7504
  21828859.8154    -454529.90249   -357645.66847                  21828858.3124
        46.7504         32.5004
  23706297.7374   -5631565.44149  -4378433.72246                  23706296.4994
        43.0004         22.5004
  23084978.3314    -425883.59049   -335155.42247                  23084976.0344
        44.2504         30.0004
  20093799.3474   -3901517.03549  -3020302.34148                  20093797.7264
        52.0004         41.5004
  23780181.5424   -3948461.07049  -3061148.74246                  23780180.8864
        42.7504         22.7504
  23434683.5264   -5613871.05949  -4347259.00446                  23434684.2374
        43.0004         22.7504
 04  7  6 20 22 19.9990000  0  8G15G11G14G20G22G25G30G 1
  24053373.6674    1488010.77349   1151110.13746                  24053377.4524
        39.7504         22.0004
  21361290.7924   -4252941.08249  -3292851.03747                  21361288.4954
        48.7504         34.7504
  21827823.9484    -459975.75849   -361889.18547                  21827821.8974
        47.0004         32.5004
  23695362.8394   -5689030.37949  -4423211.59446                  23695361.4054
        43.0004         21.7504
  23084126.6364    -430359.95749   -338643.51547                  23084123.9214
        44.5004         29.2504
  20087571.4254   -3934245.58249  -3045805.09748                  20087569.4604
        51.0004         41.0004
  23773719.6594   -3982416.35249  -3087607.43346                  23773718.7694
        42.5004         24.5004
  23425019.8234   -5664650.54749  -4386827.40546                  23425021.2764
        42.7504         22.7504
 04  7  6 20 22 29.9990000  0  8G15G11G14G20G22G25G30G 1
  24055625.6444    1499842.74249   1160329.73246                  24055628.3394
        39.7504         21.0004
  21354528.1124   -4288480.10549  -3320543.78747                  21354525.9294
        49.0004         34.2504
  21826785.0584    -465436.29349   -366144.17447                  21826782.5344
        47.2504         32.2504
  23684422.6674   -5746520.11749  -4468008.76446                  23684421.2224
        43.2504         24.0004
  23083275.0114    -434836.87149   -342132.06447                  23083272.3624
        44.5004         28.5004
  20081350.5894   -3966937.30549  -3071279.16348                  20081348.4804
        50.7504         40.7504
  23767263.8234   -4016343.00049  -3114043.76246                  23767262.8354
        41.2504         23.0004
  23415356.7844   -5715433.61749  -4426398.62446                  23415357.9764
        43.0004         23.7504
 04  7  6 20 22 39.9990000  0  8G15G11G14G20G22G25G30G 1
  24057873.1514    1511655.64849   1169534.48146                  24057876.7104
        39.2504         20.0004
  21347771.9484   -4323982.65649  -3348208.11247                  21347769.7614
        48.7504         34.2504
  21825743.3314    -470911.32049   -370410.41447                  21825740.4684
        48.0004         32.2504
  23673478.3234   -5804034.45749  -4512825.11946                  23673477.3434
        43.0004         22.2504
  23082422.6904    -439314.10249   -345620.80347                  23082420.4684
        44.2504         27.0004
  20075136.4874   -3999591.98449  -3096724.36048                  20075134.3394
        51.7504         41.2504
  23760813.2224   -4050240.71549  -3140457.52646                  23760812.1984
        42.0004         23.5004
  23405692.3474   -5766220.11749  -4465972.46446                  23405693.0774
        43.0004         24.0004
 04  7  6 20 22 49.9990000  0  8G15G11G14G20G22G25G30G 1
  24060116.9874    1523450.28549   1178725.09946                  24060120.4444
        37.7504         18.5004
  21341023.0264   -4359447.75849  -3375843.27347                  21341020.6084
        49.0004         34.7504
  21824698.8394    -476400.02749   -374687.34947                  21824695.9764
        47.2504         32.5004
  23662529.0584   -5861572.45749  -4557659.86846                  23662528.2654
        43.7504         22.7504
  23081571.2614    -443790.78949   -349109.16247                  23081568.4374
        44.5004         28.7504
  20068929.8234   -4032208.78549  -3122140.04448                  20068927.8274
        51.7504         40.5004
  23754368.5034   -4084108.64149  -3166848.15346                  23754367.7414
        42.7504         22.5004
  23396027.4804   -5817009.21549  -4505548.34946                  23396028.3974
        43.0004         25.0004
 04  7  6 20 22 59.9990000  0  8G15G11G14G20G22G25G30G 1
  24062359.1204    1535229.12949   1187903.32846                  24062362.3784
        36.0004         17.2504
  21334282.3944   -4394872.78149  -3403447.18147                  21334279.7304
        48.2504         35.2504
  21823651.9094    -481899.84049   -378972.90447                  21823649.4954
        46.5004         32.2504
  23651575.7764   -5919131.53549  -4602511.10846                  23651574.8514
        42.7504         22.5004
  23080719.9804    -448264.35549   -352595.10147                  23080717.1514
        43.7504         28.0004
  20062730.8624   -4064785.12149  -3147524.19548                  20062729.0584
        51.7504         40.7504
  23747930.3004   -4117944.16449  -3193213.49346                  23747928.8784
        43.2504         22.7504
  23386362.3474   -5867798.32849  -4545124.22846                  23386363.9134
        43.0004         23.5004
 04  7  6 20 23  9.9990000  0  8G15G11G14G20G22G25G30G 1
  24064597.0734    1546989.46149   1197067.09446                  24064600.0224
        36.0004         17.7504
  21327547.9404   -4430260.41449  -3431021.96847                  21327545.7964
        49.0004         35.0004
  21822602.7614    -487413.51249   -383269.29147                  21822600.5114
        46.7504         33.0004
  23640617.9874   -5976714.18749  -4647380.69146                  23640617.6014
        43.0004         22.7504
  23079868.5734    -452737.46949   -356080.66947                  23079866.1514
        43.0004         28.2504
  20056538.8624   -4097323.62949  -3172878.88548                  20056536.7144
        52.0004         41.7504
  23741496.8234   -4151749.73849  -3219555.47646                  23741495.9954
        42.2504         25.0004
  23376697.1444   -5918590.03549  -4584702.16447                  23376698.6984
        43.2504         25.7504
 04  7  6 20 23 19.9980000  0  8G15G11G14G20G22G25G30G 1
  24066830.0534    1558729.55948   1206215.16446                  24066834.4674
        34.0004         16.7504
  21320821.9434   -4465607.53149  -3458565.18047                  21320819.7174
        49.0004         35.5004
  21821550.7324    -492940.92249   -387576.36247                  21821548.3464
        46.0004         32.7504
  23629657.5294   -6034315.14549  -4692264.51546                  23629655.6544
        43.0004         22.7504
  23079016.9204    -457210.12149   -359565.87047                  23079015.1934
        44.0004         27.2504
  20050355.0224   -4129821.57049  -3198201.94948                  20050352.6974
        52.0004         41.5004
  23735070.6314   -4185522.49249  -3245871.90346                  23735069.1504
        44.0004         23.0004
  23367032.0924   -5969379.76649  -4624278.54447                  23367033.8304
        43.7504         26.0004
 04  7  6 20 23 29.9980000  0  8G15G11G14G20G22G25G30G 1
  24069062.4824    1570456.27748   1215352.75046                  24069066.1194
        34.5004         15.5004
  21314102.6154   -4500916.38349  -3486078.56347                  21314100.4394
        48.0004         34.5004
  21820497.2794    -498478.54749   -391891.40047                  21820494.7954
        45.7504         32.7504
  23618691.5294   -6091941.28949  -4737167.96046                  23618689.6504
        42.5004         22.7504
  23078167.1784    -461678.53149   -363047.76947                  23078164.6624
        43.2504         28.0004
  20044177.8574   -4162280.76649  -3223494.82448                  20044176.1434
        51.5004         40.7504
  23728649.7404   -4219264.39149  -3272164.27846                  23728647.9714
        44.0004         23.0004
  23357366.5224   -6020173.00049  -4663857.67746                  23357367.9434
        44.0004         25.2504
 04  7  6 20 23 39.9980000  0  8G15G11G14G20G22G25G30G 1
  24071291.4044    1582168.30548   1224478.89146                  24071295.2214
        35.0004         14.7504
  21307391.5844   -4536183.53949  -3513559.46647                  21307389.6394
        48.5004         35.0004
  21819441.5614    -504025.94949   -396214.06047                  21819439.0644
        45.5004         32.5004
  23607721.4594   -6149586.84049  -4782086.59046                  23607720.0614
        42.7504         22.0004
  23077317.3814    -466142.33649   -366526.08047                  23077314.9244
        43.2504         26.0004
  20038009.1624   -4194698.08249  -3248755.06848                  20038007.0494
        52.5004         40.7504
  23722235.0844   -4252972.20349  -3298430.10146                  23722233.7294
        44.0004         23.0004
  23347701.3894   -6070964.81249  -4703435.64947                  23347702.6044
        44.7504         26.0004
 04  7  6 20 23 49.9980000  0  8G15G11G14G20G22G25G30G 1
  24073517.6624    1593866.08248   1233593.96146                  24073521.3934
        35.0004         15.5004
  21300688.7724   -4571408.37149  -3541007.37347                  21300686.3694
        48.7504         35.0004
  21818384.1234    -509582.57449   -400543.88347                  21818381.7644
        45.7504         32.2504
  23596747.9284   -6207251.14149  -4827019.76746                  23596747.2484
        42.5004         22.7504
  23076468.7794    -470600.86349   -370000.27947                  23076466.6474
        43.7504         26.5004
  20031848.4984   -4227072.81649  -3273982.11848                  20031846.3074
        52.0004         40.5004
  23715826.8814   -4286645.22749  -3324668.80546                  23715826.6074
        43.5004         22.7504
  23338036.4124   -6121754.53149  -4743012.00847                  23338037.3654
        44.5004         25.7504
 04  7  6 20 23 59.9980000  0  8G15G11G14G20G22G25G30G 1
  24075740.8344    1605546.91448   1242695.76646                  24075744.1504
        35.5004         14.7504
  21293993.0614   -4606593.55549  -3568424.41947                  21293990.5924
        49.0004         34.5004
  21817324.5294    -515151.19549   -404883.08947                  21817322.4204
        46.0004         32.5004
  23585771.2484   -6264936.87549  -4871969.67746                  23585769.9364
        42.5004         21.7504
  23075621.4824    -475056.82449   -373472.51846                  23075618.6584
        43.0004         24.5004
  20025695.5534   -4259407.73449  -3299178.17048                  20025693.4244
        51.5004         41.2504
  23709425.6544   -4320285.94949  -3350882.36546                  23709424.9594
        43.0004         25.5004
  23328371.4674   -6172544.84449  -4782588.85347                  23328372.2954
        44.5004         27.0004
 04  7  6 20 24  9.9980000  0  8G15G11G14G20G22G25G30G 1
  24077960.4754    1617211.05549   1251784.70746                  24077963.6934
        36.5004         15.5004
  21287305.3814   -4641738.82049  -3595810.32947                  21287302.9204
        49.0004         35.2504
  21816262.6004    -520731.41049   -409231.30047                  21816260.3544
        44.7504         32.0004
  23574789.3184   -6322643.75049  -4916936.03246                  23574788.2364
        41.2504         21.7504
  23074773.6154    -479510.00049   -376942.53046                  23074771.1704
        42.5004         24.0004
  20019549.8034   -4291702.42649  -3324342.84848                  20019548.0294
        52.0004         41.0004
  23703029.9284   -4353894.11749  -3377070.55046                  23703029.4324
        43.7504         24.5004
  23318706.0844   -6223335.42649  -4822165.93047                  23318706.9984
        44.0004         27.2504
 04  7  6 20 24 19.9980000  0  8G15G11G14G20G22G25G30G 1
  24080177.1474    1628857.96149   1260860.10946                  24080180.4044
        37.2504         16.7504
  21280624.6154   -4676844.51249  -3623165.42947                  21280622.0644
        48.7504         35.7504
  21815198.2484    -526323.71149   -413588.94347                  21815196.0844
        45.7504         32.5004
  23563804.4514   -6380371.92249  -4961918.99646                  23563803.4944
        41.0004         21.5004
  23073926.8814    -483960.73849   -380410.65047                  23073924.4594
        42.2504         26.0004
  20013412.0294   -4323957.28949  -3349476.52648                  20013409.8344
        51.5004         41.5004
  23696641.4204   -4387469.95749  -3403233.52846                  23696640.5414
        44.0004         25.2504
  23309040.4284   -6274126.68449  -4861743.50847                  23309041.6864
        44.5004         27.2504
 04  7  6 20 24 29.9980000  0  8G15G11G14G20G22G25G30G 1
  24082390.9514    1640487.82049   1269922.19146                  24082393.0334
        38.7504         16.2504
  21273952.2794   -4711910.34049  -3650489.45947                  21273949.5454
        48.0004         35.5004
  21814131.9984    -531927.89149   -417955.84047                  21814129.6074
        44.7504         32.5004
  23552815.4434   -6438121.21549  -5006918.46246                  23552813.8424
        40.5004         21.5004
  23073080.4674    -488408.82849   -383876.72946                  23073077.9324
        42.5004         25.0004
  20007281.6234   -4356172.10549  -3374578.97048                  20007279.7794
        52.0004         41.2504
  23690257.7014   -4421013.22349  -3429371.11846                  23690257.9204
        43.2504         24.2504
  23299375.4514   -6324918.37149  -4901321.37747                  23299376.6704
        45.2504         27.2504
 04  7  6 20 24 39.9980000  0  8G15G11G14G20G22G25G30G 1
  24084600.2094    1652103.25849   1278973.19946                  24084603.7524
        38.7504         14.7504
  21267287.2874   -4746933.61749  -3677780.30447                  21267284.9594
        49.2504         35.2504
  21813063.9984    -537541.32849   -422329.95947                  21813061.2724
        45.2504         32.0004
  23541821.8974   -6495888.83249  -5051932.13646                  23541821.3814
        41.5004         21.2504
  23072234.9434    -492851.51649   -387338.56846                  23072232.4124
        42.0004         24.7504
  20001159.7174   -4388344.18749  -3399648.12448                  20001157.4244
        51.7504         41.2504
  23683881.5924   -4454521.17249  -3455481.18546                  23683881.5764
        43.7504         23.5004
  23289710.5454   -6375707.75449  -4940897.48547                  23289711.4514
        45.0004         26.7504
 04  7  6 20 24 49.9980000  0  7G11G14G20G22G25G30G 1
  21260629.9904   -4781916.56249  -3705039.74847                  21260627.8464
        49.5004         35.5004
  21811993.1474    -543166.23449   -426713.01047                  21811991.2684
        45.7504         32.0004
  23530825.8184   -6553677.01249  -5096961.87246                  23530824.8224
        41.2504         22.0004
  23071390.1394    -497291.10249   -390798.04147                  23071387.7724
        41.7504         26.5004
  19995045.0224   -4420475.85549  -3424685.79348                  19995042.7524
        51.7504         41.0004
  23677511.1784   -4487995.98449  -3481565.45146                  23677511.7684
        42.0004         23.7504
  23280045.7174   -6426497.10249  -4980473.58047                  23280046.3614
        45.2504         27.0004
 04  7  6 20 24 59.9980000  0  7G11G14G20G22G25G30G 1
  21253980.7094   -4816859.68449  -3732268.14747                  21253978.2794
        49.2504         34.7504
  21810920.5224    -548803.26249   -431105.48447                  21810918.8574
        45.5004         32.5004
  23519824.8814   -6611486.32849  -5142008.05746                  23519824.0104
        41.5004         21.7504
  23070546.1474    -501728.12149   -394255.50146                  23070543.6864
        42.5004         25.5004
  19988937.9824   -4452567.60249  -3449692.32748                  19988936.1354
        51.2504         40.7504
  23671147.2874   -4521438.13749  -3507624.28446                  23671147.5884
        42.0004         24.7504
  23270380.4824   -6477287.00849  -5020050.06447                  23270381.9324
        44.5004         26.2504
 04  7  6 20 25  9.9980000  0  7G11G14G20G22G25G30G 1
  21247339.0294   -4851762.30549  -3759465.01847                  21247336.5844
        49.7504         34.5004
  21809845.9674    -554451.72749   -435506.90747                  21809843.8974
        46.0004         31.7504
  23508819.1934   -6669316.04349  -5187070.08346                  23508819.0104
        40.7504         22.5004
  23069702.1864    -506161.89849   -397710.39346                  23069699.5534
        42.2504         24.7504
  19982839.1394   -4484618.75049  -3474667.26848                  19982836.9754
        51.5004         41.2504
  23664789.7014   -4554846.89549  -3533657.08046                  23664790.4084
        42.5004         24.5004
  23260715.5454   -6528076.79349  -5059626.51747                  23260716.7254
        44.5004         27.2504
 04  7  6 20 25 19.9980000  0  7G11G14G20G22G25G30G 1
  21240705.4204   -4886621.53149  -3786628.03947                  21240702.8934
        49.2504         34.7504
  21808769.3114    -560108.87549   -439915.07747                  21808767.1934
        46.2504         32.2504
  23497811.4594   -6727163.17249  -5232145.82046                  23497811.0224
        42.0004         22.5004
  23068860.1004    -510589.60549   -401160.57746                  23068857.2604
        42.5004         25.2504
  19976748.1784   -4516626.49649  -3499608.35248                  19976746.0494
        51.5004         41.0004
  23658439.1314   -4588219.37549  -3559661.59046                  23658439.6864
        42.0004         24.7504
  23251050.9594   -6578863.59049  -5099200.62246                  23251051.7994
        44.0004         24.5004
 04  7  6 20 25 29.9980000  0  7G11G14G20G22G25G30G 1
  21234079.9824   -4921438.64849  -3813758.26847                  21234077.4324
        49.0004         35.7504
  21807690.7094    -565776.03949   -444331.05847                  21807688.7254
        46.2504         32.5004
  23486800.8504   -6785029.09449  -5277236.07846                  23486799.2294
        41.7504         23.2504
  23068017.9904    -515012.57449   -404607.08347                  23068015.5614
        42.5004         26.2504
  19970665.4514   -4548592.18749  -3524516.67948                  19970663.3264
        51.7504         41.5004
  23652095.1074   -4621556.82449  -3585638.84846                  23652095.4434
        41.7504         23.2504
  23241386.6784   -6629648.67249  -5138773.39347                  23241388.1474
        44.5004         26.2504
 04  7  6 20 25 39.9980000  0  7G11G14G20G22G25G30G 1
  21227462.8574   -4956213.64149  -3840855.67147                  21227460.1824
        49.7504         35.0004
  21806610.5064    -571453.14549   -448754.78947                  21806608.4124
        46.5004         32.5004
  23475785.3114   -6842913.62149  -5322340.93246                  23475784.2994
        41.5004         22.7504
  23067177.7404    -519430.72749   -408049.79547                  23067174.9244
        43.0004         27.5004
  19964590.3504   -4580515.71149  -3549392.15148                  19964588.2524
        51.7504         41.5004
  23645758.1934   -4654859.10249  -3611588.65746                  23645758.3424
        42.0004         25.0004
  23231723.1004   -6680432.05149  -5178344.79747                  23231724.0534
        44.7504         26.0004
 04  7  6 20 25 49.9980000  0  7G11G14G20G22G25G30G 1
  21220852.6784   -4990947.64849  -3867921.12847                  21220850.5374
        49.0004         34.5004
  21805528.2484    -577141.48849   -453187.26447                  21805525.6114
        46.7504         32.2504
  23464766.7644   -6900817.89149  -5367461.07346                  23464766.1114
        42.0004         22.2504
  23066337.6784    -523845.18749   -411489.65147                  23066334.5804
        43.2504         25.7504
  19958523.2954   -4612398.30549  -3574235.72948                  19958521.1584
        51.7504         41.2504
  23639427.1314   -4688127.29349  -3637511.89446                  23639427.2604
        42.2504         25.2504
  23222059.4754   -6731214.91049  -5217915.85146                  23222060.0964
        44.5004         24.2504
 04  7  6 20 25 59.9980000  0  7G11G14G20G22G25G30G 1
  21214251.7794   -5025638.21949  -3894952.73047                  21214249.1664
        50.0004         35.2504
  21804444.1004    -582838.66449   -457626.61347                  21804441.5684
        46.7504         32.5004
  23453745.1234   -6958739.47749  -5412594.75046                  23453743.8114
        41.7504         22.7504
  23065498.7404    -528253.57049   -414924.78747                  23065495.9714
        44.0004         25.7504
  19952464.4514   -4644237.52049  -3599045.50348                  19952462.5614
        51.7504         41.0004
  23633103.4284   -4721358.97749  -3663406.74647                  23633103.1864
        42.2504         25.7504
  23212396.5924   -6781994.85949  -5257484.62046                  23212396.9674
        44.5004         22.5004
 04  7  6 20 26  9.9980000  0  7G11G14G20G22G25G30G 1
  21207658.3344   -5060284.82449  -3921950.08547                  21207655.9044
        49.0004         35.0004
  21803358.0614    -588544.16049   -462072.43947                  21803355.5644
        46.7504         31.5004
  23442719.4904   -7016677.84849  -5457741.46846                  23442717.7444
        42.0004         22.5004
  23064661.0224    -532655.42649   -418354.78646                  23064657.9284
        43.5004         24.5004
  19946414.0764   -4676032.80149  -3623821.01948                  19946412.0184
        51.2504         40.5004
  23626787.4044   -4754553.66849  -3689272.70246                  23626786.5924
        42.7504         24.2504
  23202733.7094   -6832771.28949  -5297050.64746                  23202734.1234
        44.0004         23.2504
 04  7  6 20 26 19.9980000  0  7G11G14G20G22G25G30G 1
  21201072.8814   -5094891.27049  -3948916.15947                  21201070.6584
        49.7504         35.5004
  21802270.3034    -594261.87149   -466527.83147                  21802267.9364
        47.0004         32.5004
  23431690.3034   -7074636.73849  -5502904.24046                  23431688.8184
        43.0004         24.0004
  23063824.0294    -537054.54749   -421782.74247                  23063820.8424
        44.0004         26.0004
  19940371.1154   -4707788.02049  -3648565.36748                  19940369.1784
        52.0004         41.2504
  23620476.3344   -4787714.99649  -3715112.71446                  23620475.9984
        43.2504         22.7504
  23193071.5454   -6883548.06649  -5336616.92246                  23193071.7014
        43.5004         22.5004
 04  7  6 20 26 29.9980000  0  7G11G14G20G22G25G30G 1
  21194495.6314   -5129456.26249  -3975849.89647                  21194493.5804
        50.0004         35.2504
  21801180.1074    -599990.53149   -470991.72047                  21801177.7564
        47.5004         31.2504
  23420657.3344   -7132614.92249  -5548082.02146                  23420656.1114
        42.0004         25.0004
  23062987.6394    -541449.77349   -425207.58447                  23062985.2014
        44.5004         26.2504
  19934336.2324   -4739501.93049  -3673277.48648                  19934334.4164
        51.5004         41.0004
  23614172.4204   -4820841.69149  -3740925.70646                  23614172.0414
        42.5004         22.5004
  23183408.9754   -6934323.99249  -5376182.51846                  23183409.6314
        43.5004         22.5004
 04  7  6 20 26 39.9980000  0  7G11G14G20G22G25G30G 1
  21187926.4124   -5163978.06649  -4002750.02247                  21187924.1934
        49.2504         36.0004
  21800088.0064    -605728.52749   -475462.89847                  21800085.5614
        47.0004         32.5004
  23409621.4204   -7190610.56249  -5593273.43546                  23409620.0494
        42.7504         24.0004
  23062152.6864    -545839.26649   -428628.00747                  23062149.8654
        44.7504         28.2504
  19928309.5454   -4771172.77749  -3697956.06748                  19928307.5494
        51.5004         41.0004
  23607875.8974   -4853932.00449  -3766710.34746                  23607875.4044
        43.2504         23.7504
  23173746.6474   -6985097.34449  -5415746.13946                  23173747.6154
        42.5004         22.5004
 04  7  6 20 26 49.9980000  0  7G11G14G20G22G25G30G 1
  21181365.2174   -5198456.55549  -4029616.38547                  21181363.1314
        49.7504         35.2504
  21798994.7724    -611475.73049   -479941.25147                  21798992.1704
        47.5004         32.2504
  23398581.8424   -7248623.45349  -5638478.26846                  23398580.1544
        42.5004         22.5004
  23061318.4514    -550222.92649   -432043.87547                  23061315.5964
        45.2504         27.0004
  19922290.8654   -4802800.47749  -3722601.03548                  19922288.6974
        51.7504         41.5004
  23601585.5764   -4886985.77749  -3792466.57046                  23601585.5684
        42.0004         22.7504
  23164085.8734   -7035867.91049  -5455307.63446                  23164086.0454
        42.2504         22.0004
 04  7  6 20 26 59.9980000  0  7G11G14G20G22G25G30G 1
  21174812.1784   -5232892.68049  -4056449.72647                  21174810.2484
        49.5004         35.2504
  21797899.3574    -617233.10249   -484427.50547                  21797896.7254
        47.0004         31.7504
  23387538.8184   -7306654.59849  -5683697.29146                  23387537.5024
        43.0004         22.5004
  23060485.0764    -554601.66049   -435455.86247                  23060482.0884
        44.5004         26.2504
  19916280.5454   -4834385.99249  -3747213.12648                  19916278.4364
        51.0004         41.0004
  23595302.9984   -4920003.81649  -3818194.86046                  23595302.5374
        43.2504         24.0004
  23154424.6624   -7086636.73849  -5494867.70446                  23154425.0144
        42.5004         22.5004
 04  7  6 20 27  9.9980000  0  7G11G14G20G22G25G30G 1
  21168267.5534   -5267285.07849  -4083249.00447                  21168265.0964
        49.5004         35.5004
  21796801.7094    -622999.40249   -488920.74547                  21796798.9594
        47.2504         32.2504
  23376492.6234   -7364702.59449  -5728929.47846                  23376491.1704
        42.5004         23.0004
  23059653.2254    -558974.28149   -438863.13547                  23059650.4554
        44.0004         27.0004
  19910278.0374   -4865928.09849  -3771791.37948                  19910276.0614
        51.7504         41.2504
  23589026.7484   -4952984.86349  -3843894.37246                  23589026.0574
        42.2504         22.5004
  23144764.5224   -7137402.45749  -5534425.33746                  23144764.4984
        41.5004         22.2504
 04  7  6 20 27 19.9980000  0  7G11G14G20G22G25G30G 1
  21161730.7794   -5301636.34049  -4110016.20447                  21161728.7174
        49.5004         35.0004
  21795702.2324    -628777.25849   -493422.95947                  21795699.6974
        47.2504         32.0004
  23365443.0844   -7422770.02749  -5774176.80746                  23365441.4004
        42.5004         23.2504
  23058821.6474    -563343.31649   -442267.60047                  23058819.1314
        44.5004         25.7504
  19904283.5294   -4897429.29749  -3796337.76448                  19904281.5144
        51.5004         40.5004
  23582757.7484   -4985931.42649  -3869566.99246                  23582756.8114
        43.0004         22.7504
  23135103.5764   -7188167.73049  -5573982.73446                  23135104.1474
        41.2504         22.5004
 04  7  6 20 27 29.9980000  0  7G11G14G20G22G25G30G 1
  21155202.3504   -5335942.30549  -4136748.13447                  21155200.5184
        49.5004         35.2504
  21794601.1154    -634562.51649   -497930.97747                  21794598.5964
        47.5004         32.0004
  23354389.6394   -7480852.70749  -5819436.03546                  23354388.9904
        42.5004         23.0004
  23057991.5374    -567704.61349   -445666.02347                  23057989.1114
        44.5004         26.7504
  19898297.9124   -4928885.32049  -3820848.94848                  19898295.8224
        51.0004         41.0004
  23576495.0924   -5018839.14849  -3895209.40546                  23576494.9084
        42.5004         22.7504
  23125444.4514   -7238928.32349  -5613536.31546                  23125445.3464
        41.0004         21.0004
 04  7  6 20 27 39.9980000  0  7G11G14G20G22G25G30G 1
  21148682.8034   -5370203.73849  -4163445.35347                  21148680.4284
        49.7504         35.0004
  21793498.7794    -640355.98849   -502445.37447                  21793496.5844
        47.5004         32.2504
  23343334.4284   -7538951.35549  -5864707.66446                  23343332.6784
        43.0004         22.5004
  23057163.0924    -572058.99249   -449059.08447                  23057160.3544
        44.2504         28.7504
  19892320.4044   -4960297.14549  -3845325.69648                  19892318.2954
        51.5004         40.7504
  23570240.3184   -5051708.93749  -3920822.20646                  23570240.1354
        43.5004         22.7504
  23115785.3654   -7289685.05949  -5653087.03146                  23115786.6544
        40.2504         22.0004
 04  7  6 20 27 49.9980000  0  7G11G14G20G22G25G30G 1
  21142171.8344   -5404420.46949  -4190107.74347                  21142169.2644
        49.5004         35.5004
  21792394.4754    -646157.61349   -506966.12747                  21792392.5844
        47.7504         31.7504
  23332275.2564   -7597065.76249  -5909991.63246                  23332273.6474
        41.5004         22.7504
  23056335.5454    -576406.33649   -452446.62747                  23056332.8854
        44.5004         28.0004
  19886351.4124   -4991664.53949  -3869767.81748                  19886349.4284
        51.5004         41.0004
  23563992.8344   -5084540.59049  -3946405.31946                  23563992.1234
        41.2504         22.0004
  23106126.7324   -7340437.83249  -5692634.59946                  23106128.5224
        40.0004         20.2504
 04  7  6 20 27 59.9980000  0  7G11G14G20G22G25G30G 1
  21135669.1314   -5438591.46549  -4216734.50247                  21135666.9984
        49.2504         35.5004
  21791289.4284    -651966.46949   -511492.52747                  21791286.9944
        48.0004         32.0004
  23321213.4674   -7655194.95349  -5955287.04646                  23321212.1234
        42.0004         20.7504
  23055509.9674    -580745.60549   -455827.88547                  23055507.0184
        43.5004         28.0004
  19880390.9904   -5022986.50449  -3894174.54448                  19880389.0884
        51.5004         41.0004
  23557752.4204   -5117332.96549  -3971957.82046                  23557752.0254
        41.7504         22.7504
  23096470.2254   -7391185.61349  -5732178.34046                  23096471.8184
        40.2504         21.5004
 04  7  6 20 28  9.9980000  0  7G11G14G20G22G25G30G 1
  21129175.1934   -5472719.50449  -4243327.77547                  21129172.2794
        49.5004         35.2504
  21790182.0764    -657785.30949   -516026.69447                  21790180.0724
        47.2504         31.5004
  23310148.7484   -7713341.57849  -6000596.05746                  23310146.8424
        41.7504         20.7504
  23054685.2324    -585079.57449   -459205.03447                  23054682.6744
        44.7504         27.5004
  19874438.9754   -5054265.88749  -3918548.08648                  19874436.7604
        51.7504         41.0004
  23551519.1934   -5150088.71549  -3997481.76646                  23551518.6394
        42.2504         23.5004
  23086813.6074   -7441931.19549  -5771720.32046                  23086814.7724
        40.2504         21.5004
 04  7  6 20 28 19.9980000  0  7G11G14G20G22G25G30G 1
  21122688.6004   -5506804.94549  -4269887.87447                  21122686.2644
        48.7504         35.5004
  21789073.0294    -663614.50049   -520568.93047                  21789071.0104
        47.5004         31.2504
  23299080.0374   -7771505.99649  -6045918.95646                  23299078.0644
        42.0004         20.2504
  23053861.4204    -589408.61349   -462578.33347                  23053859.0644
        44.0004         29.0004
  19868494.4284   -5085503.14149  -3942888.79448                  19868492.3074
        51.5004         41.0004
  23545293.1394   -5182808.32849  -4022977.56746                  23545291.9204
        43.7504         22.5004
  23077157.5684   -7492674.95349  -5811260.87246                  23077158.4434
        39.7504         21.5004
 04  7  6 20 28 29.9980000  0  7G11G14G20G22G25G30G 1
  21116210.9124   -5540845.64149  -4296413.06447                  21116208.7054
        49.0004         34.5004
  21787962.0684    -669451.96949   -525117.61447                  21787960.3264
        47.5004         30.5004
  23288008.1314   -7829685.96949  -6091253.98046                  23288006.6544
        41.2504         20.5004
  23053039.0844    -593730.59849   -465946.13447                  23053036.7684
        43.5004         28.7504
  19862558.5454   -5116696.03149  -3967194.93648                  19862556.6354
        51.5004         40.5004
  23539073.8974   -5215489.59449  -4048443.49746                  23539073.0884
        44.0004         23.2504
  23067502.0224   -7543414.75449  -5850798.32146                  23067503.1044
        40.2504         22.0004
 04  7  6 20 28 39.9980000  0  7G11G14G20G22G25G30G 1
  21109741.9594   -5574840.47349  -4322902.55447                  21109739.3344
        50.0004         34.7504
  21786849.8424    -675296.64549   -529671.91947                  21786847.8544
        47.2504         31.5004
  23276934.4434   -7887880.38349  -6136600.32946                  23276932.8034
        41.5004         20.5004
  23052218.0224    -598044.40649   -469307.56547                  23052215.7444
        44.5004         27.7504
  19856631.4984   -5147843.43049  -3991465.63848                  19856629.2404
        51.5004         41.0004
  23532861.8344   -5248131.25049  -4073878.60046                  23532861.7954
        43.5004         23.7504
  23057847.4984   -7594149.47749  -5890331.87446                  23057848.5644
        39.7504         24.0004
 04  7  6 20 28 49.9980000  0  7G11G14G20G22G25G30G 1
  21103281.6474   -5608788.04349  -4349355.20247                  21103279.5844
        49.7504         35.2504
  21785736.5064    -681147.23449   -534230.81947                  21785734.3544
        48.0004         31.0004
  23265857.9204   -7946087.84049  -6181956.66546                  23265856.1314
        41.5004         19.7504
  23051399.6314    -602348.63349   -472661.53047                  23051397.1894
        44.2504         27.7504
  19850713.4204   -5178944.02749  -4015699.85948                  19850711.0884
        50.5004         41.0004
  23526658.8504   -5280731.94549  -4099281.72046                  23526657.9754
        44.0004         24.5004
  23048193.3114   -7644877.75049  -5929860.32446                  23048195.6074
        39.2504         22.5004
 04  7  6 20 28 59.9980000  0  7G11G14G20G22G25G30G 1
  21096830.4594   -5642689.62149  -4375772.03047                  21096828.2404
        49.2504         35.5004
  21784622.0374    -687004.99249   -538795.32247                  21784619.7294
        47.0004         32.0004
  23254778.6784   -8004309.56649  -6227324.20446                  23254777.4364
        41.0004         19.7504
  23050581.7794    -606644.60549   -476009.08947                  23050579.4244
        44.0004         28.5004
  19844803.6154   -5209999.07049  -4039898.59848                  19844801.6394
        51.0004         41.5004
  23520462.2324   -5313292.78149  -4124653.76446                  23520461.7644
        43.5004         24.5004
  23038541.8034   -7695600.85549  -5969384.80046                  23038543.4244
        40.0004         23.0004
 04  7  6 20 29  9.9980000  0  7G11G14G20G22G25G30G 1
  21090387.7954   -5676546.37949  -4402153.92147                  21090385.4824
        49.5004         35.2504
  21783505.6704    -692871.15249   -543366.37447                  21783503.8384
        47.2504         31.7504
  23243696.7404   -8062546.65649  -6272703.76846                  23243694.9594
        41.2504         19.2504
  23049765.6704    -610933.65249   -479351.22647                  23049763.6044
        44.0004         27.0004
  19838902.5064   -5241009.77049  -4064062.77648                  19838900.4164
        51.5004         41.7504
  23514273.3184   -5345815.12149  -4149995.83546                  23514272.7994
        41.7504         24.7504
  23028890.3184   -7746319.98449  -6008906.15546                  23028891.8034
        40.5004         25.2504
 04  7  6 20 29 19.9980000  0  7G11G14G20G22G25G30G 1
  21083953.3974   -5710358.90249  -4428501.34847                  21083951.4434
        49.5004         35.0004
  21782387.5144    -698746.33649   -547944.42747                  21782385.9714
        47.5004         31.5004
  23232611.7724   -8120799.67649  -6318095.71146                  23232609.4794
        41.7504         20.5004
  23048950.5144    -615216.22749   -482688.31047                  23048948.5184
        44.0004         28.5004
  19833009.8344   -5271976.73049  -4088192.87848                  19833007.8304
        51.0004         40.7504
  23508092.3424   -5378299.28549  -4175308.16946                  23508091.2954
        43.5004         22.7504
  23019239.5144   -7797035.78949  -6048424.93446                  23019241.0724
        40.5004         23.0004
 04  7  6 20 29 29.9980000  0  7G11G14G20G22G25G30G 1
  21077528.4204   -5744123.25049  -4454811.21947                  21077526.2294
        49.7504         35.5004
  21781268.7094    -704626.64849   -552526.50647                  21781267.0184
        46.5004         31.5004
  23221524.2564   -8179064.72349  -6363497.00646                  23221521.8934
        42.2504         21.0004
  23048137.9514    -619488.43049   -486017.32547                  23048135.7794
        43.5004         27.0004
  19827125.7174   -5302896.14149  -4112285.91648                  19827123.6474
        51.0004         41.0004
  23501918.8344   -5410741.49249  -4200587.79946                  23501918.1274
        43.5004         24.0004
  23009590.2324   -7847744.29749  -6087938.00546                  23009591.9004
        40.5004         25.5004
 04  7  6 20 29 39.9980000  0  7G11G14G20G22G25G30G 1
  21071111.8344   -5777841.32449  -4481085.02347                  21071109.7364
        50.0004         34.5004
  21780148.2724    -710514.12149   -557114.12747                  21780146.6234
        46.5004         30.5004
  23210433.6234   -8237343.64849  -6408909.12346                  23210431.5064
        42.5004         20.7504
  23047326.1704    -623752.27049   -489339.83247                  23047323.9864
        44.0004         27.0004
  19821250.9204   -5333769.94549  -4136343.40848                  19821248.5804
        51.2504         40.2504
  23495752.8894   -5443143.49649  -4225836.08746                  23495751.7724
        42.7504         22.5004
  22999941.6314   -7898447.46549  -6127446.93847                  22999943.1274
        41.0004         25.7504
 04  7  6 20 29 49.9980000  0  7G11G14G20G22G25G30G 1
  21064704.6544   -5811513.25849  -4507322.92447                  21064702.3344
        49.7504         34.5004
  21779026.0764    -716408.89149   -561707.49347                  21779024.6664
        46.0004         31.0004
  23199340.8344   -8295636.51649  -6454332.14946                  23199339.6934
        42.5004         21.2504
  23046516.6474    -628007.81249   -492655.86547                  23046514.0964
        44.0004         26.7504
  19815384.4594   -5364598.17249  -4160365.41548                  19815382.2914
        50.7504         41.5004
  23489594.8034   -5475505.41849  -4251053.19846                  23489593.7644
        42.0004         22.7504
  22990294.5294   -7949145.46149  -6166951.83547                  22990295.4434
        40.5004         26.7504
 04  7  6 20 29 59.9980000  0  7G11G14G20G22G25G30G 1
  21058305.9434   -5845140.25449  -4533525.76647                  21058303.1194
        49.0004         34.5004
  21777903.2954    -722312.12149   -566307.41847                  21777900.8854
        47.0004         31.5004
  23188245.6784   -8353944.49649  -6499766.95846                  23188243.4084
        43.0004         21.7504
  23045707.8344    -632256.27749   -495966.35347                  23045705.6784
        42.7504         26.0004
  19809526.3504   -5395382.07049  -4184352.86348                  19809524.3694
        51.0004         41.0004
  23483443.6004   -5507828.39149  -4276239.92946                  23483443.6004
        43.0004         24.2504
  22980647.5764   -7999839.40649  -6206453.53947                  22980648.2524
        40.7504         26.0004
 04  7  6 20 30  9.9980000  0  7G11G14G20G22G25G30G 1
  21051914.5534   -5878725.13749  -4559695.80947                  21051912.3344
        50.0004         36.0004
  21776777.6154    -728226.71549   -570916.19847                  21776775.1274
        46.5004         31.7504
  23177146.4044   -8412270.32449  -6545215.59346                  23177144.9514
        43.7504         22.5004
  23044899.7564    -636500.48049   -499273.58147                  23044898.0964
        43.5004         26.5004
  19803676.2404   -5426124.51249  -4208308.01448                  19803674.1974
        51.0004         41.0004
  23477299.5144   -5540115.03549  -4301398.34646                  23477299.3464
        43.2504         23.5004
  22971001.3114   -8050532.14149  -6245954.36247                  22971002.1194
        41.2504         27.7504
 04  7  6 20 30 19.9980000  0  7G11G14G20G22G25G30G 1
  21045532.0294   -5912265.17249  -4585830.91247                  21045529.6274
        50.0004         35.0004
  21775650.5374    -734150.12949   -575531.84647                  21775648.1544
        46.7504         31.0004
  23166044.4124   -8470611.48849  -6590676.23546                  23166043.0184
        43.7504         23.7504
  23044094.0684    -640737.90249   -502575.49647                  23044091.4164
        42.7504         27.5004
  19797834.5294   -5456822.83649  -4232228.78448                  19797832.6004
        51.2504         41.5004
  23471162.7254   -5572362.92249  -4326526.58346                  23471162.8504
        43.7504         23.5004
  22961355.5144   -8101221.13349  -6285452.24647                  22961356.0454
        42.7504         27.7504
 04  7  6 20 30 29.9980000  0  7G11G14G20G22G25G30G 1
  21039158.6934   -5945758.41849  -4611929.55147                  21039155.9394
        50.2504         35.2504
  21774522.1704    -740080.34449   -580152.80447                  21774519.6744
        47.0004         31.7504
  23154940.2014   -8528965.74649  -6636147.04046                  23154938.6274
        43.7504         24.2504
  23043289.1394    -644966.37549   -505870.41147                  23043287.0764
        43.0004         26.7504
  19792001.5684   -5487475.02749  -4256113.60848                  19791999.6314
        51.0004         41.0004
  23465033.7954   -5604569.92649  -4351622.93246                  23465034.0534
        40.5004         22.5004
  22951710.7644   -8151904.31249  -6324945.58547                  22951711.7254
        44.2504         28.0004
 04  7  6 20 30 39.9980000  0  7G11G14G20G22G25G30G 1
  21032794.2254   -5979204.18749  -4637991.17947                  21032791.5574
        50.0004         35.0004
  21773392.4434    -746016.69949   -584778.54747                  21773389.7214
        46.5004         31.0004
  23143833.4434   -8587332.37949  -6681627.52246                  23143832.1004
        44.2504         25.5004
  23042485.4204    -649185.27349   -509157.92746                  23042484.1664
        42.0004         24.2504
  19786177.8504   -5518080.50849  -4279962.02548                  19786175.9474
        50.5004         41.7504
  23458913.9284   -5636735.25849  -4376686.82346                  23458913.5254
        41.0004         22.5004
  22942066.9284   -8202581.00849  -6364433.89347                  22942068.0254
        41.5004         28.0004
 04  7  6 20 30 49.9980000  0  7G11G14G20G22G25G30G 1
  21026438.5534   -6012602.92649  -4664016.16147                  21026436.0374
        50.2504         34.0004
  21772261.6074    -751959.72349   -589409.48247                  21772258.8504
        47.0004         30.5004
  23132724.1154   -8645711.95749  -6727118.08346                  23132722.2874
        44.2504         25.0004
  23041684.8424    -653395.10249   -512438.34446                  23041683.4594
        42.2504         24.2504
  19780362.4984   -5548639.77749  -4303774.44648                  19780360.3774
        51.0004         41.0004
  23452800.9204   -5668859.41049  -4401718.62646                  23452799.7724
        42.7504         24.2504
  22932424.8034   -8253251.79349  -6403917.61047                  22932425.7644
        42.2504         27.0004
 04  7  6 20 30 59.9980000  0  7G11G14G20G22G25G30G 1
  21020091.8654   -6045956.00849  -4690005.58447                  21020089.3424
        49.7504         34.7504
  21771129.0684    -757910.96549   -594046.82047                  21771126.4324
        46.5004         31.5004
  23121612.0924   -8704105.79749  -6772619.74646                  23121610.9864
        44.5004         25.5004
  23040885.1234    -657597.37149   -515712.87146                  23040883.3654
        42.0004         24.2504
  19774555.5224   -5579154.29749  -4327551.97848                  19774553.6274
        51.0004         41.7504
  23446695.3974   -5700943.72749  -4426719.37846                  23446694.9164
        44.5004         25.5004
  22922782.9124   -8303918.08249  -6443397.79247                  22922784.4044
        41.0004         27.5004
 04  7  6 20 31  9.9980000  0  7G11G14G20G22G25G30G 1
  21013753.2484   -6079264.66849  -4715960.38247                  21013750.7874
        49.5004         35.2504
  21769995.0924    -763871.48049   -598691.38947                  21769992.0494
        46.2504         31.2504
  23110497.3034   -8762514.96149  -6818133.37446                  23110495.6194
        44.5004         24.5004
  23040087.1704    -661793.19549   -518982.35846                  23040084.6354
        42.5004         22.7504
  19768757.2644   -5609625.06249  -4351295.42848                  19768755.2644
        50.7504         41.5004
  23440596.9824   -5732989.33649  -4451689.96046                  23440596.3114
        44.0004         25.5004
  22913142.1154   -8354580.91049  -6482875.27447                  22913143.2444
        40.0004         27.0004
 04  7  6 20 31 19.9980000  0  7G11G14G20G22G25G30G 1
  21007423.6784   -6112526.39849  -4741878.61447                  21007421.0614
        50.0004         35.5004
  21768859.3574    -769838.92249   -603341.36147                  21768856.4434
        45.2504         31.5004
  23099379.8504   -8820937.04349  -6863657.04346                  23099378.4324
        44.5004         25.0004
  23039290.8184    -665980.09849   -522244.93146                  23039287.6194
        43.0004         24.0004
  19762967.4364   -5640049.73849  -4375002.97448                  19762965.5064
        50.7504         42.0004
  23434506.6154   -5764993.69149  -4476628.42846                  23434506.2294
        42.5004         23.0004
  22903502.3974   -8405237.90649  -6522348.21047                  22903503.6974
        40.5004         26.5004
 04  7  6 20 31 29.9980000  0  7G11G14G20G22G25G30G 1
  21001103.2014   -6145742.18049  -4767761.03347                  21001100.4514
        50.2504         34.7504
  21767722.1784    -775814.25849   -607997.46547                  21767719.5374
        44.0004         31.2504
  23088260.3734   -8879372.85949  -6909191.41647                  23088258.7994
        44.5004         27.0004
  23038495.5454    -670159.09049   -525501.29246                  23038492.1074
        43.2504         22.7504
  19757186.5924   -5670429.19549  -4398675.27248                  19757184.4434
        51.0004         42.0004
  23428423.8264   -5796957.74649  -4501535.49946                  23428423.1974
        43.2504         23.7504
  22893864.1624   -8455890.00849  -6561817.37447                  22893864.6934
        42.5004         26.5004
 04  7  6 20 31 39.9980000  0  7G11G14G20G22G25G30G 1
  20994790.8034   -6178912.57449  -4793608.08747                  20994788.5804
        50.0004         36.0004
  21766583.4674    -781798.07449   -612660.18747                  21766580.3304
        45.7504         31.0004
  23077136.9824   -8937823.05149  -6954736.99746                  23077135.4944
        43.7504         25.5004
  23037701.4984    -674330.68449   -528751.92046                  23037698.6074
        42.5004         24.2504
  19751414.2254   -5700764.10549  -4422312.86348                  19751411.8694
        51.0004         41.5004
  23422349.4754   -5828882.00849  -4526411.58946                  23422348.0844
        43.2504         24.2504
  22884225.4824   -8506537.81249  -6601283.16347                  22884226.5024
        40.0004         26.0004
 04  7  6 20 31 49.9980000  0  7G11G14G20G22G25G30G 1
  20988487.0454   -6212037.81249  -4819419.96847                  20988484.8114
        50.0004         35.2504
  21765443.5294    -787790.62149   -617329.71547                  21765440.1074
        46.5004         30.0004
  23066011.6544   -8996287.68749  -7000293.84446                  23066010.0494
        43.5004         24.2504
  23036909.3734    -678495.10949   -531996.95546                  23036906.2254
        43.5004         23.7504
  19745649.9984   -5731054.69949  -4445915.91048                  19745647.7874
        51.0004         41.0004
  23416281.8974   -5860766.67249  -4551256.76646                  23416280.9514
        43.0004         22.5004
  22874588.4674   -8557181.53549  -6640745.73847                  22874589.4204
        40.5004         26.0004
 04  7  6 20 31 59.9980000  0  7G11G14G20G22G25G30G 1
  20982192.5224   -6245117.87149  -4845196.65047                  20982189.9394
        49.7504         35.2504
  21764301.0614    -793792.02749   -622006.14047                  21764298.2134
        46.2504         30.2504
  23054883.3034   -9054766.77349  -7045861.91947                  23054881.8974
        43.2504         25.7504
  23036118.1784    -682652.53949   -535236.55446                  23036115.2994
        43.0004         25.2504
  19739894.2174   -5761301.08249  -4469484.52348                  19739892.3574
        51.0004         41.0004
  23410221.8184   -5892611.75449  -4576071.10947                  23410221.5024
        43.2504         25.7504
  22864952.3344   -8607821.31249  -6680205.28946                  22864952.8974
        41.0004         24.0004
 04  7  6 20 32  9.9980000  0  7G11G14G20G22G25G30G 1
  20975906.2094   -6278152.08649  -4870937.58547                  20975903.8344
        50.5004         35.5004
  21763157.1544    -799801.65249   -626688.97447                  21763154.8344
        46.0004         30.2504
  23043752.0534   -9113259.67649  -7091440.82846                  23043750.8224
        43.0004         25.0004
  23035328.4674    -686802.18449   -538470.03746                  23035325.4794
        43.5004         25.0004
  19734147.1704   -5791502.62549  -4493018.18548                  19734145.0064
        51.2504         41.5004
  23404169.3344   -5924416.46949  -4600853.98646                  23404169.0964
        43.5004         25.0004
  22855315.8894   -8658456.37949  -6719661.14646                  22855317.3854
        40.5004         24.7504
 04  7  6 20 32 19.9980000  0  7G11G14G20G22G25G30G 1
  20969628.3034   -6311142.60949  -4896644.47347                  20969626.0144
        50.0004         35.2504
  21762011.9904    -805821.68449   -631379.90947                  21762009.6394
        46.0004         30.2504
  23032619.0224   -9171768.44949  -7137032.01646                  23032617.2014
        43.0004         23.0004
  23034540.1234    -690946.27349   -541699.21946                  23034537.6894
        44.5004         25.5004
  19728408.2484   -5821661.39149  -4516518.52348                  19728406.3184
        50.5004         41.5004
  23398124.4044   -5956182.96149  -4625607.09346                  23398124.6314
        42.7504         25.0004
  22845681.1704   -8709088.87149  -6759114.97046                  22845682.0724
        40.5004         24.5004
 04  7  6 20 32 29.9980000  0  7G11G14G20G22G25G30G 1
  20963359.0614   -6344087.65649  -4922315.95747                  20963356.4044
        50.0004         35.7504
  21760865.2874    -811850.30549   -636077.54247                  21760862.6504
        46.0004         31.5004
  23021481.8264   -9230291.28949  -7182634.20046                  23021480.3974
        42.0004         24.5004
  23033752.5144    -695082.99649   -544922.68747                  23033750.7524
        44.5004         27.0004
  19722677.6624   -5851775.61349  -4539984.14648                  19722675.2954
        51.2504         41.5004
  23392087.3894   -5987909.40249  -4650329.02946                  23392087.0534
        42.0004         25.0004
  22836046.8344   -8759717.10249  -6798565.58546                  22836047.7914
        40.7504         23.2504
 04  7  6 20 32 39.9970000  0  7G11G14G20G22G25G30G 1
  20957099.0564   -6376983.52049  -4947949.09447                  20957096.8334
        50.5004         36.0004
  21759715.9314    -817886.57849   -640781.12347                  21759714.1064
        45.5004         31.0004
  23010343.8604   -9288821.85549  -7228242.42146                  23010342.0634
        42.2504         22.7504
  23032967.1424    -699211.57449   -548139.79647                  23032964.7434
        44.5004         26.5004
  19716956.1574   -5881841.88349  -4563412.41348                  19716953.9384
        50.7504         41.5004
  23386058.6184   -6019592.14149  -4675016.84046                  23386057.7514
        42.0004         25.0004
  22826414.2514   -8810335.54749  -6838008.43046                  22826415.6774
        40.0004         24.0004
 04  7  6 20 32 49.9970000  0  7G11G14G20G22G25G30G 1
  20950847.0564   -6409837.55149  -4973549.63647                  20950844.7084
        50.5004         36.0004
  21758565.9314    -823932.52749   -645492.27247                  21758563.3644
        46.0004         29.7504
  22999201.5404   -9347372.55549  -7273866.31546                  22999200.3684
        41.7504         25.0004
  23032182.5714    -703333.57849   -551351.73647                  23032180.5754
        44.2504         26.0004
  19711242.6884   -5911867.07049  -4586808.65148                  19711240.6144
        51.2504         40.7504
  23380036.7204   -6051238.24649  -4699676.16046                  23380035.6424
        43.0004         24.5004
  22816781.6964   -8860955.14549  -6877452.26146                  22816782.8994
        40.7504         22.7504
 04  7  6 20 32 59.9970000  0  7G11G14G20G22G25G30G 1
  20944603.3534   -6442647.98449  -4999116.20047                  20944601.1854
        50.0004         36.0004
  21757413.1494    -829989.07049   -650211.65047                  21757411.2124
        46.5004         30.2504
  22988057.1654   -9405938.98849  -7319502.44546                  22988055.5324
        41.5004         22.7504
  23031399.5094    -707450.14849   -554559.50347                  23031397.5284
        44.5004         27.0004
  19705537.0174   -5941849.68449  -4610171.72248                  19705535.1144
        51.5004         40.7504
  23374021.6184   -6082846.03149  -4724305.59846                  23374021.0214
        43.7504         23.7504
  22807149.5174   -8911572.28549  -6916894.11446                  22807150.5324
        41.5004         22.5004
 04  7  6 20 33  9.9970000  0  7G11G14G20G22G25G30G 1
  20938368.8534   -6475411.75849  -5024646.42747                  20938366.7244
        50.0004         35.7504
  21756259.4234    -836053.23849   -654936.98747                  21756257.3454
        47.2504         29.2504
  22976909.9464   -9464518.16049  -7365148.52046                  22976908.2244
        41.2504         22.5004
  23030617.6104    -711558.30549   -557760.68247                  23030616.2554
        44.5004         26.7504
  19699840.0094   -5971786.80949  -4633499.35348                  19699838.0364
        51.0004         40.7504
  23368014.1884   -6114412.46549  -4748902.77846                  23368014.1224
        43.5004         23.7504
  22797517.7674   -8962184.10249  -6956331.88746                  22797519.3844
        41.7504         22.0004
 04  7  6 20 33 19.9970000  0  7G11G14G20G22G25G30G 1
  20932142.6184   -6508130.61749  -5050141.64747                  20932140.1384
        50.2504         36.0004
  21755103.4854    -842126.84449   -659669.67147                  21755101.7674
        47.0004         29.7504
  22965759.6264   -9523111.79749  -7410805.84646                  22965758.5284
        41.2504         22.5004
  23029837.0794    -715659.81649   -560956.71947                  23029835.1614
        45.0004         26.5004
  19694151.7124   -6001680.14849  -4656792.86548                  19694149.5754
        51.5004         41.0004
  23362015.2904   -6145939.28149  -4773469.16846                  23362014.4934
        43.0004         24.2504
  22787888.1184   -9012792.28949  -6995766.80446                  22787888.4114
        42.0004         22.5004
 04  7  6 20 33 29.9970000  0  7G11G14G20G22G25G30G 1
  20925925.0174   -6540803.90249  -5075601.34147                  20925922.7044
        50.5004         35.5004
  21753946.0094    -848209.16049   -664409.12847                  21753944.1574
        46.7504         30.0004
  22954606.9464   -9581719.08249  -7456473.84946                  22954605.6304
        41.5004         22.0004
  23029058.3214    -719753.94549   -564146.95547                  23029056.4424
        44.0004         27.7504
  19688471.6574   -6031529.02349  -4680051.72248                  19688469.7784
        51.2504         40.7504
  23356023.3764   -6177425.67249  -4798003.98346                  23356023.3924
        43.2504         23.7504
  22778258.2674   -9063396.14849  -7035198.30746                  22778259.1264
        42.0004         22.5004
 04  7  6 20 33 39.9970000  0  7G11G14G20G22G25G30G 1
  20919716.0014   -6573432.77749  -5101026.44747                  20919713.6854
        50.5004         36.0004
  21752786.8534    -854301.43749   -669156.38147                  21752784.7314
        47.7504         30.7504
  22943451.5794   -9640341.14149  -7502153.35046                  22943450.1614
        41.2504         22.7504
  23028280.2044    -723841.89149   -567332.39047                  23028277.9624
        44.7504         26.7504
  19682800.1424   -6061334.62149  -4703276.86748                  19682797.6534
        51.5004         41.2504
  23350039.1424   -6208872.75849  -4822508.18646                  23350038.7204
        42.0004         23.5004
  22768629.4784   -9113996.85249  -7074627.39646                  22768629.9384
        43.2504         23.7504
 04  7  6 20 33 49.9970000  0  7G11G14G20G22G25G30G 1
  20913515.9464   -6606016.16049  -5126416.10447                  20913513.3724
        50.2504         35.5004
  21751626.0174    -860402.65249   -673910.57947                  21751623.7044
        47.0004         31.5004
  22932293.6494   -9698976.95749  -7547843.57546                  22932292.3414
        41.5004         22.0004
  23027503.6034    -727922.55549   -570512.18247                  23027502.2714
        44.7504         27.5004
  19677136.3214   -6091095.85549  -4726467.43548                  19677134.3414
        51.0004         41.7504
  23344062.4854   -6240279.45749  -4846980.96446                  23344062.4194
        42.0004         22.7504
  22759001.3534   -9164593.33649  -7114053.23146                  22759001.6344
        43.0004         21.5004
 04  7  6 20 33 59.9970000  0  7G11G14G20G22G25G30G 1
  20907324.4854   -6638551.99649  -5151768.69347                  20907321.9234
        49.7504         35.2504
  21750463.5954    -866510.78549   -678670.16047                  21750461.2434
        47.0004         31.0004
  22921133.8214   -9757624.45749  -7593542.89846                  22921132.0244
        41.0004         22.7504
  23026728.9074    -731993.91449   -573684.70947                  23026726.8414
        44.7504         27.0004
  19671481.8374   -6120810.80549  -4749621.92948                  19671479.9354
        51.0004         41.5004
  23338094.7744   -6271643.70749  -4871420.61346                  23338093.5874
        43.5004         22.7504
  22749374.7284   -9215183.58649  -7153474.17146                  22749374.5404
        43.7504         22.0004
 04  7  6 20 34  9.9970000  0  7G11G14G20G22G25G30G 1
  20901141.8534   -6671040.91449  -5177084.74047                  20901139.3844
        50.0004         34.7504
  21749300.0244    -872626.50449   -683435.65547                  21749297.5284
        47.5004         30.7504
  22909970.4854   -9816284.07449  -7639251.64646                  22909969.0564
        42.0004         22.7504
  23025955.9854    -736056.59449   -576850.44846                  23025953.5634
        43.7504         25.2504
  19665836.4934   -6150480.03149  -4772740.81148                  19665834.1734
        51.0004         41.0004
  23332133.4704   -6302966.00849  -4895827.59046                  23332133.3564
        43.7504         24.0004
  22739748.4464   -9265768.19549  -7192890.70446                  22739748.2674
        44.5004         22.0004
 04  7  6 20 34 19.9970000  0  7G11G14G20G22G25G30G 1
  20894968.0564   -6703484.14549  -5202365.18847                  20894965.5364
        50.0004         35.5004
  21748134.2514    -878751.04349   -688208.04247                  21748131.6064
        47.0004         30.5004
  22898805.6264   -9874957.05549  -7684970.83546                  22898804.6064
        42.2504         22.5004
  23025183.6964    -740111.88349   -580010.41747                  23025181.9704
        44.2504         26.7504
  19660198.7354   -6180104.80949  -4795825.05048                  19660196.5834
        50.7504         40.5004
  23326181.3374   -6334247.57849  -4920202.83646                  23326180.8214
        43.0004         22.5004
  22730123.4704   -9316348.46149  -7232303.86946                  22730123.1224
        44.2504         22.5004
 04  7  6 20 34 29.9970000  0  7G11G14G20G22G25G30G 1
  20888803.0714   -6735881.94149  -5227610.23147                  20888800.7044
        50.2504         36.0004
  21746966.8604    -884884.64849   -692987.48147                  21746964.3924
        47.5004         29.5004
  22887638.0484   -9933643.59849  -7730700.60246                  22887636.3764
        42.2504         22.7504
  23024414.0014    -744160.00849   -583164.82247                  23024411.6774
        44.5004         27.0004
  19654569.4624   -6209685.38749  -4818874.84248                  19654567.3414
        51.0004         41.0004
  23320236.0874   -6365488.63749  -4944546.49046                  23320236.0244
        43.5004         22.7504
  22720499.2204   -9366924.59449  -7271713.78846                  22720498.5914
        44.5004         22.7504
 04  7  6 20 34 39.9970000  0  7G11G14G20G22G25G30G 1
  20882646.9384   -6768232.13749  -5252818.17147                  20882644.6614
        50.5004         35.5004
  21745798.6264    -891025.30149   -697772.40347                  21745795.5214
        47.5004         30.2504
  22876468.3844   -9992341.53949  -7776439.21546                  22876467.2784
        43.0004         25.0004
  23023645.5094    -748198.94549   -586312.07347                  23023643.2044
        45.0004         26.2504
  19648949.2824   -6239219.68449  -4841888.58348                  19648947.7044
        51.2504         40.7504
  23314299.3684   -6396687.04849  -4968856.96646                  23314299.5674
        43.0004         25.0004
  22710875.9314   -9417494.51249  -7311118.92646                  22710875.8604
        44.0004         24.5004
 04  7  6 20 34 49.9970000  0  7G11G14G20G22G25G30G 1
  20876499.8604   -6800535.13349  -5277989.33947                  20876497.7244
        50.5004         36.0004
  21744628.1654    -897173.39549   -702563.13347                  21744625.4424
        47.2504         30.5004
  22865296.8844  -10051051.20749  -7822187.00546                  22865294.2124
        42.5004         25.0004
  23022879.2674    -752228.96949   -589452.35247                  23022876.4034
        45.0004         26.7504
  19643338.1654   -6268708.11349  -4864866.56848                  19643335.7044
        50.7504         41.0004
  23308371.0954   -6427843.15249  -4993134.42646                  23308370.1384
        41.7504         24.0004
  22701254.1814   -9468058.58649  -7350519.48746                  22701253.0994
        45.0004         22.7504
 04  7  6 20 34 59.9970000  0  7G11G14G20G22G25G30G 1
  20870361.8684   -6832790.34849  -5303123.27947                  20870359.6734
        49.5004         36.0004
  21743457.0634    -903328.46149   -707359.28747                  21743454.1104
        46.5004         30.7504
  22854121.8994  -10109771.92649  -7867943.41347                  22854120.7784
        43.0004         26.0004
  23022113.5714    -756249.56249   -592585.33547                  23022110.8764
        45.0004         27.2504
  19637735.2594   -6298150.08249  -4887808.36648                  19637733.2674
        50.7504         41.2504
  23302450.0014   -6458956.36349  -5017378.51146                  23302449.8334
        42.2504         22.7504
  22691633.7594   -9518616.23049  -7389915.03146                  22691632.9074
        45.0004         22.7504
 04  7  6 20 35  9.9970000  0  7G11G14G20G22G25G30G 1
  20864232.5244   -6865000.40649  -5328222.01547                  20864230.6884
        49.7504         35.5004
  21742284.2744    -909493.15649   -712162.94647                  21742280.6144
        47.0004         31.5004
  22842945.9624  -10168506.47349  -7913710.55046                  22842943.9704
        43.5004         25.0004
  23021349.7354    -760263.50049   -595713.11447                  23021347.1654
        45.0004         27.5004
  19632141.2354   -6327548.40249  -4910716.14448                  19632138.9814
        51.0004         41.2504
  23296536.7354   -6490029.18749  -5041591.05546                  23296536.8454
        43.0004         24.0004
  22682013.5714   -9569170.19949  -7429307.71046                  22682012.7314
        45.0004         24.0004
 04  7  6 20 35 19.9970000  0  7G11G14G20G22G25G30G 1
  20858111.8134   -6897164.98849  -5353285.32047                  20858109.9664
        50.0004         35.7504
  21741109.1344    -915667.04349   -716973.77747                  21741106.0244
        46.7504         31.2504
  22831765.8534  -10227254.19549  -7959487.96646                  22831764.2244
        43.7504         25.5004
  23020587.2904    -764270.25049   -598835.27747                  23020584.9664
        45.0004         26.0004
  19626555.1344   -6356902.53149  -4933589.47648                  19626552.9664
        51.0004         41.2504
  23290632.1264   -6521061.30549  -5065771.96646                  23290631.2714
        42.2504         25.5004
  22672393.7124   -9619719.97749  -7468697.12746                  22672393.4074
        45.0004         24.5004
 04  7  6 20 35 29.9970000  0  7G11G14G20G22G25G30G 1
  20851999.5484   -6929284.28949  -5378313.36447                  20851997.8454
        49.7504         36.0004
  21739932.4544    -921850.40249   -721791.99147                  21739929.2434
        47.0004         30.2504
  22820584.4234  -10286015.38749  -8005275.89946                  22820582.3994
        42.5004         24.5004
  23019826.2284    -768270.10949   -601952.07046                  23019823.8414
        45.5004         25.5004
  19620977.2354   -6386212.78549  -4956428.63548                  19620975.3104
        51.2504         41.0004
  23284733.7284   -6552052.84049  -5089921.17646                  23284734.0054
        42.5004         24.5004
  22662775.4704   -9670265.85949  -7508083.53546                  22662774.9784
        44.0004         25.5004
 04  7  6 20 35 39.9970000  0  7G11G14G20G22G25G30G 1
  20845896.4934   -6961356.48049  -5403304.67947                  20845894.5994
        50.0004         36.0004
  21738754.2434    -928041.46149   -726616.19447                  21738750.9584
        47.0004         30.0004
  22809399.8534  -10344788.13749  -8051072.83046                  22809398.0134
        41.5004         24.7504
  23019066.7124    -772261.19549   -605062.03747                  23019064.2594
        44.0004         26.7504
  19615408.3994   -6415477.37149  -4979232.20848                  19615406.6344
        51.0004         41.2504
  23278845.2594   -6583001.95749  -5114037.37647                  23278844.2044
        43.2504         26.5004
  22653157.5244   -9720806.02749  -7547465.45046                  22653157.4704
        44.7504         25.0004
 04  7  6 20 35 49.9970000  0  7G11G14G20G22G25G30G 1
  20839802.1424   -6993381.85549  -5428259.52147                  20839800.4704
        50.2504         35.7504
  21737574.9784    -934240.57849   -731446.68547                  21737572.0214
        47.5004         31.0004
  22798213.6814  -10403572.75449  -8096879.00947                  22798212.0284
        42.2504         26.0004
  23018308.6574    -776243.92249   -608165.49647                  23018307.2904
        44.2504         26.0004
  19609848.1494   -6444696.61749  -5002000.44748                  19609846.4234
        50.5004         41.0004
  23272963.7434   -6613908.84849  -5138120.70946                  23272962.9074
        43.7504         25.5004
  22643541.5324   -9771340.81249  -7586843.20546                  22643541.1384
        45.5004         25.2504
 04  7  6 20 35 59.9970000  0  7G11G14G20G22G25G30G 1
  20833717.0954   -7025360.38349  -5453177.85147                  20833715.2514
        50.0004         36.0004
  21736393.7124    -940447.69949   -736283.41547                  21736390.8964
        47.5004         30.2504
  22787024.9314  -10462369.15249  -8142694.34147                  22787023.3214
        42.0004         26.2504
  23017552.6104    -780218.12549   -611262.29847                  23017550.4544
        44.0004         26.7504
  19604296.7434   -6473870.50049  -5024733.33948                  19604294.5834
        51.0004         41.5004
  23267090.5564   -6644773.57449  -5162171.09646                  23267089.8924
        43.5004         24.2504
  22633926.2284   -9821870.18049  -7626216.66647                  22633926.1814
        45.7504         26.7504
 04  7  6 20 36  9.9970000  0  7G11G14G20G22G25G30G 1
  20827640.5484   -7057292.93449  -5478060.37147                  20827638.5324
        50.2504         36.5004
  21735210.2674    -946663.68049   -741127.03747                  21735208.1494
        46.7504         31.5004
  22775834.1654  -10521178.15649  -8188519.55446                  22775832.0524
        42.2504         24.5004
  23016797.2354    -784184.78149   -614353.21646                  23016795.6814
        43.2504         25.5004
  19598753.5634   -6502999.87149  -5047431.55548                  19598751.7554
        50.5004         41.7504
  23261224.4464   -6675596.83649  -5186189.23746                  23261224.1064
        42.2504         25.2504
  22624311.6884   -9872395.07449  -7665586.69447                  22624311.4424
        44.7504         26.0004
 04  7  6 20 36 19.9970000  0  7G11G14G20G22G25G30G 1
  20821573.1494   -7089178.35549  -5502906.13847                  20821571.0794
        50.5004         36.2504
  21734025.9074    -952887.53549   -745976.82347                  21734023.7554
        47.5004         31.0004
  22764640.7124  -10579998.59449  -8234353.61946                  22764639.1494
        41.2504         24.0004
  23016044.7434    -788142.80549   -617437.41346                  23016042.5794
        43.0004         25.5004
  19593219.0014   -6532083.65249  -5070094.24248                  19593217.1344
        50.5004         41.2504
  23255367.4234   -6706377.51649  -5210174.16046                  23255366.5834
        43.2504         25.5004
  22614697.7904   -9922914.33249  -7704952.33647                  22614697.7044
        45.0004         26.2504
 04  7  6 20 36 29.9970000  0  7G11G14G20G22G25G30G 1
  20815514.4314   -7121016.73449  -5527715.26847                  20815511.9744
        50.0004         35.5004
  21732840.2824    -959119.23849   -750832.69547                  21732838.2944
        47.5004         30.5004
  22753445.5954  -10638830.37149  -8280196.56546                  22753443.9384
        39.2504         24.2504
  23015293.1104    -792092.13349   -620514.84346                  23015291.2714
        43.5004         25.2504
  19587693.5404   -6561121.87549  -5092721.40848                  19587691.2784
        50.7504         41.0004
  23249517.8064   -6737115.65649  -5234125.94146                  23249517.8104
        42.7504         24.7504
  22605085.6344   -9973427.91849  -7744313.53546                  22605085.9784
        45.0004         25.5004
 04  7  6 20 36 39.9970000  0  7G11G14G20G22G25G30G 1
  20809463.7284   -7152812.87549  -5552491.48547                  20809461.7744
        50.0004         36.0004
  21731652.2744    -965363.66449   -755698.49847                  21731650.1964
        47.5004         30.7504
  22742247.1104  -10697678.27349  -8326052.05346                  22742245.6464
        41.7504         25.5004
  23014541.8374    -796037.68749   -623589.34347                  23014540.3174
        43.7504         26.5004
  19582175.1734   -6590119.38349  -5115316.87948                  19582173.1814
        51.2504         41.5004
  23243676.3064   -6767815.96949  -5258048.27546                  23243675.4784
        43.2504         23.7504
  22595472.8534  -10023940.72749  -7783674.15747                  22595473.3104
        44.2504         26.5004
 04  7  6 20 36 49.9970000  0  7G11G14G20G22G25G30G 1
  20803422.0794   -7184562.13749  -5577231.15847                  20803419.5914
        50.5004         35.0004
  21730462.5564    -971616.29349   -760570.68847                  21730460.5244
        47.5004         29.5004
  22731046.4384  -10756537.69149  -8371916.48146                  22731045.1614
        40.0004         25.2504
  23013793.0094    -799974.80549   -626657.27047                  23013790.9934
        43.2504         26.2504
  19576665.8064   -6619071.67649  -5137877.08948                  19576663.8294
        50.5004         41.0004
  23237841.9704   -6798473.71949  -5281937.41046                  23237841.5994
        43.5004         24.5004
  22585861.6964  -10074448.07449  -7823030.45947                  22585862.3064
        44.7504         26.5004
 04  7  6 20 36 59.9970000  0  7G11G14G20G22G25G30G 1
  20797388.9704   -7216264.73049  -5601934.49747                  20797386.8644
        50.5004         36.2504
  21729271.1104    -977877.30149   -765449.40447                  21729269.3764
        47.0004         30.0004
  22719844.2354  -10815408.73049  -8417789.99446                  22719842.5674
        40.0004         24.7504
  23013045.1964    -803903.83649   -629718.85446                  23013043.5674
        43.0004         25.2504
  19571164.7124   -6647979.00449  -5160402.28848                  19571162.8564
        51.0004         41.0004
  23232016.0874   -6829089.23449  -5305793.65046                  23232015.8414
        43.2504         25.2504
  22576252.0094  -10124950.28549  -7862382.81147                  22576251.7984
        44.5004         26.7504
 04  7  6 20 37  9.9970000  0  7G11G14G20G22G25G30G 1
  20791364.9314   -7247921.84449  -5626602.36347                  20791362.6814
        49.7504         36.5004
  21728077.6964    -984147.87549   -770335.57947                  21728076.5834
        46.5004         30.5004
  22708638.5484  -10874292.56249  -8463673.48847                  22708636.8994
        40.0004         25.7504
  23012299.1184    -807825.78949   -632774.99546                  23012297.0794
        42.5004         24.5004
  19565672.4624   -6676842.43449  -5182893.26348                  19565670.6574
        51.0004         41.0004
  23226197.9314   -6859663.44149  -5329617.69147                  23226197.6064
        43.7504         25.7504
  22566642.3534  -10175448.44149  -7901731.98447                  22566642.6034
        44.0004         26.0004
 04  7  6 20 37 19.9970000  0  7G11G14G20G22G25G30G 1
  20785349.4314   -7279533.65249  -5651234.95447                  20785347.3534
        50.2504         36.2504
  21726882.2824    -990428.20749   -775229.35547                  21726881.3174
        46.7504         30.5004
  22697430.7984  -10933189.25049  -8509567.00447                  22697429.5524
        38.7504         26.2504
  23011553.7824    -811740.96549   -635825.81146                  23011551.7554
        43.0004         25.2504
  19560188.5794   -6705662.21149  -5205350.23948                  19560186.3994
        50.0004         41.2504
  23220387.7514   -6890196.65249  -5353409.81047                  23220387.5094
        44.0004         25.7504
  22557032.6184  -10225942.73449  -7941078.14847                  22557033.8564
        43.0004         27.2504
 04  7  6 20 37 29.9970000  0  7G11G14G20G22G25G30G 1
  20779342.6494   -7311099.70349  -5675831.88147                  20779340.4194
        50.0004         36.0004
  21725685.6494    -996717.94949   -780130.46247                  21725684.3994
        46.2504         30.0004
  22686220.8134  -10992098.33649  -8555470.17247                  22686219.0834
        40.2504         26.2504
  23010810.3454    -815648.90249   -638870.97647                  23010808.2514
        43.5004         26.2504
  19554712.5794   -6734437.94949  -5227772.88348                  19554710.2314
        50.5004         41.2504
  23214585.1034   -6920688.47349  -5377169.66446                  23214584.7474
        44.0004         25.5004
  22547425.2824  -10276432.81649  -7980421.03047                  22547425.7674
        43.0004         27.7504
 04  7  6 20 37 39.9970000  0  7G11G14G20G22G25G30G 1
  20773344.6344   -7342620.75049  -5700393.74147                  20773342.2594
        50.5004         35.2504
  21724486.7824   -1003017.85949   -785039.49647                  21724485.3684
        46.5004         29.2504
  22675008.2434  -11051020.54349  -8601383.55346                  22675006.7314
        40.5004         24.5004
  23010068.2284    -819550.34049   -641911.06046                  23010066.4814
        43.5004         24.0004
  19549244.5484   -6763170.41049  -5250161.80448                  19549242.7164
        50.7504         41.0004
  23208790.2284   -6951139.46149  -5400897.68146                  23208790.5794
        42.5004         24.5004
  22537817.3374  -10326919.43749  -8019761.20646                  22537818.3764
        43.0004         24.7504
 04  7  6 20 37 49.9970000  0  7G11G14G20G22G25G30G 1
  20767354.7984   -7374096.51649  -5724920.31447                  20767352.4894
        50.2504         34.7504
  21723286.3134   -1009327.73049   -789956.28947                  21723284.7314
        46.5004         30.7504
  22663793.0874  -11109955.53549  -8647306.89646                  22663791.8534
        41.0004         25.5004
  23009326.7674    -823445.01249   -644945.92446                  23009324.9624
        42.7504         25.0004
  19543785.5014   -6791859.34849  -5272516.82548                  19543783.2354
        50.0004         40.7504
  23203003.2124   -6981549.28549  -5424593.67446                  23203003.7044
        43.7504         24.5004
  22528210.6344  -10377402.23449  -8059098.43047                  22528211.7204
        42.2504         26.5004
 04  7  6 20 37 59.9970000  0  7G11G14G20G22G25G30G 1
  20761373.8134   -7405525.59849  -5749410.48447                  20761371.5834
        49.2504         34.5004
  21722083.6264   -1015646.15649   -794879.71247                  21722082.1814
        46.0004         29.7504
  22652576.1344  -11168901.81249  -8693239.00646                  22652574.7514
        41.0004         24.5004
  23008587.2674    -827331.52749   -647974.38846                  23008585.3604
        42.7504         24.5004
  19538334.9464   -6820503.45749  -5294836.87948                  19538332.5994
        50.5004         40.5004
  23197224.6034   -7011916.60949  -5448256.45746                  23197225.0014
        44.0004         24.0004
  22518605.1884  -10427879.94949  -8098431.60646                  22518606.1854
        41.5004         23.5004
 04  7  6 20 38  9.9970000  0  7G11G14G20G22G25G30G 1
  20755401.7744   -7436908.24649  -5773864.53247                  20755399.9464
        50.0004         35.5004
  21720879.8214   -1021973.40649   -799810.07147                  21720877.6614
        45.5004         30.7504
  22641357.0564  -11227859.62549  -8739180.15647                  22641355.2554
        42.5004         26.0004
  23007849.4934    -831210.18749   -650996.78646                  23007847.2674
        43.5004         24.5004
  19532892.4314   -6849102.92649  -5317122.21048                  19532890.3214
        51.5004         40.7504
  23191454.3134   -7042241.64849  -5471886.39147                  23191454.1184
        43.5004         26.2504
  22509000.3844  -10478352.80949  -8137761.11846                  22509001.5014
        42.0004         24.5004
 04  7  6 20 38 19.9970000  0  7G11G14G20G22G25G30G 1
  20749439.0714   -7468244.61349  -5798282.47747                  20749436.8724
        50.2504         35.0004
  21719674.1654   -1028309.74649   -804747.48247                  21719672.1814
        45.2504         30.0004
  22630135.2124  -11286829.07449  -8785130.37646                  22630133.5014
        42.5004         25.5004
  23007112.8454    -835081.15249   -654013.13746                  23007111.0834
        44.2504         25.0004
  19527458.6814   -6877657.90249  -5339372.82848                  19527456.5324
        51.2504         40.5004
  23185691.6884   -7072524.48449  -5495483.38146                  23185691.2204
        43.7504         25.5004
  22499396.6264  -10528820.94149  -8177086.87846                  22499397.2714
        41.5004         24.2504
 04  7  6 20 38 29.9970000  0  7G11G14G20G22G25G30G 1
  20743484.1574   -7499536.62549  -5822665.87547                  20743481.8334
        50.0004         35.7504
  21718466.0634   -1034656.98049   -809693.40447                  21718464.2394
        45.7504         30.7504
  22618911.2594  -11345811.98049  -8831091.06347                  22618909.3214
        43.0004         26.0004
  23006377.2354    -838946.31649   -657025.00547                  23006375.1964
        44.0004         27.0004
  19522032.7354   -6906170.30549  -5361590.28548                  19522030.6654
        51.0004         41.5004
  23179937.2674   -7102766.97349  -5519048.96146                  23179936.1924
        42.5004         23.0004
  22489793.5244  -10579286.21149  -8216410.43546                  22489794.1184
        40.7504         24.2504
 04  7  6 20 38 39.9970000  0  7G11G14G20G22G25G30G 1
  20737538.6424   -7530781.15249  -5847012.26447                  20737536.5834
        49.7504         35.7504
  21717256.6264   -1041012.09849   -814645.44047                  21717254.4034
        45.7504         30.5004
  22607685.1264  -11404805.15649  -8877059.76746                  22607683.3804
        42.7504         25.5004
  23005643.3534    -842802.50049   -660029.83147                  23005641.2594
        44.2504         25.7504
  19516615.6964   -6934637.08649  -5383772.19148                  19516613.5244
        51.2504         41.5004
  23174189.6574   -7132965.87949  -5542580.54746                  23174189.2744
        42.7504         24.5004
  22480191.4074  -10629745.52049  -8255729.31946                  22480192.0284
        40.5004         25.0004
 04  7  6 20 38 49.9970000  0  7G11G14G20G22G25G30G 1
  20731602.1654   -7561978.08649  -5871321.55247                  20731599.6734
        50.2504         34.7504
  21716046.0564   -1047374.98849   -819603.55147                  21716043.4114
        46.5004         30.5004
  22596457.2744  -11463808.48049  -8923036.37646                  22596455.7044
        43.5004         24.5004
  23004911.7284    -846649.73849   -663027.71746                  23004909.4034
        44.5004         25.2504
  19511207.2904   -6963058.11349  -5405918.43248                  19511205.4354
        51.0004         40.5004
  23168451.5714   -7163121.14149  -5566078.17547                  23168450.8494
        43.7504         25.7504
  22470590.8064  -10680198.85549  -8295043.60046                  22470590.9854
        41.0004         24.5004
 04  7  6 20 38 59.9970000  0  7G11G14G20G22G25G30G 1
  20725674.6264   -7593126.81249  -5895593.29047                  20725672.3214
        49.7504         35.2504
  21714833.9704   -1053745.07449   -824567.26347                  21714830.9974
        45.7504         30.2504
  22585226.9784  -11522821.37949  -8969020.44046                  22585225.6694
        42.7504         25.2504
  23004181.1494    -850487.44949   -666018.18146                  23004178.5874
        44.5004         25.2504
  19505807.7434   -6991432.86749  -5428028.63448                  19505805.5754
        50.5004         41.2504
  23162721.6574   -7193232.19949  -5589541.33646                  23162720.9234
        42.7504         24.7504
  22460991.1884  -10730645.58649  -8334352.70646                  22460991.5794
        40.2504         25.0004
 04  7  6 20 39  9.9970000  0  7G11G14G20G22G25G30G 1
  20719756.6104   -7624226.79749  -5919827.03547                  20719754.3534
        49.7504         35.0004
  21713620.8214   -1060121.80949   -829536.14147                  21713617.6654
        46.2504         30.5004
  22573995.9314  -11581843.12949  -9015011.37546                  22573994.1224
        43.2504         23.0004
  23003453.0634    -854315.05549   -669000.75046                  23003450.5174
        45.0004         25.5004
  19500417.3764   -7019760.84449  -5450102.36948                  19500415.1224
        51.2504         40.7504
  23157000.5954   -7223298.29349  -5612969.45946                  23156999.5604
        43.5004         22.5004
  22451392.4234  -10781085.13749  -8373656.20446                  22451393.3414
        41.0004         25.0004
 04  7  6 20 39 19.9970000  0  7G11G14G20G22G25G30G 1
  20713847.3994   -7655277.78949  -5944022.63247                  20713845.4704
        50.2504         35.5004
  21712405.7354   -1066504.87549   -834509.99047                  21712403.3104
        46.5004         29.7504
  22562762.7904  -11640873.32049  -9061008.91846                  22562760.8534
        43.7504         22.5004
  23002726.8374    -858132.13749   -671975.14946                  23002724.2984
        45.0004         25.5004
  19495035.5174   -7048041.67649  -5472139.39148                  19495033.6034
        51.5004         41.5004
  23151287.2124   -7253319.09449  -5636362.29246                  23151286.7004
        43.5004         23.7504
  22441795.0564  -10831517.16449  -8412953.85746                  22441796.1854
        42.0004         25.5004
 04  7  6 20 39 29.9970000  0  7G11G14G20G22G25G30G 1
  20707948.6184   -7686279.09849  -5968179.49747                  20707946.0874
        49.7504         35.5004
  21711189.8684   -1072893.73049   -839488.33247                  21711187.5914
        46.5004         29.7504
  22551527.9784  -11699911.31649  -9107012.52346                  22551526.4854
        43.5004         24.0004
  23002002.1884    -861938.17249   -674940.89546                  23002000.2004
        45.0004         24.2504
  19489662.8924   -7076274.81249  -5494139.23348                  19489660.8684
        51.5004         41.0004
  23145583.5954   -7283294.07849  -5659719.40446                  23145582.8374
        43.0004         24.0004
  22432200.1734  -10881941.05549  -8452245.16746                  22432200.3764
        41.2504         24.7504
 04  7  6 20 39 39.9970000  0  7G11G14G20G22G25G30G 1
  20702058.2284   -7717232.39849  -5992298.96347                  20702056.0754
        50.0004         35.7504
  21709973.2434   -1079290.00849   -844472.46947                  21709970.3534
        46.7504         30.0004
  22540291.9074  -11758958.73449  -9153023.49246                  22540290.0994
        43.5004         23.0004
  23001279.8294    -865734.74649   -677899.29647                  23001277.6344
        45.0004         25.7504
  19484299.2354   -7104461.84049  -5516103.15948                  19484297.0834
        51.5004         41.5004
  23139887.5484   -7313224.66849  -5683041.92646                  23139887.1344
        42.7504         24.2504
  22422605.8924  -10932358.49249  -8491531.46846                  22422606.3534
        41.7504         25.5004
 04  7  6 20 39 49.9970000  0  7G11G14G20G22G25G30G 1
  20696177.5014   -7748136.42649  -6016380.02447                  20696175.5634
        50.0004         36.0004
  21708754.4384   -1085692.48049   -849461.41347                  21708752.0954
        46.5004         30.0004
  22529053.5174  -11818014.28149  -9199040.81546                  22529051.7594
        44.2504         22.7504
  23000559.1884    -869520.62149   -680849.33146                  23000557.4354
        45.0004         23.0004
  19478944.5174   -7132601.54349  -5538030.19848                  19478942.2164
        52.0004         41.7504
  23134201.3294   -7343109.65649  -5706328.92746                  23134200.3414
        43.2504         25.0004
  22413013.8374  -10982768.18449  -8530811.73347                  22413013.4854
        42.0004         26.0004
 04  7  6 20 39 59.9970000  0  7G11G14G20G22G25G30G 1
  20690306.5014   -7778989.61349  -6040421.46947                  20690304.0134
        49.0004         36.2504
  21707535.4154   -1092099.71149   -854454.05947                  21707532.8844
        46.2504         30.2504
  22517814.6494  -11877076.35249  -9245063.19846                  22517812.5754
        42.7504         22.5004
  22999841.3604    -873294.29749   -683789.90146                  22999838.6854
        44.2504         23.5004
  19473598.7674   -7160692.54749  -5559919.27648                  19473596.7674
        51.0004         41.5004
  23128523.3534   -7372947.52049  -5729579.24046                  23128522.1694
        43.0004         23.5004
  22403423.0014  -11033168.63749  -8570084.74847                  22403422.5564
        41.0004         25.7504
 04  7  6 20 40  9.9970000  0  7G11G14G20G22G25G30G 1
  20684445.1654   -7809790.30149  -6064422.01247                  20684443.1224
        49.5004         36.0004
  21706315.6964   -1098509.98849   -859449.11947                  21706313.6884
        46.7504         30.7504
  22506574.3134  -11936143.21549  -9291089.28546                  22506572.7434
        43.5004         24.2504
  22999125.7284    -877054.16449   -686719.66846                  22999123.2904
        44.7504         22.5004
  19468262.9074   -7188733.12549  -5581769.08148                  19468260.6774
        51.0004         41.7504
  23122854.1184   -7402736.45349  -5752791.35446                  23122853.4894
        42.5004         22.2504
  22393833.7044  -11083558.21949  -8609349.34947                  22393834.2204
        42.0004         26.2504
 04  7  6 20 40 19.9970000  0  7G11G14G20G22G25G30G 1
  20678593.5174   -7840540.19549  -6088382.97147                  20678591.6064
        50.0004         35.0004
  21705094.6654   -1104924.91849   -864447.76747                  21705093.1654
        47.0004         30.0004
  22495332.9074  -11995216.37949  -9337120.28346                  22495332.0214
        42.7504         22.5004
  22998413.0094    -880801.78949   -689639.87246                  22998410.2474
        44.7504         22.5004
  19462936.2594   -7216724.93049  -5603580.87748                  19462934.2124
        51.7504         40.7504
  23117194.1264   -7432478.12149  -5775966.70746                  23117193.5324
        42.7504         22.5004
  22384247.0484  -11133938.46949  -8648606.65947                  22384246.5324
        43.5004         27.2504
 04  7  6 20 40 29.9970000  0  7G11G14G20G22G25G30G 1
  20672751.5404   -7871241.34049  -6112305.94847                  20672749.1464
        49.7504         36.0004
  21703872.6344   -1111346.71149   -869451.78847                  21703870.8644
        46.5004         30.2504
  22484090.4314  -12054298.00449  -9383157.91646                  22484088.3644
        43.5004         25.0004
  22997701.1344    -884539.36749   -692552.31846                  22997698.6064
        44.7504         22.5004
  19457618.3534   -7244670.08249  -5625356.32448                  19457616.2984
        51.7504         41.2504
  23111543.3134   -7462174.56249  -5799106.81046                  23111542.6424
        43.0004         24.2504
  22374661.0954  -11184311.59849  -8687858.43347                  22374660.9464
        43.2504         26.0004
 04  7  6 20 40 39.9970000  0  7G11G14G20G22G25G30G 1
  20666918.8454   -7901892.83649  -6136190.22947                  20666916.3254
        48.7504         35.7504
  21702649.6264   -1117774.51249   -874460.45747                  21702648.0014
        46.5004         29.5004
  22472846.2434  -12113387.13749  -9429201.39246                  22472844.2744
        42.5004         23.2504
  22996992.0094    -888265.98449   -695456.19946                  22996989.4464
        44.5004         22.5004
  19452309.6734   -7272567.75049  -5647094.75848                  19452307.6774
        51.7504         41.0004
  23105901.3764   -7491824.89849  -5822210.93046                  23105901.1144
        43.5004         24.7504
  22365077.1574  -11234676.73449  -8727103.92146                  22365076.6344
        43.5004         25.5004
 04  7  6 20 40 49.9970000  0  7G11G14G20G22G25G30G 1
  20661096.1574   -7932492.31249  -6160033.97947                  20661093.5134
        49.5004         36.0004
  21701425.6964   -1124206.00049   -879472.01647                  21701424.1924
        46.7504         30.2504
  22461601.3064  -12172481.35549  -9475248.79246                  22461599.2434
        43.0004         25.0004
  22996285.3604    -891979.30149   -698349.71246                  22996283.0674
        44.5004         22.5004
  19447010.3134   -7300415.60549  -5668794.39048                  19447008.1424
        51.2504         42.2504
  23100268.5094   -7521426.77349  -5845277.34846                  23100268.0214
        43.5004         23.2504
  22355494.8994  -11285031.49249  -8766341.40847                  22355494.4074
        44.2504         26.2504
 04  7  6 20 40 59.9970000  0  7G11G14G20G22G25G30G 1
  20655282.7984   -7963039.36349  -6183836.88747                  20655280.4624
        49.5004         36.0004
  21700201.5244   -1130640.71949   -884486.09347                  21700199.7674
        47.0004         30.5004
  22450354.7354  -12231580.13749  -9521299.77546                  22450353.0324
        43.0004         24.7504
  22995581.5874    -895678.83249   -701232.51346                  22995579.1574
        44.0004         22.2504
  19441720.8064   -7328213.13749  -5690454.79748                  19441718.7474
        51.2504         42.0004
  23094644.2824   -7550979.67649  -5868305.51746                  23094643.8764
        43.2504         25.5004
  22345915.0634  -11335375.42649  -8805570.43846                  22345914.0094
        43.7504         24.5004
 04  7  6 20 41  9.9970000  0  7G11G14G20G22G25G30G 1
  20649479.8134   -7993533.29749  -6207598.38747                  20649477.4034
        48.7504         35.2504
  21698976.7354   -1137077.97349   -889502.14247                  21698974.7864
        46.7504         30.5004
  22439108.3454  -12290682.75849  -9567353.74346                  22439106.1224
        43.0004         24.5004
  22994880.0564    -899363.91849   -704103.99446                  22994877.5174
        44.5004         22.5004
  19436440.6264   -7355959.81249  -5712075.58048                  19436438.5284
        51.2504         41.5004
  23089030.1884   -7580482.77049  -5891294.98846                  23089029.6344
        42.7504         22.5004
  22336337.1574  -11385707.86349  -8844790.51247                  22336336.0014
        44.5004         25.7504
 04  7  6 20 41 19.9970000  0  7G11G14G20G22G25G30G 1
  20643686.6884   -8023975.98449  -6231319.96447                  20643684.3884
        48.5004         36.0004
  21697750.7594   -1143519.68049   -894521.67247                  21697749.0714
        46.7504         29.5004
  22427860.7904  -12349790.95749  -9613412.05847                  22427857.8414
        43.5004         26.0004
  22994181.4624    -903036.43749   -706965.76446                  22994179.1184
        43.7504         22.7504
  19431170.4234   -7383657.40249  -5733658.12248                  19431167.6884
        50.7504         41.0004
  23083424.3374   -7609937.96149  -5914247.09246                  23083424.4784
        42.0004         23.0004
  22326760.6734  -11436030.67649  -8884003.05246                  22326759.7004
        43.7504         25.5004
 04  7  6 20 41 29.9970000  0  7G11G14G20G22G25G30G 1
  20637903.9074   -8054365.72749  -6255000.28747                  20637901.9074
        49.0004         34.7504
  21696524.4934   -1149964.17649   -899543.34647                  21696522.1464
        46.5004         30.0004
  22416611.5014  -12408903.01649  -9659473.41846                  22416609.6184
        43.2504         23.5004
  22993485.5324    -906694.72349   -709816.39746                  22993482.7394
        44.2504         22.7504
  19425908.9314   -7411304.35249  -5755201.19348                  19425906.8214
        51.5004         40.5004
  23077829.4074   -7639343.53149  -5937160.49346                  23077828.1264
        42.5004         22.7504
  22317186.7904  -11486342.20349  -8923206.80847                  22317185.7474
        44.5004         25.7504
 04  7  6 20 41 39.9960000  0  7G11G14G20G22G25G30G 1
  20632131.6764   -8084699.20349  -6278636.76047                  20632129.4344
        49.5004         36.0004
  21695297.5744   -1156410.52349   -904566.49147                  21695295.6914
        47.2504         30.0004
  22405363.3014  -12468012.62549  -9705532.82946                  22405361.0864
        44.0004         24.0004
  22992792.0204    -910338.14549   -712655.45446                  22992789.9384
        44.0004         22.7504
  19420658.3244   -7438897.48849  -5776702.34048                  19420655.9844
        51.5004         41.0004
  23072243.8014   -7668696.17249  -5960032.68746                  23072243.0594
        43.5004         22.0004
  22307616.1064  -11536637.04749  -8962397.58046                  22307615.2234
        44.5004         25.0004
 04  7  6 20 41 49.9960000  0  7G11G14G20G22G25G30G 1
  20626368.6994   -8114982.62149  -6302234.23947                  20626366.6954
        49.0004         35.2504
  21694070.1454   -1162860.09449   -909592.13347                  21694068.3444
        47.0004         30.5004
  22394113.4024  -12527131.66049  -9751599.56846                  22394111.3524
        43.5004         25.2504
  22992101.7704    -913967.51649   -715483.59046                  22992099.3674
        44.2504         25.0004
  19415416.3404   -7466442.55549  -5798166.01648                  19415414.6524
        51.2504         41.0004
  23066667.0434   -7698001.77749  -5982868.21246                  23066666.4264
        42.2504         24.2504
  22298046.3324  -11586925.40249  -9001583.23746                  22298045.8564
        45.0004         24.5004
 04  7  6 20 41 59.9960000  0  7G11G14G20G22G25G30G 1
  20620616.5124   -8145212.34849  -6325789.88047                  20620614.3714
        49.5004         35.7504
  21692842.8564   -1169311.73449   -914619.41047                  21692840.5274
        46.7504         31.0004
  22382862.5744  -12586253.66449  -9797668.69147                  22382860.9144
        43.5004         27.0004
  22991414.0434    -917581.97349   -718300.08446                  22991411.7274
        43.5004         25.0004
  19410184.5824   -7493936.34849  -5819589.75548                  19410182.9024
        51.0004         41.7504
  23061100.0984   -7727256.99649  -6005664.49446                  23061099.3164
        42.5004         23.5004
  22288478.8874  -11637201.72349  -9040759.62946                  22288478.5234
        44.5004         25.5004
 04  7  6 20 42  9.9960000  0  7G11G14G20G22G25G30G 1
  20614873.5434   -8175389.86749  -6349304.83047                  20614871.5864
        49.2504         35.5004
  21691614.2854   -1175766.99649   -919649.49547                  21691612.0204
        46.7504         30.2504
  22371611.2774  -12645380.02049  -9843741.13147                  22371609.7234
        43.5004         26.0004
  22990728.5354    -921182.93749   -721106.02146                  22990726.8094
        44.0004         25.2504
  19404962.2074   -7521380.22749  -5840974.59048                  19404960.0204
        51.2504         41.0004
  23055542.1214   -7756463.05649  -6028422.49946                  23055541.5904
        42.7504         23.5004
  22278913.4964  -11687467.49249  -9079927.71147                  22278912.8674
        43.7504         26.0004
 04  7  6 20 42 19.9960000  0  7G11G14G20G22G25G30G 1
  20609140.3714   -8205517.88349  -6372781.20447                  20609138.4924
        49.2504         35.5004
  21690384.6214   -1182228.57049   -924684.50947                  21690381.9264
        47.0004         30.7504
  22360358.9574  -12704513.35949  -9889819.04846                  22360356.8284
        43.0004         22.7504
  22990045.5274    -924773.09449   -723903.57846                  22990043.6064
        44.0004         23.7504
  19399748.7384   -7548776.97749  -5862322.70248                  19399746.4614
        51.0004         41.0004
  23049993.5824   -7785622.81649  -6051144.36246                  23049992.8404
        43.2504         22.5004
  22269349.8324  -11737725.36749  -9119089.66947                  22269348.9104
        43.2504         26.0004
 04  7  6 20 42 29.9960000  0  7G11G14G20G22G25G30G 1
  20603417.4734   -8235593.51649  -6396216.76947                  20603415.4264
        49.2504         36.0004
  21689154.2074   -1188693.60549   -929722.18247                  21689151.7854
        47.0004         30.7504
  22349105.2544  -12763650.70749  -9935900.09646                  22349102.6914
        42.5004         23.2504
  22989365.2464    -928349.60249   -726690.49246                  22989363.0944
        43.0004         23.7504
  19394544.8244   -7576123.66849  -5883631.81648                  19394542.5984
        51.0004         41.0004
  23044454.1134   -7814733.25449  -6073827.83446                  23044453.3014
        42.7504         23.7504
  22259787.7624  -11787972.50049  -9158243.26846                  22259787.3054
        42.7504         25.2504
 04  7  6 20 42 39.9960000  0  7G11G14G20G22G25G30G 1
  20597704.4574   -8265614.45349  -6419609.70647                  20597702.3794
        49.5004         35.0004
  21687923.7544   -1195159.72749   -934760.74947                  21687921.1174
        46.7504         30.0004
  22337850.6684  -12822789.69949  -9981982.40346                  22337849.6024
        42.5004         24.5004
  22988687.2154    -931910.10949   -729464.91946                  22988685.3524
        43.2504         22.7504
  19389350.7854   -7603418.00049  -5904900.11848                  19389348.5554
        50.7504         40.0004
  23038924.4494   -7843791.93049  -6096470.93146                  23038923.5634
        42.0004         23.5004
  22250228.5984  -11838206.50849  -9197386.61346                  22250228.6764
        42.0004         24.5004
 04  7  6 20 42 49.9960000  0  7G11G14G20G22G25G30G 1
  20592002.6294   -8295577.69149  -6442957.68647                  20592000.8564
        49.5004         36.0004
  21686693.8874   -1201623.98049   -939797.82747                  21686690.9654
        47.5004         29.5004
  22326597.6374  -12881927.27749 -10028063.60546                  22326596.2734
        42.0004         24.5004
  22988013.2464    -935451.59849   -732224.58946                  22988011.5314
        43.2504         24.2504
  19384167.5274   -7630657.05149  -5926125.34948                  19384165.3714
        51.2504         40.7504
  23033405.2384   -7872795.92249  -6119071.45246                  23033404.7034
        43.0004         25.0004
  22240671.7934  -11888424.43049  -9236517.43147                  22240672.2384
        43.0004         27.0004
 04  7  6 20 42 59.9960000  0  7G11G14G20G22G25G30G 1
  20586311.6454   -8325485.78149  -6466262.69447                  20586309.1024
        49.0004         35.5004
  21685463.9574   -1208089.01249   -944835.54347                  21685460.4924
        47.5004         29.0004
  22315343.9574  -12941066.00849 -10074145.72646                  22315342.1484
        42.2504         24.7504
  22987342.4654    -938976.69549   -734971.39846                  22987340.7734
        43.0004         24.0004
  19378994.0044   -7657843.46549  -5947309.56748                  19378991.8714
        51.0004         41.0004
  23027895.8714   -7901747.73049  -6141631.28446                  23027895.1564
        43.2504         23.5004
  22231118.4184  -11938628.92249  -9275637.76446                  22231118.6524
        41.5004         25.5004
 04  7  6 20 43  9.9960000  0  7G11G14G20G22G25G30G 1
  20580630.9264   -8355337.46549  -6489523.74347                  20580628.7074
        49.0004         35.5004
  21684233.3484   -1214553.49249   -949872.80747                  21684230.3714
        47.0004         30.0004
  22304090.2624  -13000204.51649 -10120227.69546                  22304088.3954
        42.2504         24.0004
  22986675.0594    -942484.08649   -737704.49846                  22986673.3324
        41.5004         22.5004
  19373830.9494   -7684975.89849  -5968451.72548                  19373828.5864
        51.0004         41.7504
  23022396.3714   -7930646.04349  -6164149.49646                  23022395.9384
        43.2504         24.5004
  22221567.5984  -11988818.64549  -9314746.63047                  22221568.2704
        41.5004         26.0004
 04  7  6 20 43 19.9960000  0  7G11G14G20G22G25G30G 1
  20574961.0744   -8385133.13349  -6512741.15947                  20574958.9494
        49.2504         35.5004
  21683003.1524   -1221017.93749   -954910.04947                  21683000.2314
        45.5004         29.5004
  22292836.5044  -13059343.12149 -10166309.66146                  22292834.9384
        42.0004         25.2504
  22986010.3094    -945974.21949   -740424.10346                  22986009.1764
        41.5004         22.5004
  19368678.0824   -7712054.80149  -5989552.17848                  19368675.7384
        50.5004         41.5004
  23016907.6764   -7959491.20749  -6186626.22346                  23016906.6454
        43.0004         22.5004
  22212019.8954  -12038993.94949  -9353844.25047                  22212020.2074
        41.7504         26.0004
 04  7  6 20 43 29.9960000  0  7G11G14G20G22G25G30G 1
  20569301.9264   -8414871.25849  -6535913.72447                  20569299.4924
        49.0004         35.2504
  21681773.6134   -1227480.68749   -959945.96947                  21681770.5594
        45.7504         28.5004
  22281583.1064  -13118480.22749 -10212390.50747                  22281581.4924
        42.5004         26.5004
  22985349.5354    -949445.53549   -743129.02646                  22985349.0314
        41.2504         22.5004
  19363535.5124   -7739078.65649  -6010609.71648                  19363533.6214
        50.7504         40.7504
  23011428.8164   -7988281.68049  -6209060.37146                  23011428.1724
        43.0004         22.5004
  22202474.6844  -12089153.36749  -9392929.48346                  22202475.3484
        41.5004         24.7504
 04  7  6 20 43 39.9960000  0  7G11G14G20G22G25G30G 1
  20563653.9814   -8444551.17649  -6559040.93647                  20563651.9264
        48.7504         35.5004
  21680544.3014   -1233941.15649   -964980.10347                  21680541.4184
        46.2504         29.0004
  22270329.7384  -13177615.02049 -10258469.56246                  22270328.5744
        41.2504         25.0004
  22984693.0514    -952897.40249   -745818.90946                  22984691.9694
        40.5004         22.5004
  19358403.4344   -7766046.81249  -6031623.85848                  19358401.4384
        50.5004         40.5004
  23005960.2074   -8017016.70349  -6231451.30046                  23005960.3094
        41.7504         22.5004
  22192933.0124  -12139296.18049  -9432001.74746                  22192933.2854
        40.5004         25.5004
 04  7  6 20 43 49.9960000  0  7G11G14G20G22G25G30G 1
  20558017.1064   -8474173.21949  -6582123.04247                  20558015.2194
        49.0004         34.5004
  21679315.1684   -1240399.65649   -970012.71547                  21679312.5904
        46.2504         29.5004
  22259077.4734  -13236747.83649 -10304547.05646                  22259075.7274
        42.2504         24.5004
  22984039.6994    -956330.10949   -748493.75846                  22984039.1254
        40.7504         22.5004
  19353282.1604   -7792959.66849  -6052594.91048                  19353280.3134
        50.5004         40.2504
  23000502.9184   -8045696.59049  -6253799.22546                  23000503.0394
        43.0004         22.5004
  22183393.8484  -12189422.69149  -9471061.32947                  22183394.8794
        41.0004         25.7504
 04  7  6 20 43 59.9960000  0  7G11G14G20G22G25G30G 1
  20552391.7234   -8503736.23449  -6605159.17147                  20552389.5904
        48.5004         35.5004
  21678086.9574   -1246855.02049   -975042.88947                  21678084.2704
        45.2504         29.7504
  22247825.2934  -13295877.51649 -10350622.10247                  22247824.0354
        41.2504         26.7504
  22983390.0514    -959742.53949   -751152.88246                  22983389.0824
        40.5004         22.5004
  19348171.9344   -7819816.10549  -6073522.01048                  19348169.3634
        49.7504         41.0004
  22995056.7704   -8074320.12949  -6276103.30146                  22995055.7934
        42.0004         24.2504
  22173858.4184  -12239531.77749  -9510107.34047                  22173859.5984
        41.0004         26.7504
 04  7  6 20 44  9.9960000  0  7G11G14G20G22G25G30G 1
  20546777.4884   -8533238.77749  -6628148.17347                  20546775.2424
        49.2504         36.0004
  21676859.1604   -1253305.93449   -980069.56347                  21676856.8244
        45.7504         29.7504
  22236574.2774  -13355002.42649 -10396693.47647                  22236572.6524
        43.0004         25.7504
  22982745.9494    -963133.14849   -753794.91146                  22982743.9574
        41.2504         22.2504
  19343072.1764   -7846614.59849  -6094403.94848                  19343070.0394
        50.7504         40.7504
  22989620.3244   -8102885.86349  -6298362.31446                  22989619.8524
        43.2504         22.0004
  22164326.7384  -12289621.93749  -9549138.57247                  22164327.4304
        41.0004         26.7504
 04  7  6 20 44 19.9960000  0  7G11G14G20G22G25G30G 1
  20541174.9414   -8562681.73849  -6651090.74347                  20541172.8014
        49.5004         36.2504
  21675632.6064   -1259753.23449   -985093.45847                  21675630.0234
        44.0004         29.7504
  22225324.0824  -13414123.45749 -10442761.79847                  22225322.4414
        42.5004         27.2504
  22982104.6994    -966502.98849   -756420.79146                  22982103.2114
        42.2504         22.7504
  19337983.3564   -7873356.11349  -6115241.49148                  19337981.1094
        51.0004         41.7504
  22984195.3564   -8131394.67249  -6320576.96946                  22984194.6294
        42.5004         24.5004
  22154798.3794  -12339694.18749  -9588155.90647                  22154799.0314
        41.7504         28.2504
 04  7  6 20 44 29.9960000  0  7G11G14G20G22G25G30G 1
  20535582.8164   -8592066.17649  -6673987.70147                  20535580.6294
        48.2504         35.7504
  21674405.8094   -1266198.03549   -990115.39047                  21674403.8594
        43.5004         29.7504
  22214074.3484  -13473241.60949 -10488827.86747                  22214072.6134
        43.2504         27.7504
  22981467.4814    -969853.05949   -759031.32346                  22981465.7154
        42.2504         22.5004
  19332905.3634   -7900041.73849  -6136035.47948                  19332903.1064
        50.5004         42.0004
  22978780.9184   -8159847.53949  -6342748.01946                  22978780.3164
        42.5004         23.2504
  22145272.8164  -12389749.53549  -9627160.03447                  22145273.7194
        43.0004         27.5004
 04  7  6 20 44 39.9960000  0  7G11G14G20G22G25G30G 1
  20530002.5354   -8621391.50449  -6696838.61347                  20530000.4614
        49.5004         35.5004
  21673179.9964   -1272639.71149   -995134.89947                  21673178.1214
        44.5004         29.0004
  22202825.4414  -13532356.20749 -10534891.19247                  22202823.7154
        43.7504         28.2504
  22980833.3014    -973182.75449   -761625.89246                  22980832.2424
        42.5004         24.5004
  19327837.8564   -7926670.92649  -6156785.49148                  19327835.6254
        51.5004         41.0004
  22973377.1524   -8188243.77749  -6364874.96446                  22973377.0434
        42.5004         24.0004
  22135750.3714  -12439787.39149  -9666150.54147                  22135752.2114
        43.5004         28.5004
 04  7  6 20 44 49.9960000  0  7G11G14G20G22G25G30G 1
  20524433.2774   -8650656.85949  -6719642.78047                  20524431.5164
        49.5004         35.2504
  21671954.6684   -1279077.40249  -1000151.27547                  21671953.5434
        44.2504         29.2504
  22191577.3564  -13591466.24649 -10580950.92947                  22191574.9144
        44.0004         27.5004
  22980204.3404    -976491.26249   -764203.99946                  22980202.3834
        43.2504         25.5004
  19322781.7234   -7953242.69149  -6177490.75948                  19322779.5434
        50.2504         41.5004
  22967984.8714   -8216582.53549  -6386957.13846                  22967983.8564
        43.0004         24.0004
  22126232.7074  -12489806.82849  -9705126.70547                  22126233.7584
        44.2504         28.0004
 04  7  6 20 44 59.9960000  0  7G11G14G20G22G25G30G 1
  20518876.4344   -8679861.10949  -6742399.34047                  20518873.9384
        49.2504         35.0004
  21670731.1294   -1285510.05149  -1005163.75147                  21670729.4024
        44.5004         28.5004
  22180329.7074  -13650570.67649 -10627006.32447                  22180328.0354
        43.7504         26.7504
  22979579.1604    -979777.42649   -766764.68846                  22979577.5554
        43.7504         25.2504
  19317736.1914   -7979756.07849  -6198150.54148                  19317733.8564
        51.0004         41.0004
  22962603.2234   -8244862.74649  -6408993.66446                  22962601.8754
        42.5004         22.5004
  22116717.8714  -12539806.78149  -9744087.66947                  22116718.7344
        44.0004         28.7504
 04  7  6 20 45  9.9960000  0  7G11G14G20G22G25G30G 1
  20513329.8164   -8709006.07449  -6765109.70447                  20513327.8014
        50.0004         35.0004
  21669507.0274   -1291939.41449  -1010173.64047                  21669505.5904
        45.7504         29.5004
  22169083.5434  -13709671.17649 -10673058.65747                  22169081.4964
        43.7504         27.5004
  22978957.6764    -983043.08649   -769309.36747                  22978955.7074
        43.5004         26.0004
  19312701.8324   -8006212.85949  -6218766.21748                  19312699.3834
        51.2504         41.0004
  22957232.2384   -8273086.00849  -6430985.77646                  22957231.3054
        42.2504         25.2504
  22107206.8484  -12589789.01249  -9783034.83547                  22107207.3204
        44.2504         28.5004
 04  7  6 20 45 19.9960000  0  7G11G14G20G22G25G30G 1
  20507794.7854   -8738094.45349  -6787775.97047                  20507792.4344
        49.5004         34.5004
  21668284.2074   -1298368.14549  -1015183.05147                  21668282.5234
        43.5004         28.5004
  22157837.2934  -13768770.26249 -10719109.87847                  22157835.3164
        44.7504         28.2504
  22978339.5274    -986290.78549   -771840.05747                  22978337.2774
        44.5004         26.7504
  19307677.3094   -8032615.77349  -6239339.91248                  19307675.0124
        49.5004         41.2504
  22951871.9884   -8301254.97349  -6452935.65446                  22951870.8444
        43.0004         24.0004
  22097698.4734  -12639756.14849  -9821970.22847                  22097699.2734
        45.5004         29.7504
 04  7  6 20 45 29.9960000  0  7G11G14G20G22G25G30G 1
  20502270.2704   -8767124.88349  -6810397.08647                  20502267.8984
        49.5004         35.2504
  21667060.9734   -1304795.06649  -1020191.06147                  21667059.2194
        45.2504         29.5004
  22146591.4494  -13827866.67649 -10765159.01347                  22146589.4734
        44.5004         28.2504
  22977725.5044    -989519.40249   -774355.90447                  22977723.4224
        44.5004         26.7504
  19302663.3564   -8058963.61349  -6259870.68948                  19302661.4144
        50.7504         41.5004
  22946522.4264   -8329368.37949  -6474842.19146                  22946521.1134
        42.5004         24.0004
  22088193.5744  -12689706.96949  -9860892.91147                  22088193.8564
        45.7504         29.2504
 04  7  6 20 45 39.9960000  0  7G11G14G20G22G25G30G 1
  20496756.9024   -8796097.73849  -6832973.35247                  20496754.7934
        49.7504         35.2504
  21665838.6374   -1311220.53949  -1025197.93047                  21665836.6024
        43.2504         29.5004
  22135346.4184  -13886960.64549 -10811206.24847                  22135344.6214
        44.2504         28.5004
  22977114.3874    -992729.21949   -776857.12747                  22977112.5274
        44.5004         26.7504
  19297660.0824   -8085256.62149  -6280358.75148                  19297657.8874
        49.5004         41.2504
  22941182.7704   -8357426.57049  -6496705.71546                  22941182.2154
        42.0004         22.7504
  22078691.0514  -12739641.83649  -9899803.19547                  22078691.3324
        45.7504         29.5004
 04  7  6 20 45 49.9960000  0  7G11G14G20G22G25G30G 1
  20491254.3014   -8825014.68449  -6855506.03547                  20491252.1644
        49.7504         35.2504
  21664615.5044   -1317646.10949  -1030204.89047                  21664614.2034
        43.5004         28.7504
  22124101.5274  -13946053.79749 -10857252.83947                  22124099.4184
        44.2504         28.5004
  22976506.3094    -995921.92249   -779344.95647                  22976504.4104
        44.7504         27.0004
  19292666.8324   -8111496.53149  -6300805.43148                  19292664.6214
        50.0004         41.0004
  22935853.4344   -8385431.21149  -6518527.49846                  22935853.0474
        43.5004         22.5004
  22069191.3564  -12789562.43749  -9938702.32447                  22069191.9064
        45.5004         29.2504
 04  7  6 20 45 59.9960000  0  7G11G14G20G22G25G30G 1
  20485762.8164   -8853872.54349  -6877992.68247                  20485760.8444
        50.0004         35.5004
  21663393.4884   -1324068.73849  -1035209.53447                  21663391.7034
        44.5004         30.2504
  22112856.9184  -14005142.85549 -10903296.24247                  22112855.0164
        44.2504         27.5004
  22975903.0354    -999094.33649   -781817.02147                  22975901.1564
        44.7504         26.5004
  19287684.2234   -8137680.28149  -6321208.35148                  19287681.9344
        51.0004         41.0004
  22930535.4184   -8413379.09049  -6540305.07846                  22930534.8404
        42.2504         24.5004
  22059694.6994  -12839465.57449  -9977587.88047                  22059695.2464
        45.7504         29.5004
 04  7  6 20 46  9.9960000  0  7G11G14G20G22G25G30G 1
  20480282.6604   -8882671.27349  -6900433.25447                  20480280.4694
        49.5004         34.7504
  21662172.0744   -1330488.28149  -1040211.79647                  21662170.1994
        45.2504         27.7504
  22101613.4344  -14064227.72349 -10949336.38047                  22101611.4224
        42.7504         27.0004
  22975303.8954   -1002246.32049   -784273.16347                  22975301.1884
        44.5004         26.5004
  19282712.3244   -8163807.73849  -6341567.40548                  19282710.1914
        51.0004         40.5004
  22925227.8634   -8441269.93749  -6562038.16546                  22925227.2974
        42.5004         22.5004
  22050202.6064  -12889351.12949 -10016459.72947                  22050202.1914
        46.5004         28.7504
 04  7  6 20 46 19.9960000  0  7G11G14G20G22G25G30G 1
  20474813.3014   -8911413.85949  -6922830.07747                  20474810.5704
        49.2504         35.5004
  21660950.4734   -1336907.80949  -1045214.04347                  21660947.9614
        43.0004         28.5004
  22090370.3094  -14123311.29749 -10995375.55746                  22090367.8754
        42.5004         25.5004
  22974707.2314   -1005380.94149   -786715.75847                  22974704.8484
        44.7504         26.5004
  19277750.6294   -8189881.91049  -6361884.93848                  19277748.5394
        50.2504         41.0004
  22919930.4574   -8469106.76649  -6583729.22846                  22919930.5824
        41.2504         22.5004
  22040712.5664  -12939222.11349 -10055320.18347                  22040712.0554
        46.2504         30.5004
 04  7  6 20 46 29.9960000  0  7G11G14G20G22G25G30G 1
  20469354.2234   -8940100.50849  -6945183.30747                  20469351.9534
        49.5004         35.5004
  21659728.7624   -1343327.46549  -1050216.37447                  21659726.4024
        43.2504         28.0004
  22079127.2624  -14182393.73449 -11041413.74347                  22079125.3324
        44.0004         26.0004
  22974114.1994   -1008498.34849   -789144.90946                  22974111.5864
        44.0004         25.0004
  19272799.0354   -8215903.03949  -6382161.14248                  19272796.6524
        50.5004         40.2504
  22914643.4104   -8496889.78949  -6605378.34646                  22914643.6684
        41.0004         22.7504
  22031224.4344  -12989078.67649 -10094169.43147                  22031224.1454
        46.2504         28.0004
 04  7  6 20 46 39.9960000  0  7G11G14G20G22G25G30G 1
  20463906.5744   -8968730.39149  -6967492.30647                  20463904.2034
        49.5004         36.2504
  21658507.2314   -1349746.38349  -1055218.14247                  21658504.3404
        43.5004         28.7504
  22067884.1764  -14241473.98849 -11087450.31547                  22067882.4104
        43.0004         25.7504
  22973524.1374   -1011597.69549   -791560.05746                  22973521.9614
        44.5004         24.5004
  19267857.3484   -8241870.21949  -6402395.30348                  19267855.4264
        50.7504         41.5004
  22909367.1134   -8524618.02049  -6626984.79446                  22909366.9064
        41.0004         24.0004
  22021740.2774  -13038919.94949 -10133006.79447                  22021739.7314
        46.0004         29.0004
 04  7  6 20 46 49.9960000  0  7G11G14G20G22G25G30G 1
  20458469.3014   -8997302.30149  -6989756.15247                  20458467.0514
        49.7504         35.5004
  21657286.7464   -1356163.44949  -1060218.44647                  21657283.3244
        46.0004         28.0004
  22056642.1214  -14300550.88749 -11133484.26147                  22056640.5634
        42.2504         25.7504
  22972938.1524   -1014677.79749   -793960.12247                  22972935.9344
        44.7504         25.7504
  19262926.6844   -8267782.35549  -6422586.57948                  19262924.3244
        51.0004         41.5004
  22904101.3564   -8552290.30549  -6648547.59046                  22904101.0044
        42.2504         23.0004
  22012259.4964  -13088744.80149 -10171831.32847                  22012258.4694
        45.0004         28.2504
 04  7  6 20 46 59.9960000  0  7G11G14G20G22G25G30G 1
  20453042.5984   -9025819.13749  -7011977.05847                  20453040.2384
        49.5004         35.5004
  21656064.5434   -1362581.56249  -1065219.59747                  21656062.0944
        44.5004         28.5004
  22045400.3634  -14359627.29749 -11179517.79347                  22045398.6954
        42.5004         25.7504
  22972354.6684   -1017741.68049   -796347.64146                  22972353.2934
        44.5004         25.2504
  19258005.3874   -8293642.35249  -6442737.21948                  19258003.4184
        50.5004         41.0004
  22898845.3094   -8579909.55949  -6670069.04546                  22898845.2424
        42.5004         22.5004
  22002780.3714  -13138556.14549 -10210645.33247                  22002780.0004
        45.5004         27.2504
 04  7  6 20 47  9.9960000  0  7G11G14G20G22G25G30G 1
  20447626.7074   -9054280.48849  -7034154.74747                  20447624.2734
        49.2504         35.5004
  21654843.4494   -1369000.35949  -1070221.26247                  21654840.8984
        45.7504         29.2504
  22034158.5044  -14418702.77749 -11225550.62246                  22034156.7194
        44.2504         25.2504
  22971775.1134   -1020788.90249   -798722.10247                  22971772.9144
        44.7504         26.5004
  19253094.5664   -8319449.91049  -6462846.99848                  19253092.0634
        50.5004         41.0004
  22893600.2704   -8607475.37149  -6691548.91546                  22893600.0234
        42.2504         22.5004
  21993303.6604  -13188353.62549 -10249448.53847                  21993303.4964
        45.2504         27.7504
 04  7  6 20 47 19.9960000  0  7G11G14G20G22G25G30G 1
  20442221.0044   -9082687.97749  -7056290.44047                  20442218.8244
        49.0004         35.2504
  21653621.6764   -1375421.47349  -1075224.72647                  21653618.7854
        44.5004         28.0004
  22022917.5274  -14477778.81249 -11271583.86947                  22022915.2234
        42.7504         25.7504
  22971197.9814   -1023820.98049   -801084.82246                  22971195.7664
        44.5004         24.5004
  19248192.9024   -8345206.52749  -6482917.08948                  19248191.3054
        51.0004         40.5004
  22888364.4964   -8634989.26249  -6712988.31247                  22888363.9964
        42.2504         25.7504
  21983829.8014  -13238138.72349 -10288242.10647                  21983830.1564
        45.2504         27.7504
 04  7  6 20 47 29.9960000  0  7G11G14G20G22G25G30G 1
  20436825.5594   -9111040.55549  -7078383.36347                  20436823.2664
        49.5004         35.5004
  21652399.1914   -1381843.93049  -1080229.24847                  21652397.0084
        45.0004         29.2504
  22011674.9814  -14536854.33249 -11317616.76746                  22011673.3564
        43.5004         25.0004
  22970624.0904   -1026837.01249   -803434.99046                  22970621.8984
        44.5004         24.2504
  19243301.9184   -8370911.40249  -6502946.86948                  19243299.5044
        50.2504         41.2504
  22883138.8404   -8662450.10949  -6734386.36846                  22883137.9774
        43.2504         24.0004
  21974358.9344  -13287910.54349 -10327025.34447                  21974358.4414
        45.0004         26.2504
 04  7  6 20 47 39.9960000  0  7G11G14G20G22G25G30G 1
  20431440.7774   -9139337.03549  -7100432.56647                  20431438.6604
        49.5004         35.7504
  21651176.9814   -1388266.31649  -1085233.69347                  21651174.8794
        44.7504         29.2504
  22000433.6374  -14595927.95349 -11363648.12247                  22000431.7544
        43.5004         26.0004
  22970053.7384   -1029835.58649   -805771.57546                  22970050.9924
        44.7504         25.5004
  19238420.1914   -8396563.16049  -6522935.24848                  19238418.2774
        51.2504         40.7504
  22877923.5434   -8689856.68749  -6755742.12846                  22877922.8054
        43.7504         24.7504
  21964889.8794  -13337667.68049 -10365797.11647                  21964889.7814
        44.0004         26.0004
 04  7  6 20 47 49.9960000  0  7G11G14G20G22G25G30G 1
  20426066.8714   -9167577.78549  -7122438.35547                  20426064.7074
        50.0004         36.2504
  21649955.1214   -1394689.07849  -1090238.48947                  21649952.2344
        45.0004         28.0004
  21989193.3874  -14654999.93049 -11409678.21647                  21989190.9264
        43.5004         26.5004
  22969486.3874   -1032817.21149   -808094.94246                  22969483.8984
        44.2504         24.2504
  19233548.8404   -8422162.16049  -6542882.51848                  19233546.5434
        51.0004         41.0004
  22872718.8484   -8717209.24649  -6777055.85647                  22872717.2814
        43.7504         25.7504
  21955424.0354  -13387410.57049 -10404557.81247                  21955423.6724
        44.0004         26.0004
 04  7  6 20 47 59.9960000  0  7G11G14G20G22G25G30G 1
  20420703.2544   -9195763.17649  -7144400.99947                  20420701.1994
        49.7504         35.7504
  21648732.2544   -1401112.61349  -1095243.83947                  21648729.8564
        45.2504         28.0004
  21977952.2544  -14714070.69149 -11455707.38447                  21977950.0084
        43.5004         27.2504
  22968922.3714   -1035782.18449   -810405.32746                  22968919.8674
        44.2504         22.7504
  19228687.6294   -8447708.90649  -6562789.07348                  19228685.3564
        51.0004         41.7504
  22867524.1134   -8744508.26649  -6798327.76946                  22867522.7154
        44.5004         24.7504
  21945960.8164  -13437139.64549 -10443307.68446                  21945960.7504
        43.7504         25.5004
 04  7  6 20 48  9.9960000  0  7G11G14G20G22G25G30G 1
  20415350.4814   -9223892.53549  -7166319.98547                  20415348.1764
        48.7504         35.5004
  21647510.0904   -1407536.19149  -1100249.25047                  21647507.5314
        45.0004         27.5004
  21966711.8014  -14773139.36749 -11501734.89247                  21966709.5354
        44.0004         25.7504
  22968361.0124   -1038729.84049   -812702.21646                  22968358.7584
        44.5004         22.0004
  19223836.4414   -8473202.69549  -6582654.35248                  19223834.0704
        51.2504         41.0004
  22862339.0514   -8771752.89549  -6819557.36646                  22862338.2114
        43.0004         24.5004
  21936500.6914  -13486854.13749 -10482046.26446                  21936500.1684
        43.2504         25.2504
 04  7  6 20 48 19.9960000  0  7G11G14G20G22G25G30G 1
  20410008.3094   -9251966.76649  -7188196.01647                  20410005.6764
        49.5004         35.2504
  21646287.6374   -1413960.85949  -1105255.47247                  21646284.7934
        45.5004         27.0004
  21955471.3874  -14832206.84449 -11547761.49847                  21955469.1684
        43.7504         27.0004
  22967803.6914   -1041661.06649   -814986.32846                  22967801.1214
        44.5004         22.7504
  19218995.0434   -8498644.43049  -6602479.07948                  19218992.9224
        50.7504         41.2504
  22857164.4494   -8798944.09849  -6840745.30046                  22857163.8014
        42.5004         24.5004
  21927042.7854  -13536554.99649 -10520774.20646                  21927042.5744
        43.0004         24.5004
 04  7  6 20 48 29.9960000  0  7G11G14G20G22G25G30G 1
  20404676.3324   -9279985.87949  -7210029.08547                  20404674.1684
        50.0004         35.0004
  21645064.6064   -1420386.55549  -1110262.52647                  21645062.5554
        45.7504         27.0004
  21944231.9024  -14891273.12149 -11593787.15447                  21944229.3404
        44.2504         26.0004
  22967248.7774   -1044575.96149   -817257.70346                  22967246.7814
        44.5004         22.0004
  19214163.2384   -8524034.21149  -6622263.33048                  19214161.4344
        51.5004         40.7504
  22852000.5044   -8826081.87549  -6861891.64746                  22851999.7584
        43.2504         24.0004
  21917587.4964  -13586242.25449 -10559491.47846                  21917586.7504
        43.0004         22.7504
 04  7  6 20 48 39.9960000  0  7G11G14G20G22G25G30G 1
  20399355.4574   -9307948.60549  -7231818.23747                  20399352.6954
        49.2504         35.5004
  21643842.2314   -1426812.11749  -1115269.47447                  21643839.9144
        45.5004         28.0004
  21932992.3954  -14950336.77749 -11639810.74947                  21932990.1844
        44.5004         26.7504
  22966697.7154   -1047473.24249   -819515.34846                  22966695.4384
        44.0004         22.7504
  19209341.9654   -8549370.84049  -6642006.15348                  19209339.5434
        51.5004         41.2504
  22846847.4024   -8853164.82049  -6882995.22046                  22846846.2194
        43.5004         23.0004
  21908135.3014  -13635914.59449 -10598197.20746                  21908134.7934
        43.0004         22.5004
 04  7  6 20 48 49.9960000  0  7G11G14G20G22G25G30G 1
  20394045.0664   -9335852.07449  -7253561.19447                  20394043.0204
        49.0004         35.0004
  21642620.2464   -1433234.54349  -1120273.94647                  21642617.5824
        45.7504         28.0004
  21921753.8164  -15009394.85949 -11685830.00747                  21921751.9884
        44.5004         26.2504
  22966150.2074   -1050349.93449   -821756.99146                  22966147.9184
        44.0004         22.5004
  19204531.1684   -8574651.27749  -6661705.19348                  19204529.0394
        51.0004         41.0004
  22841704.2234   -8880190.12549  -6904053.89146                  22841703.4304
        43.0004         22.5004
  21898686.1764  -13685569.14849 -10636889.03146                  21898686.0434
        42.5004         23.5004
 04  7  6 20 48 59.9960000  0  7G11G14G20G22G25G30G 1
  20388746.1764   -9363698.10249  -7275259.40747                  20388743.8484
        50.0004         36.0004
  21641397.8794   -1439655.69949  -1125277.46947                  21641396.1024
        44.5004         29.0004
  21910516.2934  -15068449.12549 -11731846.30047                  21910514.2704
        43.7504         27.0004
  22965606.6064   -1053207.94149   -823984.02346                  22965604.1294
        44.0004         22.2504
  19199731.1684   -8599877.44949  -6681361.95248                  19199728.8164
        51.7504         41.5004
  22836572.6454   -8907159.50849  -6925069.00746                  22836571.5274
        42.7504         25.0004
  21889240.3564  -13735207.75049 -10675568.46746                  21889239.9184
        43.0004         23.0004
 04  7  6 20 49  9.9960000  0  7G11G14G20G22G25G30G 1
  20383458.5594   -9391486.93749  -7296913.04347                  20383456.1994
        50.0004         36.0004
  21640176.8634   -1446075.89149  -1130280.24047                  21640174.7234
        44.5004         28.0004
  21899278.4414  -15127499.80949 -11777859.80747                  21899277.0784
        43.7504         26.7504
  22965065.6604   -1056047.53549   -826196.68546                  22965063.3094
        43.5004         21.5004
  19194940.7774   -8625049.71149  -6700976.69648                  19194938.4494
        51.2504         41.0004
  22831450.7154   -8934073.20749  -6946040.71346                  22831450.2584
        43.2504         22.7504
  21879797.2234  -13784830.64849 -10714235.63146                  21879797.2274
        42.5004         24.0004
 04  7  6 20 49 19.9960000  0  7G11G14G20G22G25G30G 1
  20378181.2314   -9419219.17649  -7318522.58547                  20378178.7934
        50.0004         35.0004
  21638954.6684   -1452495.62949  -1135282.65347                  21638953.1094
        45.5004         28.7504
  21888042.5744  -15186547.32449 -11823870.84246                  21888040.9654
        43.7504         25.5004
  22964528.9574   -1058869.27049   -828395.51146                  22964526.6214
        43.7504         21.0004
  19190160.6374   -8650168.60549  -6720549.86448                  19190158.7384
        51.0004         40.5004
  22826339.5434   -8960931.67249  -6966969.40446                  22826338.8164
        42.5004         24.5004
  21870356.9814  -13834438.33649 -10752890.95546                  21870357.3094
        43.2504         23.7504
 04  7  6 20 49 29.9960000  0  7G11G14G20G22G25G30G 1
  20372915.2774   -9446891.77749  -7340085.65647                  20372912.8404
        49.5004         35.7504
  21637733.3324   -1458911.81249  -1140282.27247                  21637732.1064
        45.0004         28.7504
  21876807.6214  -15245588.50049 -11869876.94247                  21876805.6684
        44.7504         27.5004
  22963995.8244   -1061670.12549   -830578.02146                  22963993.7584
        43.2504         21.2504
  19185391.4264   -8675231.15649  -6740079.12648                  19185389.3484
        51.0004         40.7504
  22821240.0354   -8987731.92649  -6987852.70646                  22821238.6064
        42.7504         22.5004
  21860920.4734  -13884027.77049 -10791532.01746                  21860920.7314
        44.0004         24.7504
 04  7  6 20 49 39.9960000  0  7G11G14G20G22G25G30G 1
  20367660.6994   -9474503.09849  -7361600.98947                  20367658.5664
        50.2504         34.7504
  21636513.4104   -1465322.82449  -1145277.90347                  21636512.3524
        44.7504         28.7504
  21865573.7384  -15304621.68049 -11915876.81046                  21865572.1764
        44.2504         25.2504
  22963467.1524   -1064448.27349   -832742.81746                  22963465.2814
        42.5004         20.2504
  19180633.1994   -8700235.62949  -6759563.11948                  19180631.2974
        51.0004         40.5004
  22816151.3634   -9014472.30549  -7008689.37346                  22816149.7934
        43.0004         22.7504
  21851488.0824  -13933597.26249 -10830157.62046                  21851487.5984
        43.7504         25.0004
 04  7  6 20 49 49.9960000  0  7G11G14G20G22G25G30G 1
  20362418.1994   -9502053.29749  -7383068.67247                  20362415.6454
        50.2504         35.5004
  21635294.3014   -1471728.92249  -1150269.65547                  21635292.6564
        44.5004         28.5004
  21854342.0204  -15363646.93049 -11961870.49747                  21854339.8634
        44.2504         26.2504
  22962943.1524   -1067204.04349   -834890.19746                  22962940.7664
        42.5004         20.0004
  19175885.9574   -8725182.25049  -6779002.04848                  19175883.9654
        51.0004         41.2504
  22811073.8094   -9041152.75849  -7029479.33746                  22811072.8914
        42.0004         22.7504
  21842058.8484  -13983147.07449 -10868767.83147                  21842059.1454
        43.5004         27.0004
 04  7  6 20 49 59.9960000  0  7G11G14G20G22G25G30G 1
  20357186.8244   -9529543.87149  -7404489.89847                  20357184.5824
        50.5004         34.7504
  21634076.5904   -1478131.60549  -1155258.76347                  21634074.5784
        45.0004         28.0004
  21843111.2384  -15422665.71949 -12007859.13547                  21843108.3634
        43.5004         25.7504
  22962422.4884   -1069938.91849   -837021.31446                  22962420.1454
        41.2504         20.0004
  19171149.7934   -8750072.64549  -6798397.15848                  19171147.5204
        51.0004         40.7504
  22806008.0824   -9067775.07049  -7050223.96846                  22806006.6484
        42.5004         23.0004
  21832633.6134  -14032678.71149 -10907363.90846                  21832633.6134
        44.5004         25.2504
 04  7  6 20 50  9.9960000  0  7G11G14G20G22G25G30G 1
  20351967.2154   -9556973.48049  -7425863.63047                  20351965.2664
        50.0004         35.5004
  21632858.8874   -1484529.60249  -1160244.23647                  21632856.8284
        45.5004         29.0004
  21831881.5204  -15481676.72749 -12053841.74547                  21831879.6884
        43.2504         26.5004
  22961905.8714   -1072651.59049   -839135.14846                  22961904.0124
        40.7504         19.2504
  19166424.0514   -8774905.45749  -6817747.40648                  19166421.8444
        51.0004         41.5004
  22800952.9654   -9094337.63349  -7070922.08146                  22800952.3204
        42.0004         23.7504
  21823211.7384  -14082190.81249 -10945944.73147                  21823211.7504
        44.2504         27.0004
 04  7  6 20 50 19.9960000  0  7G11G14G20G22G25G30G 1
  20346759.4964   -9584340.61749  -7447188.67247                  20346756.8444
        50.0004         35.5004
  21631642.8954   -1490921.32449  -1165224.81747                  21631640.7384
        45.7504         29.5004
  21820653.9104  -15540678.27049 -12099816.95047                  21820651.8914
        43.7504         27.0004
  22961394.7624   -1075340.57049   -841230.47246                  22961392.9264
        40.2504         19.5004
  19161709.8484   -8799679.15649  -6837051.59248                  19161707.6914
        50.7504         41.5004
  22795910.2154   -9120839.00049  -7091572.47646                  22795909.4844
        41.5004         22.5004
  21813793.9264  -14131681.89149 -10984509.18647                  21813793.9344
        43.7504         27.7504
 04  7  6 20 50 29.9960000  0  7G11G14G20G22G25G30G 1
  20341564.1844   -9611642.58649  -7468462.92647                  20341561.7234
        50.2504         35.2504
  21630427.8404   -1497304.02749  -1170198.35247                  21630425.8364
        45.5004         28.7504
  21809428.3404  -15599667.48049 -12145782.52147                  21809426.5434
        44.0004         26.0004
  22960887.6134   -1078003.04749   -843305.19746                  22960886.0634
        40.0004         19.2504
  19157007.6294   -8824391.08249  -6856307.63048                  19157005.4844
        51.0004         41.5004
  22790878.9494   -9147276.34849  -7112173.03446                  22790879.1374
        43.2504         22.7504
  21804380.3564  -14181149.18749 -11023055.10347                  21804380.2544
        44.0004         26.7504
 04  7  6 20 50 39.9950000  0  7G11G14G20G22G25G30G 1
  20336381.8354   -9638877.34449  -7489684.82247                  20336379.5544
        49.5004         35.2504
  21629215.0304   -1503677.79349  -1175164.93347                  21629212.2804
        44.7504         28.2504
  21798206.3584  -15658639.07449 -12191734.39447                  21798204.5424
        45.0004         26.2504
  22960386.4914   -1080639.41449   -845359.50646                  22960384.1054
        40.7504         19.5004
  19152316.8824   -8849039.43049  -6875514.12848                  19152314.6204
        51.5004         41.2504
  22785860.4834   -9173647.61349  -7132722.08546                  22785860.5034
        42.5004         22.5004
  21794972.6874  -14230588.36349 -11061579.11047                  21794972.9294
        44.5004         27.5004
 04  7  6 20 50 49.9950000  0  7G11G14G20G22G25G30G 1
  20331210.6324   -9666050.84449  -7510858.98747                  20331208.1904
        50.0004         35.0004
  21628003.6874   -1510044.34049  -1180125.88847                  21628001.3904
        45.0004         28.0004
  21786986.0074  -15717605.32449 -12237682.11447                  21786983.3434
        44.5004         26.2504
  22959889.0154   -1083250.73849   -847394.27846                  22959887.1404
        40.2504         19.2504
  19147637.5694   -8873629.63349  -6894675.33148                  19147635.7804
        51.2504         41.2504
  22780854.2884   -9199958.69149  -7153224.23846                  22780854.0034
        41.5004         22.0004
  21785567.8514  -14280009.84849 -11100089.32447                  21785568.1164
        44.5004         27.5004
 04  7  6 20 50 59.9950000  0  7G11G14G20G22G25G30G 1
  20326051.4684   -9693161.48849  -7531984.16947                  20326049.2334
        50.0004         35.5004
  21626793.6634   -1516404.15649  -1185081.60247                  21626791.1014
        44.0004         28.7504
  21775766.8664  -15776561.41049 -12283621.92347                  21775764.8704
        44.2504         27.2504
  22959396.4214   -1085837.94149   -849410.42446                  22959394.9804
        39.5004         19.2504
  19142969.5624   -8898160.44549  -6913790.24748                  19142967.2924
        51.2504         41.5004
  22775859.0074   -9226207.94949  -7173678.16046                  22775859.0384
        41.5004         23.2504
  21776167.4374  -14329409.86749 -11138582.84447                  21776167.8124
        45.0004         27.2504
 04  7  6 20 51  9.9950000  0  7G11G14G20G22G25G30G 1
  20320905.1794   -9720206.30549  -7553058.05147                  20320902.6204
        49.5004         35.5004
  21625584.8744   -1522754.27749  -1190029.76747                  21625582.6834
        44.0004         28.5004
  21764550.3664  -15835504.16849 -12329551.31847                  21764548.1834
        44.5004         27.5004
  22958910.1404   -1088397.96549   -851405.20246                  22958907.9334
        39.5004         19.7504
  19138313.3824   -8922628.86349  -6932856.55248                  19138311.3194
        51.2504         40.7504
  22770876.6944   -9252392.40649  -7194081.67046                  22770876.1714
        43.0004         22.0004
  21766772.0464  -14378785.32449 -11177057.19347                  21766771.9094
        44.5004         28.0004
 04  7  6 20 51 19.9950000  0  7G11G14G20G22G25G30G 1
  20315771.2654   -9747185.17649  -7574080.56047                  20315768.9994
        49.5004         35.0004
  21624378.6014   -1529094.65249  -1194970.33247                  21624376.1754
        44.5004         29.2504
  21753336.8124  -15894433.48449 -12375470.27447                  21753334.2694
        44.7504         27.5004
  22958427.8194   -1090930.76649   -853378.80146                  22958425.4374
        38.7504         18.5004
  19133669.2104   -8947034.85249  -6951874.19848                  19133666.9174
        51.0004         41.0004
  22765906.5694   -9278511.94149  -7214434.51146                  22765906.1594
        43.0004         22.7504
  21757380.5694  -14428136.19549 -11215512.39847                  21757380.2734
        45.0004         27.7504
 04  7  6 20 51 29.9950000  0  7G11G14G20G22G25G30G 1
  20310649.4604   -9774100.46949  -7595053.51647                  20310647.1054
        49.7504         35.5004
  21623173.4764   -1535427.63749  -1199905.12147                  21623171.1634
        45.7504         28.7504
  21742124.7654  -15953351.71549 -12421380.56847                  21742122.4604
        45.0004         27.5004
  22957950.0464   -1093438.69549   -855333.11546                  22957948.2494
        39.7504         19.2504
  19129035.9994   -8971380.78949  -6970845.06048                  19129033.7924
        51.0004         41.2504
  22760948.2104   -9304568.77049  -7234738.56846                  22760947.8314
        41.7504         22.7504
  21747993.8434  -14477464.85949 -11253950.30047                  21747993.8154
        45.2504         29.2504
 04  7  6 20 51 39.9950000  0  7G11G14G20G22G25G30G 1
  20305540.1164   -9800951.22749  -7615976.18047                  20305537.6444
        49.7504         35.5004
  21621969.8124   -1541752.16449  -1204833.35547                  21621967.3084
        44.5004         29.0004
  21730915.3434  -16012257.60249 -12467281.21147                  21730913.0194
        45.0004         26.5004
  22957477.8194   -1095920.68049   -857267.22346                  22957476.6594
        39.0004         19.7504
  19124415.1634   -8995665.65249  -6989768.32748                  19124412.9524
        51.0004         40.7504
  22756001.0934   -9330561.99649  -7254993.02046                  22756001.0504
        41.7504         24.0004
  21738611.4214  -14526770.22749 -11292370.03847                  21738610.9914
        44.7504         29.2504
 04  7  6 20 51 49.9950000  0  7G11G14G20G22G25G30G 1
  20300442.4134   -9827737.98849  -7636848.99747                  20300440.2144
        50.0004         36.0004
  21620767.8664   -1548068.78149  -1209755.40247                  21620765.6364
        45.0004         28.0004
  21719708.0934  -16071151.65649 -12513172.69347                  21719705.9214
        44.5004         28.0004
  22957010.4914   -1098377.22749   -859181.42546                  22957008.9954
        39.5004         20.0004
  19119805.2264   -9019889.91449  -7008644.37048                  19119803.1124
        50.0004         41.0004
  22751067.1164   -9356492.03149  -7275198.24846                  22751066.7844
        41.7504         23.5004
  21729232.5624  -14576052.80149 -11330772.02047                  21729233.0194
        44.2504         28.5004
 04  7  6 20 51 59.9950000  0  7G11G14G20G22G25G30G 1
  20295357.7884   -9854459.03949  -7657670.59647                  20295355.1014
        49.5004         35.5004
  21619567.9994   -1554375.82049  -1214669.98347                  21619565.5464
        44.5004         28.5004
  21708503.6874  -16130032.19549 -12559053.63447                  21708501.3944
        45.0004         27.2504
  22956548.3274   -1100806.71949   -861074.60846                  22956546.9334
        40.2504         19.7504
  19115207.3434   -9044052.07849  -7027472.03848                  19115205.3044
        51.0004         41.0004
  22746145.0774   -9382357.18449  -7295352.91046                  22746144.4994
        40.7504         22.5004
  21719859.6084  -14625310.98849 -11369155.01847                  21719859.2734
        44.7504         28.5004
 04  7  6 20 52  9.9950000  0  7G11G14G20G22G25G30G 1
  20290285.4834   -9881114.57049  -7678441.14247                  20290283.1554
        49.2504         35.5004
  21618369.2804   -1560673.45749  -1219577.23747                  21618367.1514
        43.5004         28.5004
  21697301.4834  -16188899.22349 -12604924.03547                  21697299.7884
        44.5004         28.0004
  22956091.3434   -1103209.34849   -862946.80746                  22956089.7844
        40.7504         21.0004
  19110621.3744   -9068152.24249  -7046251.38648                  19110619.0194
        50.0004         41.2504
  22741235.6794   -9408157.58649  -7315457.13146                  22741234.0544
        41.5004         22.7504
  21710490.1874  -14674544.86749 -11407519.04247                  21710490.1284
        44.5004         28.5004
 04  7  6 20 52 19.9950000  0  7G11G14G20G22G25G30G 1
  20285225.6404   -9907702.56649  -7699159.05947                  20285223.5624
        49.2504         35.2504
  21617173.0384   -1566959.73049  -1224475.65347                  21617170.8234
        44.5004         28.5004
  21686102.6014  -16247750.73849 -12650782.31847                  21686100.6014
        44.0004         27.5004
  22955639.8984   -1105583.13349   -864796.55446                  22955638.5194
        40.5004         20.7504
  19106047.4054   -9092188.44149  -7064980.88748                  19106044.9094
        50.7504         41.0004
  22736338.3904   -9433891.29349  -7335509.34146                  22736337.5304
        40.5004         23.2504
  21701126.6014  -14723752.46949 -11445862.62147                  21701126.3744
        44.5004         28.0004
 04  7  6 20 52 29.9950000  0  7G11G14G20G22G25G30G 1
  20280179.0854   -9934224.80549  -7719825.75747                  20280176.6984
        49.2504         35.2504
  21615978.4994   -1573236.35549  -1229366.54047                  21615976.4334
        44.2504         29.5004
  21674906.2494  -16306588.32849 -12696629.78147                  21674903.6204
        43.7504         27.7504
  22955193.3984   -1107929.80149   -866625.12546                  22955191.4834
        42.2504         22.5004
  19101485.4914   -9116162.43049  -7083661.91048                  19101482.8474
        49.2504         41.2504
  22731453.9524   -9459559.82449  -7355510.84146                  22731452.7574
        41.7504         23.0004
  21691767.4914  -14772935.50849 -11484187.04747                  21691767.5074
        43.5004         28.0004
 04  7  6 20 52 39.9950000  0  7G11G14G20G22G25G30G 1
  20275143.9054   -9960682.87549  -7740442.42447                  20275141.8584
        49.5004         35.2504
  21614785.8274   -1579504.91449  -1234251.15847                  21614784.0074
        44.5004         28.7504
  21663711.6484  -16365413.58249 -12742467.62647                  21663709.6794
        45.0004         28.0004
  22954751.8194   -1110250.93449   -868433.85646                  22954749.6714
        42.5004         22.5004
  19096934.7654   -9140075.86749  -7102295.75848                  19096932.2024
        50.5004         41.5004
  22726581.3194   -9485164.92249  -7375462.87346                  22726580.5894
        41.5004         22.7504
  21682412.4444  -14822095.59849 -11522493.57447                  21682412.4174
        44.7504         28.0004
 04  7  6 20 52 49.9950000  0  7G11G14G20G22G25G30G 1
  20270121.3984   -9987076.07449  -7761008.55847                  20270118.9644
        49.5004         35.0004
  21613594.4764   -1585764.74249  -1239128.95047                  21613592.9804
        45.2504         28.5004
  21652520.2414  -16424225.66049 -12788295.20247                  21652518.2454
        43.7504         27.5004
  22954315.4764   -1112545.76649   -870222.04346                  22954313.1364
        43.0004         22.7504
  19092395.3904   -9163928.10549  -7120881.91648                  19092393.3234
        50.5004         41.0004
  22721721.5464   -9510705.80949  -7395364.83046                  22721720.3514
        42.2504         22.2504
  21673061.9914  -14871231.99249 -11560781.65147                  21673062.1284
        43.0004         28.0004
 04  7  6 20 52 59.9950000  0  7G11G14G20G22G25G30G 1
  20265111.1014  -10013405.48849  -7781524.98947                  20265109.1874
        49.7504         35.2504
  21612404.9524   -1592016.84849  -1244000.72747                  21612403.0854
        46.0004         29.0004
  21641330.9374  -16483025.49249 -12834113.23347                  21641329.1514
        44.5004         28.7504
  22953883.6554   -1114815.44149   -871990.68846                  22953881.3664
        43.5004         22.7504
  19087868.1324   -9187720.30149  -7139421.28648                  19087866.0424
        49.2504         41.2504
  22716872.8904   -9536183.44949  -7415217.59146                  22716871.5894
        42.5004         22.0004
  21663715.9214  -14920345.78149 -11599052.09647                  21663715.8004
        44.2504         27.0004
 04  7  6 20 53  9.9950000  0  7G11G14G20G22G25G30G 1
  20260113.2574  -10039669.19549  -7801990.22347                  20260111.0624
        49.5004         34.7504
  21611217.1084   -1598259.33649  -1248865.01447                  21611215.6594
        46.0004         27.5004
  21630144.1404  -16541811.12549 -12879920.18847                  21630143.1124
        44.5004         27.5004
  22953456.9134   -1117058.01249   -873738.15446                  22953454.7334
        44.5004         23.7504
  19083352.4834   -9211450.39149  -7157912.27048                  19083350.4134
        50.5004         41.0004
  22712036.3664   -9561595.88349  -7435019.46146                  22712036.1944
        42.0004         22.0004
  21654374.6714  -14969435.05949 -11637303.48447                  21654374.6284
        44.5004         26.2504
 04  7  6 20 53 19.9950000  0  7G11G14G20G22G25G30G 1
  20255128.3904  -10065865.37949  -7822402.83547                  20255126.5974
        50.2504         35.5004
  21610031.4994   -1604490.28149  -1253720.30347                  21610029.8004
        46.2504         29.2504
  21618960.6484  -16600580.59049 -12925714.57147                  21618959.3004
        44.5004         28.5004
  22953035.2654   -1119271.49649   -875462.98146                  22953033.5814
        44.5004         24.0004
  19078849.1714   -9235116.50049  -7176353.39448                  19078846.7224
        50.0004         41.2504
  22707214.3744   -9586941.26249  -7454769.09946                  22707213.3194
        42.0004         22.0004
  21645037.8824  -15018497.84049 -11675534.17747                  21645038.0034
        43.7504         27.2504
 04  7  6 20 53 29.9950000  0  7G11G14G20G22G25G30G 1
  20250156.1874  -10091995.67249  -7842764.09847                  20250153.4914
        49.5004         35.2504
  21608847.8274   -1610711.37949  -1258567.93747                  21608846.0074
        44.7504         28.2504
  21607779.7494  -16659335.52749 -12971497.62747                  21607778.2764
        43.7504         27.7504
  22952619.4054   -1121457.69949   -877166.54646                  22952617.9444
        44.2504         24.5004
  19074357.6244   -9258720.51249  -7194746.12748                  19074355.1284
        51.0004         41.2504
  22702403.2964   -9612221.28549  -7474467.84146                  22702402.9334
        41.5004         22.5004
  21635706.8044  -15067535.90249 -11713745.65647                  21635706.3554
        43.7504         27.0004
 04  7  6 20 53 39.9950000  0  7G11G14G20G22G25G30G 1
  20245195.7184  -10118061.34849  -7863075.01347                  20245193.9684
        49.7504         35.2504
  21607664.7334   -1616923.98049  -1263408.92047                  21607663.3944
        44.7504         28.0004
  21596601.5074  -16718077.11349 -13017270.25847                  21596599.9724
        45.0004         28.5004
  22952208.4214   -1123617.89849   -878849.83847                  22952206.8664
        43.7504         26.0004
  19069877.4444   -9282263.71549  -7213091.47448                  19069875.0384
        50.0004         41.5004
  22697604.4134   -9637437.10949  -7494116.57146                  22697604.2414
        41.0004         23.2504
  21626379.2334  -15116550.48849 -11751938.80247                  21626379.1444
        44.5004         27.5004
 04  7  6 20 53 49.9950000  0  7G11G14G20G22G25G30G 1
  20240248.2734  -10144062.03549  -7883335.29147                  20240246.1514
        49.0004         35.2504
  21606484.4764   -1623127.68049  -1268242.99247                  21606482.5974
        44.0004         28.7504
  21585426.3044  -16776804.87149 -13063032.14147                  21585424.9524
        44.0004         27.7504
  22951802.3584   -1125751.67249   -880512.56747                  22951801.1404
        44.0004         26.5004
  19065408.6244   -9305745.74649  -7231389.16448                  19065406.4874
        49.0004         41.5004
  22692818.7184   -9662588.32049  -7513714.88446                  22692817.8314
        40.0004         22.5004
  21617056.5934  -15165541.25049 -11790113.39147                  21617055.9374
        43.0004         26.2504
 04  7  6 20 53 59.9950000  0  7G11G14G20G22G25G30G 1
  20235312.4914  -10169997.89149  -7903545.06647                  20235310.5304
        49.5004         35.0004
  21605306.2334   -1629322.56649  -1273070.18947                  21605304.2304
        44.7504         28.7504
  21574253.6244  -16835518.86349 -13108783.29247                  21574251.5624
        45.5004         27.7504
  22951401.3904   -1127859.22349   -882154.83546                  22951399.6284
        44.5004         25.5004
  19060951.7884   -9329166.66849  -7249639.23348                  19060949.3824
        49.5004         41.5004
  22688044.5154   -9687675.09049  -7533262.99246                  22688044.0464
        41.7504         21.7504
  21607738.5464  -15214508.23049 -11828269.47446                  21607737.9724
        43.5004         24.7504
 04  7  6 20 54  9.9950000  0  7G11G14G20G22G25G30G 1
  20230389.9214  -10195867.10249  -7923702.89547                  20230387.8194
        49.7504         35.5004
  21604129.2024   -1635506.84849  -1277889.10347                  21604127.4374
        45.5004         29.2504
  21563083.7264  -16894217.17649 -13154522.22847                  21563081.0234
        44.2504         27.5004
  22951005.7964   -1129938.62949   -883775.18347                  22951003.9134
        44.5004         27.5004
  19056506.9214   -9352524.74649  -7267840.34148                  19056504.7654
        48.7504         41.5004
  22683283.6944   -9712695.50449  -7552759.44146                  22683282.9874
        42.5004         22.7504
  21598424.6484  -15263449.66049 -11866405.61146                  21598424.6794
        43.0004         25.5004
 04  7  6 20 54 19.9950000  0  7G11G14G20G22G25G30G 1
  20225480.1794  -10221667.41049  -7943807.01947                  20225477.7334
        49.5004         34.5004
  21602954.9214   -1641678.27349  -1282698.01647                  21602952.8434
        44.5004         28.5004
  21551917.2734  -16952897.44149 -13200247.11547                  21551915.2224
        44.7504         27.7504
  22950616.1634   -1131987.68749   -885371.87447                  22950614.4054
        43.7504         26.5004
  19052074.5854   -9375817.75849  -7285990.72848                  19052072.1834
        50.2504         40.7504
  22678535.5384   -9737647.35249  -7572202.44146                  22678535.0114
        41.7504         21.5004
  21589117.2884  -15312363.28149 -11904520.11947                  21589116.6554
        43.0004         26.2504
 04  7  6 20 54 29.9950000  0  7G11G14G20G22G25G30G 1
  20220583.5234  -10247400.54749  -7963858.82047                  20220581.2734
        49.7504         35.2504
  21601782.3044   -1647838.57049  -1287498.26847                  21601780.6014
        45.5004         28.5004
  21540754.0154  -17011561.37549 -13245959.24147                  21540751.6404
        45.5004         26.5004
  22950231.6404   -1134008.13749   -886946.27647                  22950230.2964
        44.2504         27.2504
  19047654.0544   -9399047.47749  -7304091.80648                  19047651.5694
        50.5004         41.2504
  22673800.0304   -9762532.26649  -7591593.31646                  22673799.3864
        40.0004         23.2504
  21579814.3354  -15361250.79749 -11942614.27047                  21579813.4914
        44.5004         26.0004
 04  7  6 20 54 39.9950000  0  7G11G14G20G22G25G30G 1
  20215699.0154  -10273068.50849  -7983859.83147                  20215696.5504
        49.0004         34.2504
  21600612.3274   -1653989.75449  -1292291.39047                  21600609.8984
        44.5004         28.2504
  21529593.4054  -17070210.79349 -13291660.06047                  21529590.9604
        44.5004         26.7504
  22949851.6634   -1136001.88349   -888499.91746                  22949850.7224
        44.0004         25.2504
  19043245.4374   -9422215.88349  -7322145.10948                  19043242.9724
        50.5004         40.7504
  22669077.2184   -9787352.18449  -7610933.52446                  22669075.7414
        41.7504         22.5004
  21570515.6404  -15410114.15249 -11980689.58347                  21570515.5934
        43.7504         26.5004
 04  7  6 20 54 49.9950000  0  7G11G14G20G22G25G30G 1
  20210827.2334  -10298669.30549  -8003808.51147                  20210825.2534
        49.2504         34.5004
  21599444.0694   -1660129.69549  -1297075.77347                  21599441.3394
        44.0004         29.2504
  21518435.6164  -17128843.66849 -13337348.00447                  21518433.8314
        45.0004         27.7504
  22949477.8434   -1137967.05149   -890031.24046                  22949476.8514
        43.7504         25.5004
  19038848.2414   -9445320.93749  -7340149.04748                  19038846.3514
        50.5004         41.2504
  22664366.5074   -9812105.04349  -7630221.47846                  22664365.8434
        41.2504         24.0004
  21561222.4764  -15458951.33649 -12018744.54447                  21561221.5974
        44.0004         27.5004
 04  7  6 20 54 59.9950000  0  7G11G14G20G22G25G30G 1
  20205968.1484  -10324205.21549  -8023706.62447                  20205965.6554
        49.5004         35.5004
  21598276.8354   -1666260.70749  -1301853.19647                  21598274.5234
        45.7504         28.7504
  21507280.9214  -17187462.15649 -13383024.73147                  21507279.1084
        44.5004         27.5004
  22949109.0774   -1139905.87549   -891542.05747                  22949108.0934
        44.2504         26.7504
  19034463.6164   -9468364.97349  -7358105.44248                  19034461.0854
        50.2504         41.5004
  22659668.8984   -9836793.19549  -7649458.94946                  22659667.1714
        43.0004         22.5004
  21551933.5544  -15507764.61749 -12056780.82747                  21551933.6284
        44.2504         28.0004
 04  7  6 20 55  9.9950000  0  7G11G14G20G22G25G30G 1
  20201121.3744  -10349673.59849  -8043552.12747                  20201119.1204
        49.7504         35.2504
  21597112.4834   -1672380.05549  -1306621.53847                  21597110.3124
        44.5004         29.7504
  21496129.3744  -17246063.43749 -13428688.05647                  21496127.3784
        44.5004         28.5004
  22948745.8434   -1141815.57449   -893030.12747                  22948744.9764
        43.7504         26.5004
  19030090.2494   -9491345.26249  -7376012.15248                  19030088.3044
        50.5004         41.0004
  22654982.9134   -9861413.82849  -7668643.90046                  22654982.3784
        43.0004         22.2504
  21542650.0774  -15556551.24649 -12094796.38247                  21542649.2574
        45.0004         27.0004
 04  7  6 20 55 19.9950000  0  7G11G14G20G22G25G30G 1
  20196287.9214  -10375075.25449  -8063345.62047                  20196285.4564
        49.5004         36.0004
  21595950.1714   -1678488.61749  -1311381.45247                  21595947.9564
        45.7504         29.0004
  21484981.3194  -17304648.27349 -13474338.55347                  21484978.9684
        45.0004         27.5004
  22948387.8824   -1143697.00349   -894496.25447                  22948386.8124
        44.0004         26.5004
  19025729.2264   -9514262.69549  -7393869.87748                  19025727.1014
        50.7504         41.0004
  22650310.8584   -9885967.69149  -7687776.81446                  22650309.7844
        41.0004         22.2504
  21533370.9914  -15605312.09849 -12132791.81447                  21533370.7494
        45.5004         28.0004
 04  7  6 20 55 29.9950000  0  7G11G14G20G22G25G30G 1
  20191466.8824  -10400410.46549  -8083087.34247                  20191464.5584
        50.0004         34.0004
  21594789.7494   -1684586.71949  -1316133.24047                  21594787.9604
        45.5004         28.5004
  21473835.8824  -17363216.91849 -13519976.46647                  21473833.7574
        45.0004         27.5004
  22948035.1554   -1145550.52049   -895940.57347                  22948033.8084
        44.0004         26.2504
  19021380.1634   -9537117.70349  -7411678.98448                  19021378.0424
        51.2504         40.5004
  22645651.6634   -9910455.26249  -7706857.98546                  22645650.4874
        42.0004         22.5004
  21524096.7334  -15654047.52049 -12170767.43247                  21524096.4834
        45.0004         28.5004
 04  7  6 20 55 39.9950000  0  7G11G14G20G22G25G30G 1
  20186658.2734  -10425678.92649  -8102777.06247                  20186656.0584
        49.5004         35.0004
  21593631.2964   -1690674.03949  -1320876.60947                  21593629.5384
        45.5004         28.2504
  21462693.5694  -17421768.98449 -13565601.41047                  21462691.3004
        45.0004         27.7504
  22947687.9604   -1147375.74249   -897362.84147                  22947686.5114
        43.2504         26.0004
  19017042.7184   -9559909.93449  -7429439.17248                  19017040.6324
        50.7504         41.2504
  22641004.0694   -9934876.05549  -7725887.17746                  22641003.7304
        42.7504         22.7504
  21514828.1324  -15702757.15649 -12208722.99447                  21514827.7334
        45.5004         27.7504
 04  7  6 20 55 49.9950000  0  7G11G14G20G22G25G30G 1
  20181862.5934  -10450878.29749  -8122412.93947                  20181860.5464
        50.0004         35.0004
  21592475.3354   -1696748.21149  -1325609.74547                  21592473.7964
        45.5004         28.7504
  21451554.9914  -17480302.02749 -13611211.56247                  21451552.9134
        45.2504         27.7504
  22947346.0234   -1149170.32049   -898761.23447                  22947344.9604
        43.0004         26.0004
  19012717.9914   -9582637.13349  -7447148.66148                  19012715.8514
        51.0004         41.2504
  22636369.7494   -9959227.65249  -7744862.45746                  22636369.5264
        41.2504         22.5004
  21505563.9134  -15751438.60949 -12246656.56847                  21505563.8944
        45.2504         28.5004
 04  7  6 20 55 59.9950000  0  7G11G14G20G22G25G30G 1
  20177080.5854  -10476011.50849  -8141997.25147                  20177078.1324
        50.0004         35.2504
  21591321.2184   -1702812.12149  -1330334.90447                  21591319.6714
        46.0004         29.0004
  21440419.9134  -17538818.87949 -13656809.09747                  21440417.7144
        45.5004         28.2504
  22947009.7884   -1150937.22749   -900138.08347                  22947008.8824
        43.5004         26.0004
  19008404.9294   -9605302.15649  -7464809.73048                  19008402.6514
        51.5004         41.7504
  22631749.0934   -9983513.08649  -7763786.19046                  22631748.5544
        40.7504         22.5004
  21496305.1714  -15800094.83249 -12284570.46647                  21496304.9724
        45.7504         29.2504
 04  7  6 20 56  9.9950000  0  7G11G14G20G22G25G30G 1
  20172309.8354  -10501079.92249  -8161531.08647                  20172307.3354
        50.2504         35.2504
  21590169.5854   -1708867.11349  -1335053.06947                  21590167.3624
        45.7504         29.2504
  21429286.9294  -17597320.78949 -13702394.99947                  21429285.1484
        45.5004         27.5004
  22946678.8744   -1152677.72349   -901494.35447                  22946677.7534
        43.2504         26.5004
  19004103.4834   -9627906.32449  -7482423.35548                  19004101.5074
        51.0004         41.5004
  22627140.3824  -10007733.52349  -7782659.27346                  22627140.0114
        42.2504         22.7504
  21487050.3124  -15848727.06649 -12322465.72147                  21487050.5694
        45.7504         29.0004
 04  7  6 20 56 19.9950000  0  7G11G14G20G22G25G30G 1
  20167552.3274  -10526082.25449  -8181013.43147                  20167550.1084
        49.5004         35.0004
  21589018.8514   -1714911.80949  -1339763.22847                  21589016.8784
        45.5004         28.7504
  21418157.8664  -17655806.30149 -13747968.12247                  21418155.8904
        45.7504         28.5004
  22946353.1944   -1154390.50849   -902829.03346                  22946351.9604
        43.0004         24.7504
  18999813.8984   -9650448.33249  -7499988.55648                  18999811.8234
        49.5004         41.0004
  22622544.1324  -10031887.58649  -7801480.62446                  22622543.9804
        42.0004         22.5004
  21477801.1484  -15897333.99249 -12360341.20747                  21477800.6834
        45.7504         29.0004
 04  7  6 20 56 29.9950000  0  7G11G14G20G22G25G30G 1
  20162807.0384  -10551016.93449  -8200443.05247                  20162804.6244
        50.0004         35.0004
  21587871.1944   -1720944.72749  -1344464.20747                  21587869.0814
        45.0004         28.2504
  21407032.0304  -17714273.82849 -13793527.22147                  21407029.7964
        46.0004         26.7504
  22946032.4764   -1156074.07449   -904140.91646                  22946031.7614
        42.2504         25.0004
  18995536.6084   -9672926.77049  -7517504.21848                  18995534.1054
        50.5004         41.0004
  22617959.6634  -10055973.83649  -7820249.14346                  22617960.1874
        43.0004         22.5004
  21468556.6794  -15945914.09849 -12398195.82847                  21468556.1084
        45.5004         28.7504
 04  7  6 20 56 39.9950000  0  7G11G14G20G22G25G30G 1
  20158074.7184  -10575885.88349  -8219821.45247                  20158072.2964
        50.5004         34.7504
  21586725.2414   -1726967.66849  -1349157.41647                  21586723.4404
        44.5004         27.5004
  21395909.0234  -17772725.07449 -13839073.62647                  21395907.1244
        45.7504         28.5004
  22945717.0694   -1157730.24649   -905431.46846                  22945716.3234
        41.0004         23.2504
  18991270.5934   -9695343.58249  -7534971.86048                  18991268.3824
        50.7504         40.7504
  22613389.9374  -10079994.04349  -7838966.20046                  22613389.2924
        43.2504         22.5004
  21459316.8824  -15994469.23049 -12436030.97047                  21459316.4764
        46.5004         29.2504
 04  7  6 20 56 49.9950000  0  7G11G14G20G22G25G30G 1
  20153355.6484  -10600686.70349  -8239146.77447                  20153352.6874
        50.0004         34.2504
  21585581.0464   -1732978.35949  -1353841.08747                  21585579.4094
        45.5004         26.5004
  21384789.6084  -17831157.65249 -13884605.50047                  21384787.6444
        45.5004         27.0004
  22945407.9134   -1159356.73849   -906698.92046                  22945407.1634
        41.5004         23.5004
  18987017.1714   -9717696.39549  -7552389.64448                  18987014.6554
        51.0004         41.0004
  22608831.1944  -10103945.86749  -7857629.94146                  22608830.8474
        43.2504         22.5004
  21450082.5544  -16042997.06249 -12473844.83347                  21450082.0544
        46.2504         29.2504
 04  7  6 20 56 59.9950000  0  7G11G14G20G22G25G30G 1
  20148648.6714  -10625420.71949  -8258420.03947                  20148646.5694
        50.2504         35.2504
  21584439.1164   -1738978.09849  -1358516.23647                  21584437.1594
        46.0004         27.7504
  21373673.4764  -17889572.83649 -13930123.81547                  21373671.4444
        45.2504         27.7504
  22945103.8274   -1160954.80549   -907944.20146                  22945102.5194
        41.0004         22.2504
  18982775.5154   -9739986.55149  -7569758.59348                  18982773.2694
        50.2504         41.0004
  22604286.1714  -10127830.53549  -7876241.40646                  22604285.9374
        43.2504         22.7504
  21440852.4444  -16091498.88349 -12511638.44047                  21440852.3824
        46.2504         29.0004
 04  7  6 20 57  9.9950000  0  7G11G14G20G22G25G30G 1
  20143954.3514  -10650088.67649  -8277641.82247                  20143952.4294
        50.0004         35.0004
  21583299.9134   -1744967.61749  -1363183.40147                  21583297.8554
        44.7504         26.7504
  21362560.5854  -17947971.26649 -13975629.06447                  21362558.8624
        44.5004         27.7504
  22944805.1164   -1162525.23449   -909167.93846                  22944804.4484
        40.5004         22.5004
  18978545.5234   -9762214.81249  -7587079.30848                  18978543.2494
        50.0004         41.0004
  22599753.8744  -10151648.87149  -7894801.15346                  22599752.3984
        41.7504         22.0004
  21431627.8744  -16139975.43749 -12549412.36147                  21431627.8044
        46.0004         30.0004
 04  7  6 20 57 19.9950000  0  7G11G14G20G22G25G30G 1
  20139272.1874  -10674693.25049  -8296814.23347                  20139270.1364
        49.7504         34.7504
  21582160.9524   -1750949.49649  -1367844.60447                  21582159.1364
        45.0004         27.5004
  21351450.2654  -18006355.49249 -14021123.26647                  21351448.4014
        44.0004         28.2504
  22944510.7264   -1164070.63349   -910372.19646                  22944510.3124
        40.5004         22.7504
  18974326.7574   -9784383.70749  -7604353.77148                  18974324.5234
        50.5004         41.0004
  22595233.4994  -10175403.35949  -7913311.18846                  22595232.0504
        43.5004         22.7504
  21422407.1324  -16188429.29749 -12587168.57947                  21422407.1284
        46.5004         31.2504
 04  7  6 20 57 29.9950000  0  7G11G14G20G22G25G30G 1
  20134602.3744  -10699233.69949  -8315936.66647                  20134600.3154
        50.0004         34.7504
  21581024.4524   -1756922.99649  -1372499.31147                  21581022.5814
        44.7504         27.5004
  21340343.4134  -18064724.64149 -14066605.70247                  21340341.2614
        44.5004         27.2504
  22944221.4994   -1165590.22349   -911556.33846                  22944221.3084
        38.7504         20.0004
  18970119.8584   -9806492.61749  -7621581.49548                  18970117.3704
        49.0004         40.5004
  22590725.0624  -10199093.24249  -7931770.73646                  22590724.4294
        43.2504         22.0004
  21413191.7804  -16236859.76649 -12624906.60247                  21413190.9014
        46.2504         30.0004
 04  7  6 20 57 39.9950000  0  7G11G14G20G22G25G30G 1
  20129944.7884  -10723709.67649  -8335008.84847                  20129942.5854
        49.7504         34.7504
  21579889.4134   -1762887.62949  -1377147.07647                  21579887.6514
        45.0004         27.0004
  21329238.7654  -18123078.17249 -14112075.96947                  21329236.9994
        45.0004         27.7504
  22943936.7334   -1167083.59449   -912719.96746                  22943936.6594
        39.2504         20.2504
  18965924.2264   -9828541.14549  -7638762.16148                  18965921.7734
        48.2504         40.5004
  22586229.2494  -10222718.18449  -7950179.86746                  22586228.8624
        41.0004         21.7504
  21403979.5544  -16285266.36349 -12662626.01447                  21403979.5814
        46.2504         30.2504
 04  7  6 20 57 49.9950000  0  7G11G14G20G22G25G30G 1
  20125299.2414  -10748121.96949  -8354031.41947                  20125296.9214
        49.7504         35.0004
  21578755.8354   -1768844.35249  -1381788.70247                  21578753.7844
        45.2504         27.5004
  21318137.2884  -18181416.90649 -14157534.69847                  21318135.4604
        45.2504         26.7504
  22943658.4604   -1168551.61749   -913863.98846                  22943657.2764
        39.0004         20.2504
  18961739.8584   -9850530.21149  -7655896.49548                  18961737.2924
        49.5004         40.5004
  22581745.7264  -10246278.84449  -7968538.77246                  22581745.1714
        41.5004         22.7504
  21394773.2104  -16333649.93449 -12700327.47447                  21394772.8554
        46.5004         30.2504
 04  7  6 20 57 59.9950000  0  7G11G14G20G22G25G30G 1
  20120666.2884  -10772469.34049  -8373003.40047                  20120663.8194
        50.0004         34.7504
  21577623.9374   -1774791.79349  -1386423.06647                  21577622.1014
        46.0004         26.7504
  21307038.5854  -18239739.40249 -14202980.79947                  21307036.6084
        45.5004         26.5004
  22943383.6714   -1169993.00849   -914987.14346                  22943382.7734
        37.5004         20.2504
  18957566.6244   -9872458.55949  -7672983.51348                  18957564.6014
        49.5004         40.5004
  22577275.2414  -10269774.01249  -7986846.68946                  22577274.3314
        42.5004         22.5004
  21385570.4054  -16382009.21549 -12738009.99847                  21385570.3044
        46.5004         28.7504
 04  7  6 20 58  9.9950000  0  7G11G14G20G22G25G30G 1
  20116045.2804  -10796752.03549  -8391924.99647                  20116043.0154
        49.7504         35.2504
  21576494.4294   -1780730.21149  -1391050.40547                  21576491.7454
        45.2504         26.7504
  21295943.6014  -18298045.90249 -14248414.42447                  21295941.7654
        46.0004         27.5004
  22943113.8584   -1171408.02049   -916089.74646                  22943113.0624
        37.7504         18.5004
  18953405.6874   -9894326.39849  -7690023.40848                  18953403.1014
        50.5004         41.2504
  22572816.2264  -10293203.86349  -8005103.76546                  22572816.0464
        42.2504         22.0004
  21376372.2494  -16430344.44549 -12775673.81247                  21376371.8624
        46.2504         30.2504
 04  7  6 20 58 19.9950000  0  7G11G14G20G22G25G30G 1
  20111436.8124  -10820970.70749  -8410796.68647                  20111434.4994
        50.0004         35.5004
  21575365.7964   -1786660.28949  -1395671.28047                  21575363.1164
        45.7504         26.0004
  21284850.9684  -18356336.95349 -14293836.00847                  21284849.0624
        45.7504         28.0004
  22942849.7024   -1172797.23849   -917172.28446                  22942849.2184
        36.0004         18.2504
  18949255.4914   -9916134.37949  -7707016.62548                  18949253.3584
        50.2504         41.5004
  22568370.8434  -10316569.08249  -8023310.36646                  22568369.8904
        41.2504         22.5004
  21367179.0154  -16478656.20749 -12813319.29147                  21367178.8824
        46.5004         29.5004
 04  7  6 20 58 29.9950000  0  7G11G14G20G22G25G30G 1
  20106839.8744  -10845129.04349  -8429621.36847                  20106837.7224
        50.0004         35.5004
  21574238.7024   -1792585.62149  -1400288.43847                  21574235.7694
        46.0004         26.5004
  21273760.5384  -18414616.11349 -14339248.33047                  21273758.8824
        46.0004         28.5004
  22942589.5774   -1174164.41849   -918237.72746                  22942589.0384
        36.2504         17.7504
  18945116.4684   -9937886.23449  -7723966.13048                  18945114.2184
        50.0004         41.5004
  22563936.2494  -10339873.24249  -8041469.54646                  22563935.2104
        42.2504         22.0004
  21357989.1484  -16526948.26249 -12850949.45447                  21357989.0234
        46.2504         30.0004
 04  7  6 20 58 39.9950000  0  7G11G14G20G22G25G30G 1
  20102254.0774  -10869225.35949  -8448397.72747                  20102251.6484
        50.0004         34.7504
  21573111.8124   -1798504.57849  -1404900.61547                  21573109.7534
        45.7504         27.5004
  21262673.5154  -18472881.57449 -14384649.98947                  21262671.4334
        45.7504         27.0004
  22942333.2414   -1175507.79348   -919284.55546                  22942333.4334
        35.0004         16.7504
  18940988.2964   -9959580.29749  -7740870.59448                  18940985.8154
        50.0004         40.7504
  22559513.1634  -10363114.66849  -8059579.73746                  22559512.7964
        42.0004         22.5004
  21348804.0304  -16575218.83249 -12888562.88647                  21348803.6794
        46.5004         29.5004
 04  7  6 20 58 49.9950000  0  7G11G14G20G22G25G30G 1
  20097680.4374  -10893262.09449  -8467127.65147                  20097677.8084
        50.2504         34.7504
  21571986.3904   -1804419.59449  -1409509.72947                  21571984.4294
        45.5004         26.2504
  21251588.0304  -18531135.68049 -14430042.75347                  21251585.9834
        45.7504         27.5004
  22942082.9834   -1176829.80949   -920314.69146                  22942081.8864
        38.2504         16.7504
  18936870.6164   -9981219.06249  -7757731.96048                  18936868.2334
        49.5004         40.5004
  22555101.8584  -10386295.72749  -8077642.86446                  22555100.9134
        42.2504         22.5004
  21339622.2574  -16623470.42249 -12926161.46247                  21339621.3624
        46.5004         29.7504
 04  7  6 20 58 59.9950000  0  7G11G14G20G22G25G30G 1
  20093117.6084  -10917238.93749  -8485810.91147                  20093114.9444
        49.5004         34.7504
  21570861.4914   -1810330.27349  -1414115.45247                  21570859.5034
        46.0004         26.0004
  21240504.9054  -18589378.00449 -14475426.38647                  21240502.8824
        45.2504         28.7504
  22941835.1484   -1178130.14548   -921327.99646                  22941834.4294
        35.7504         16.7504
  18932763.2574  -10002802.18049  -7774549.97148                  18932761.0464
        50.2504         40.7504
  22550702.0304  -10409416.18049  -8095658.86546                  22550701.6204
        43.0004         22.2504
  21330443.4604  -16671702.66449 -12963745.01847                  21330443.2334
        45.7504         29.0004
 04  7  6 20 59  9.9950000  0  7G11G14G20G22G25G30G 1
  20088566.2184  -10941157.68049  -8504448.87747                  20088563.4404
        49.7504         34.5004
  21569737.6324   -1816238.37949  -1418719.18047                  21569735.2804
        45.7504         26.5004
  21229424.0854  -18647610.27049 -14520802.14347                  21229421.8514
        46.2504         28.7504
  22941591.8124   -1179410.52349   -922325.75046                  22941590.6554
        36.7504         16.7504
  18928666.3664  -10024331.48449  -7791326.03448                  18928664.0424
        49.7504         40.7504
  22546314.3194  -10432477.62549  -8113628.78846                  22546313.4014
        42.5004         22.2504
  21321268.2964  -16719917.25849 -13001314.78647                  21321268.0894
        45.7504         28.2504
 04  7  6 20 59 19.9950000  0  8G16G11G14G20G22G25G30G 1
  22959938.335     -195102.43718
        33.000
  20084025.4764  -10965017.08649  -8523040.64247                  20084023.1874
        49.7504         35.0004
  21568613.5624   -1822142.77049  -1423320.03547                  21568612.0114
        46.0004         27.0004
  21218344.1944  -18705831.25449 -14566169.12747                  21218342.8004
        46.0004         28.7504
  22941351.8354   -1180669.88349   -923307.10946                  22941350.8824
        38.0004         15.5004
  18924579.8584  -10045805.84049  -7808059.32648                  18924577.7654
        49.5004         41.0004
  22541936.6874  -10455478.96149  -8131551.90346                  22541936.1514
        43.5004         22.0004
  21312096.9054  -16768113.03549 -13038869.93347                  21312096.8234
        46.5004         30.0004
